GEFSSE_prec_meanprecacc_126.txt.gz
Total_Precipitation_Accumulation
0.06 0.03 0.04 0.03 0.07 0.08 0.08 0.10 0.12 0.13 0.12 0.11 0.10 0.11 0.12 0.10 0.08 0.07 0.07 0.09 0.14 0.20 0.24 0.25 0.22 0.20 0.20 0.20 0.16 0.11 0.09 0.08 0.11 0.12 0.16 0.19 0.20 0.20 0.21 0.22 0.28 0.25 0.14
0.04 0.02 0.03 0.02 0.04 0.07 0.08 0.11 0.12 0.12 0.13 0.13 0.14 0.15 0.15 0.10 0.08 0.07 0.07 0.11 0.17 0.21 0.22 0.22 0.20 0.18 0.18 0.15 0.11 0.09 0.08 0.09 0.16 0.22 0.26 0.28 0.31 0.25 0.23 0.23 0.31 0.34 0.21
0.04 0.02 0.02 0.02 0.02 0.05 0.07 0.11 0.11 0.10 0.11 0.12 0.13 0.12 0.10 0.08 0.07 0.06 0.07 0.11 0.16 0.17 0.16 0.13 0.11 0.11 0.11 0.09 0.08 0.08 0.09 0.13 0.21 0.33 0.59 0.51 0.37 0.24 0.23 0.22 0.19 0.17 0.20
0.04 0.02 0.02 0.03 0.03 0.04 0.05 0.09 0.13 0.12 0.11 0.10 0.11 0.10 0.08 0.08 0.08 0.07 0.08 0.11 0.13 0.13 0.10 0.08 0.07 0.07 0.08 0.07 0.06 0.08 0.11 0.17 0.30 0.52 1.01 0.76 0.49 0.30 0.25 0.23 0.19 0.16 0.18
0.04 0.02 0.03 0.03 0.05 0.06 0.05 0.06 0.12 0.14 0.14 0.13 0.13 0.12 0.11 0.10 0.09 0.09 0.10 0.11 0.12 0.12 0.13 0.12 0.10 0.08 0.07 0.07 0.07 0.10 0.17 0.25 0.45 0.80 1.25 1.08 0.83 0.52 0.33 0.29 0.30 0.24 0.22
0.07 0.04 0.04 0.05 0.06 0.09 0.08 0.08 0.11 0.13 0.15 0.17 0.16 0.15 0.14 0.13 0.11 0.10 0.10 0.11 0.12 0.13 0.16 0.18 0.13 0.08 0.07 0.07 0.08 0.14 0.22 0.36 0.54 0.88 1.34 1.28 0.93 0.56 0.38 0.34 0.34 0.29 0.25
0.16 0.13 0.08 0.08 0.08 0.10 0.11 0.12 0.14 0.13 0.15 0.18 0.18 0.16 0.14 0.14 0.13 0.12 0.12 0.11 0.13 0.17 0.19 0.15 0.10 0.06 0.06 0.07 0.10 0.15 0.25 0.45 0.66 1.12 1.39 1.23 1.11 0.65 0.45 0.40 0.38 0.32 0.24
0.25 0.20 0.16 0.14 0.11 0.13 0.16 0.17 0.20 0.21 0.20 0.21 0.19 0.17 0.15 0.14 0.14 0.16 0.15 0.15 0.18 0.22 0.20 0.12 0.06 0.04 0.04 0.05 0.08 0.14 0.27 0.38 0.56 1.08 1.39 1.11 0.87 0.58 0.45 0.42 0.38 0.32 0.27
0.32 0.32 0.31 0.23 0.20 0.21 0.23 0.22 0.23 0.26 0.24 0.21 0.20 0.22 0.22 0.22 0.22 0.21 0.20 0.19 0.21 0.22 0.16 0.09 0.05 0.04 0.04 0.04 0.06 0.10 0.21 0.37 0.60 0.82 0.88 0.90 0.71 0.53 0.40 0.31 0.23 0.21 0.20
0.49 0.49 0.50 0.52 0.44 0.30 0.28 0.29 0.28 0.31 0.29 0.24 0.21 0.22 0.24 0.23 0.21 0.20 0.17 0.18 0.18 0.18 0.13 0.09 0.08 0.06 0.04 0.04 0.04 0.07 0.15 0.25 0.35 0.63 0.93 0.82 0.62 0.58 0.53 0.36 0.24 0.18 0.16
0.69 0.66 0.58 0.64 0.63 0.44 0.37 0.32 0.33 0.36 0.33 0.26 0.21 0.20 0.21 0.31 0.35 0.30 0.20 0.21 0.18 0.17 0.15 0.13 0.09 0.07 0.05 0.03 0.04 0.06 0.08 0.15 0.35 0.69 1.00 0.80 0.63 0.66 0.62 0.47 0.32 0.24 0.19
0.90 0.87 0.79 0.64 0.57 0.54 0.43 0.40 0.43 0.41 0.40 0.33 0.32 0.26 0.33 0.58 0.70 0.54 0.52 0.37 0.27 0.23 0.20 0.16 0.12 0.09 0.06 0.04 0.05 0.05 0.05 0.13 0.37 0.72 0.72 0.59 0.63 0.73 0.76 0.60 0.41 0.30 0.27
1.19 0.99 1.05 0.90 0.73 0.82 0.83 0.68 0.64 0.61 0.60 0.54 0.65 0.64 0.68 0.79 0.73 0.72 0.82 0.57 0.42 0.35 0.34 0.33 0.18 0.15 0.12 0.13 0.11 0.08 0.09 0.16 0.32 0.52 0.57 0.56 0.62 0.78 0.86 0.71 0.55 0.45 0.41
1.57 1.34 1.23 1.20 1.05 1.06 1.20 1.06 0.88 0.80 0.84 0.83 0.90 0.81 0.91 1.01 0.96 0.93 1.03 0.82 0.72 0.69 0.73 0.65 0.48 0.37 0.28 0.22 0.18 0.17 0.18 0.19 0.27 0.43 0.59 0.58 0.63 0.81 0.92 0.88 0.73 0.61 0.54
1.70 1.60 1.35 1.37 1.31 1.34 1.46 1.30 1.15 1.10 1.04 1.02 1.08 1.01 1.02 1.07 1.13 1.20 1.07 1.02 0.93 0.93 0.94 0.82 0.74 0.68 0.54 0.49 0.38 0.33 0.36 0.32 0.34 0.42 0.53 0.58 0.59 0.76 0.97 1.01 0.93 0.82 0.78
1.47 1.56 1.62 1.55 1.49 1.37 1.42 1.40 1.28 1.17 1.20 1.16 1.18 1.14 1.07 1.13 1.32 1.38 1.31 1.28 1.23 1.24 1.32 1.17 1.01 1.00 0.87 0.81 0.71 0.66 0.66 0.63 0.60 0.63 0.77 0.74 0.65 0.71 0.91 1.09 1.13 1.11 1.09
1.40 1.48 1.61 1.61 1.57 1.52 1.52 1.57 1.50 1.37 1.34 1.36 1.43 1.49 1.37 1.31 1.48 1.52 1.63 1.61 1.55 1.52 1.55 1.54 1.43 1.39 1.28 1.21 1.08 0.89 0.85 0.92 0.97 0.90 0.94 1.02 0.89 0.86 0.86 0.96 1.06 1.15 1.21
1.18 1.32 1.37 1.49 1.52 1.67 1.82 1.94 1.77 1.73 1.69 1.70 1.61 1.63 1.54 1.50 1.63 1.77 1.84 1.84 1.83 1.79 1.87 1.92 1.88 1.70 1.62 1.49 1.37 1.15 1.07 1.06 1.13 1.22 1.20 1.26 1.37 1.27 1.13 1.04 1.04 1.12 1.22
1.03 1.30 1.42 1.53 1.68 1.75 1.90 2.11 2.10 2.14 2.11 2.07 2.05 1.94 1.98 2.04 1.97 2.05 2.13 2.21 2.23 2.28 2.29 2.20 2.22 2.00 1.97 1.88 1.65 1.52 1.33 1.26 1.25 1.25 1.32 1.31 1.37 1.38 1.35 1.28 1.14 1.12 1.22
1.06 1.33 1.55 1.72 1.93 2.18 2.23 2.39 2.37 2.56 2.71 2.72 2.83 2.74 2.58 2.61 2.61 2.69 2.67 2.68 2.68 2.74 2.62 2.57 2.54 2.35 2.19 2.16 1.83 1.67 1.52 1.40 1.37 1.32 1.33 1.33 1.25 1.17 1.21 1.24 1.28 1.18 1.21
1.46 1.52 1.63 1.76 1.95 2.15 2.44 2.77 2.97 3.08 3.31 3.42 3.50 3.64 3.59 3.52 3.59 3.61 3.52 3.41 3.27 3.13 2.97 2.87 2.70 2.52 2.31 2.21 2.08 1.77 1.42 1.21 1.22 1.19 1.19 1.27 1.28 1.22 1.19 1.20 1.20 1.14 1.09
1.70 1.71 1.79 1.88 2.12 2.41 2.77 3.20 3.64 3.87 4.06 4.08 4.11 4.30 4.40 4.39 4.52 4.62 4.51 4.29 4.09 3.72 3.29 2.97 2.76 2.62 2.39 2.32 2.22 2.12 1.68 1.34 1.13 0.94 0.98 1.02 1.06 1.14 1.12 1.06 1.06 1.10 1.09
1.71 1.81 1.91 2.20 2.61 3.06 3.53 4.03 4.48 4.79 4.87 4.81 4.54 4.60 4.72 4.68 4.72 4.88 4.85 4.60 4.23 3.66 3.14 2.92 2.80 2.65 2.51 2.41 2.26 2.28 1.93 1.60 1.32 1.01 0.86 0.80 0.84 0.85 0.85 0.88 0.90 0.95 0.94
1.70 1.88 2.00 2.33 2.89 3.39 3.85 4.50 5.02 5.33 5.50 5.60 5.36 5.04 4.88 4.71 4.58 4.50 4.37 3.98 3.54 3.18 2.90 2.78 2.74 2.53 2.50 2.39 2.28 2.01 1.79 1.57 1.40 1.16 0.95 0.81 0.76 0.72 0.72 0.74 0.77 0.84 0.88
1.64 1.69 1.80 2.21 2.80 3.54 4.27 4.80 5.27 5.65 5.78 5.75 5.39 5.00 4.58 4.24 3.84 3.50 3.17 2.93 2.80 2.59 2.38 2.29 2.26 2.20 2.08 1.98 1.95 1.88 1.78 1.58 1.32 1.14 1.02 0.91 0.87 0.81 0.76 0.77 0.78 0.81 0.85
1.37 1.54 1.78 2.13 2.82 3.59 4.18 4.69 5.05 5.38 5.42 5.15 4.73 4.27 3.95 3.56 3.13 2.72 2.53 2.32 2.17 1.99 1.77 1.64 1.62 1.66 1.71 1.76 1.80 1.76 1.68 1.62 1.48 1.36 1.24 1.08 1.03 1.00 0.90 0.86 0.86 0.88 0.93

GEFSSE_prec_meanprecacc_132.txt.gz
Total_Precipitation_Accumulation
0.07 0.03 0.04 0.03 0.07 0.08 0.08 0.10 0.12 0.13 0.12 0.11 0.10 0.11 0.12 0.10 0.08 0.07 0.07 0.09 0.14 0.20 0.24 0.26 0.23 0.20 0.21 0.21 0.16 0.12 0.10 0.09 0.12 0.13 0.17 0.20 0.22 0.22 0.23 0.24 0.28 0.25 0.15
0.05 0.02 0.03 0.02 0.04 0.07 0.08 0.11 0.12 0.12 0.13 0.13 0.14 0.15 0.15 0.10 0.08 0.07 0.07 0.11 0.17 0.21 0.22 0.22 0.21 0.18 0.18 0.16 0.11 0.09 0.09 0.10 0.17 0.24 0.28 0.30 0.32 0.27 0.25 0.24 0.31 0.34 0.22
0.06 0.02 0.02 0.02 0.02 0.05 0.07 0.11 0.11 0.10 0.12 0.12 0.13 0.13 0.10 0.08 0.07 0.07 0.07 0.11 0.16 0.17 0.16 0.13 0.11 0.11 0.11 0.09 0.08 0.08 0.09 0.14 0.23 0.37 0.63 0.53 0.38 0.25 0.24 0.22 0.20 0.17 0.20
0.06 0.03 0.02 0.03 0.03 0.04 0.05 0.09 0.14 0.12 0.11 0.11 0.11 0.10 0.09 0.08 0.08 0.07 0.08 0.11 0.14 0.13 0.10 0.08 0.07 0.07 0.08 0.07 0.06 0.08 0.11 0.19 0.34 0.59 1.07 0.79 0.51 0.31 0.26 0.23 0.19 0.16 0.18
0.05 0.03 0.03 0.04 0.05 0.06 0.06 0.06 0.12 0.15 0.14 0.14 0.13 0.12 0.12 0.11 0.10 0.09 0.10 0.12 0.12 0.12 0.13 0.13 0.10 0.08 0.07 0.07 0.08 0.11 0.18 0.27 0.50 0.89 1.35 1.13 0.86 0.54 0.33 0.29 0.30 0.24 0.22
0.09 0.05 0.04 0.05 0.07 0.09 0.08 0.08 0.11 0.14 0.16 0.17 0.16 0.15 0.14 0.13 0.12 0.10 0.11 0.11 0.12 0.13 0.16 0.18 0.14 0.08 0.07 0.07 0.09 0.14 0.23 0.39 0.59 0.96 1.49 1.37 0.98 0.59 0.39 0.35 0.35 0.30 0.25
0.18 0.14 0.09 0.09 0.08 0.10 0.12 0.13 0.15 0.14 0.16 0.19 0.19 0.17 0.15 0.15 0.13 0.13 0.13 0.11 0.14 0.17 0.19 0.16 0.10 0.06 0.06 0.07 0.10 0.16 0.27 0.50 0.73 1.19 1.48 1.34 1.17 0.68 0.46 0.41 0.38 0.32 0.24
0.26 0.21 0.17 0.15 0.12 0.13 0.17 0.18 0.21 0.23 0.22 0.22 0.21 0.18 0.16 0.14 0.14 0.17 0.16 0.15 0.18 0.22 0.21 0.12 0.06 0.04 0.04 0.05 0.09 0.15 0.29 0.42 0.61 1.16 1.49 1.21 0.93 0.62 0.46 0.42 0.38 0.32 0.27
0.33 0.33 0.31 0.23 0.20 0.21 0.24 0.22 0.24 0.28 0.27 0.23 0.22 0.24 0.23 0.23 0.23 0.22 0.20 0.19 0.22 0.23 0.17 0.10 0.06 0.04 0.04 0.05 0.06 0.11 0.23 0.40 0.64 0.89 0.98 0.98 0.77 0.59 0.43 0.32 0.23 0.21 0.20
0.49 0.50 0.51 0.52 0.44 0.30 0.28 0.30 0.30 0.35 0.34 0.27 0.23 0.24 0.26 0.24 0.22 0.21 0.18 0.19 0.19 0.18 0.14 0.11 0.09 0.07 0.05 0.04 0.05 0.08 0.16 0.27 0.39 0.71 1.04 0.89 0.70 0.65 0.58 0.38 0.24 0.19 0.16
0.70 0.67 0.59 0.65 0.64 0.45 0.37 0.33 0.34 0.38 0.38 0.28 0.23 0.23 0.24 0.33 0.37 0.31 0.23 0.24 0.20 0.18 0.17 0.14 0.10 0.08 0.06 0.04 0.05 0.08 0.10 0.17 0.39 0.77 1.10 0.88 0.72 0.74 0.67 0.50 0.34 0.25 0.20
0.92 0.88 0.81 0.67 0.60 0.56 0.44 0.41 0.44 0.42 0.42 0.35 0.34 0.29 0.35 0.61 0.73 0.58 0.57 0.42 0.32 0.27 0.22 0.19 0.14 0.10 0.07 0.06 0.06 0.07 0.08 0.16 0.43 0.85 0.85 0.70 0.73 0.82 0.82 0.63 0.44 0.32 0.28
1.25 1.04 1.09 0.95 0.77 0.87 0.88 0.72 0.66 0.63 0.63 0.58 0.70 0.68 0.72 0.84 0.81 0.80 0.89 0.66 0.52 0.43 0.39 0.37 0.22 0.18 0.16 0.17 0.16 0.13 0.16 0.24 0.44 0.67 0.71 0.68 0.74 0.88 0.93 0.76 0.58 0.48 0.43
1.62 1.40 1.30 1.28 1.12 1.17 1.37 1.22 0.94 0.86 0.89 0.89 0.98 0.88 1.00 1.13 1.10 1.07 1.15 0.95 0.84 0.80 0.83 0.73 0.56 0.45 0.40 0.32 0.28 0.28 0.29 0.31 0.41 0.60 0.70 0.68 0.74 0.92 1.02 0.95 0.77 0.65 0.58
1.76 1.67 1.43 1.48 1.42 1.46 1.63 1.49 1.26 1.20 1.12 1.13 1.28 1.17 1.19 1.25 1.28 1.35 1.24 1.17 1.07 1.05 1.04 0.92 0.85 0.79 0.70 0.63 0.52 0.47 0.47 0.44 0.46 0.57 0.62 0.68 0.68 0.88 1.11 1.12 1.00 0.88 0.83
1.55 1.65 1.73 1.70 1.72 1.56 1.60 1.57 1.42 1.28 1.30 1.28 1.33 1.31 1.25 1.29 1.48 1.52 1.48 1.42 1.37 1.38 1.46 1.30 1.10 1.10 0.98 0.95 0.90 0.85 0.77 0.73 0.72 0.78 0.91 0.85 0.74 0.81 1.02 1.20 1.22 1.18 1.16
1.45 1.56 1.71 1.75 1.79 1.74 1.70 1.71 1.67 1.56 1.50 1.53 1.61 1.66 1.51 1.43 1.63 1.68 1.80 1.76 1.69 1.67 1.70 1.66 1.50 1.47 1.36 1.29 1.19 1.04 0.99 1.07 1.08 0.99 1.08 1.15 0.98 0.94 0.94 1.05 1.16 1.24 1.29
1.22 1.37 1.45 1.58 1.66 1.85 1.96 2.08 1.92 1.93 1.90 1.89 1.78 1.77 1.66 1.63 1.77 1.91 1.99 1.99 1.97 1.92 2.02 2.07 1.99 1.79 1.69 1.57 1.45 1.23 1.17 1.23 1.26 1.30 1.29 1.36 1.45 1.34 1.21 1.12 1.13 1.22 1.31
1.05 1.33 1.47 1.58 1.76 1.87 2.00 2.23 2.24 2.32 2.29 2.24 2.20 2.09 2.13 2.20 2.13 2.18 2.27 2.34 2.37 2.41 2.43 2.34 2.37 2.10 2.04 1.95 1.73 1.58 1.39 1.36 1.38 1.33 1.39 1.38 1.44 1.44 1.42 1.35 1.23 1.21 1.32
1.08 1.35 1.58 1.75 1.98 2.24 2.30 2.47 2.45 2.63 2.79 2.84 2.95 2.87 2.72 2.75 2.75 2.83 2.83 2.85 2.82 2.87 2.75 2.69 2.66 2.44 2.27 2.24 1.90 1.74 1.60 1.48 1.45 1.42 1.41 1.41 1.32 1.24 1.27 1.31 1.36 1.26 1.31
1.49 1.54 1.66 1.80 2.00 2.20 2.51 2.86 3.04 3.13 3.36 3.50 3.60 3.74 3.70 3.64 3.72 3.75 3.65 3.55 3.39 3.24 3.09 2.98 2.80 2.63 2.41 2.30 2.16 1.84 1.49 1.28 1.29 1.25 1.27 1.36 1.37 1.30 1.26 1.28 1.27 1.21 1.17
1.72 1.72 1.80 1.90 2.16 2.44 2.81 3.26 3.72 3.93 4.12 4.15 4.19 4.39 4.48 4.49 4.65 4.75 4.62 4.41 4.19 3.81 3.38 3.06 2.85 2.71 2.48 2.41 2.31 2.22 1.76 1.41 1.18 0.99 1.04 1.09 1.13 1.21 1.18 1.12 1.11 1.15 1.15
1.73 1.82 1.92 2.21 2.64 3.09 3.55 4.05 4.51 4.83 4.92 4.87 4.59 4.66 4.79 4.77 4.84 5.00 4.96 4.70 4.33 3.74 3.21 3.01 2.90 2.76 2.61 2.51 2.35 2.38 2.03 1.68 1.39 1.06 0.89 0.84 0.89 0.90 0.91 0.94 0.97 1.04 1.02
1.72 1.90 2.01 2.33 2.90 3.39 3.86 4.51 5.03 5.35 5.54 5.65 5.42 5.11 4.95 4.79 4.66 4.58 4.46 4.06 3.63 3.27 2.98 2.85 2.81 2.61 2.57 2.47 2.37 2.09 1.85 1.63 1.47 1.21 0.99 0.85 0.81 0.78 0.77 0.80 0.85 0.96 1.01
1.66 1.71 1.81 2.21 2.80 3.54 4.27 4.81 5.28 5.66 5.81 5.79 5.45 5.06 4.66 4.32 3.92 3.58 3.25 2.99 2.85 2.65 2.44 2.34 2.31 2.25 2.12 2.03 2.00 1.94 1.85 1.65 1.38 1.19 1.05 0.93 0.91 0.85 0.80 0.81 0.83 0.88 0.93
1.39 1.55 1.79 2.13 2.82 3.59 4.19 4.70 5.07 5.40 5.44 5.18 4.77 4.33 4.03 3.64 3.19 2.77 2.57 2.35 2.20 2.02 1.80 1.68 1.66 1.69 1.75 1.80 1.84 1.80 1.73 1.67 1.53 1.43 1.29 1.11 1.06 1.03 0.93 0.90 0.90 0.92 0.98

GEFSSE_prec_meanprecacc_138.txt.gz
Total_Precipitation_Accumulation
0.08 0.03 0.04 0.04 0.07 0.08 0.08 0.10 0.12 0.13 0.12 0.11 0.11 0.11 0.12 0.10 0.08 0.07 0.07 0.09 0.14 0.21 0.25 0.26 0.24 0.22 0.22 0.22 0.17 0.13 0.10 0.09 0.13 0.14 0.18 0.22 0.25 0.25 0.26 0.25 0.29 0.26 0.16
0.05 0.03 0.04 0.03 0.04 0.07 0.08 0.11 0.12 0.12 0.13 0.13 0.14 0.15 0.15 0.11 0.08 0.08 0.08 0.11 0.17 0.22 0.23 0.23 0.21 0.18 0.19 0.16 0.12 0.10 0.09 0.11 0.19 0.25 0.31 0.32 0.36 0.31 0.28 0.25 0.32 0.34 0.22
0.06 0.04 0.04 0.03 0.03 0.05 0.07 0.11 0.11 0.10 0.12 0.13 0.13 0.13 0.10 0.08 0.07 0.07 0.07 0.11 0.17 0.18 0.17 0.13 0.11 0.12 0.12 0.10 0.08 0.08 0.10 0.15 0.25 0.40 0.66 0.54 0.40 0.28 0.26 0.24 0.20 0.18 0.20
0.07 0.04 0.03 0.04 0.04 0.05 0.05 0.09 0.14 0.12 0.11 0.11 0.11 0.10 0.09 0.08 0.08 0.08 0.09 0.11 0.14 0.14 0.10 0.08 0.07 0.07 0.09 0.08 0.07 0.09 0.13 0.21 0.37 0.61 1.08 0.81 0.53 0.33 0.27 0.24 0.20 0.16 0.18
0.06 0.03 0.04 0.05 0.06 0.07 0.06 0.06 0.12 0.15 0.14 0.14 0.13 0.12 0.12 0.11 0.10 0.09 0.11 0.12 0.13 0.12 0.14 0.13 0.11 0.08 0.08 0.08 0.09 0.13 0.20 0.32 0.55 0.91 1.36 1.15 0.88 0.56 0.34 0.29 0.30 0.25 0.22
0.11 0.06 0.05 0.06 0.08 0.10 0.09 0.09 0.11 0.14 0.16 0.17 0.16 0.15 0.14 0.13 0.12 0.10 0.11 0.12 0.12 0.13 0.16 0.19 0.14 0.09 0.07 0.08 0.10 0.16 0.26 0.43 0.64 0.99 1.50 1.39 0.99 0.60 0.40 0.35 0.35 0.30 0.25
0.19 0.15 0.10 0.10 0.09 0.11 0.13 0.14 0.16 0.15 0.17 0.20 0.19 0.17 0.15 0.15 0.14 0.13 0.13 0.12 0.14 0.17 0.19 0.16 0.11 0.07 0.06 0.07 0.12 0.18 0.30 0.54 0.76 1.22 1.50 1.36 1.18 0.71 0.48 0.42 0.39 0.32 0.25
0.28 0.22 0.17 0.15 0.12 0.14 0.17 0.18 0.23 0.25 0.24 0.24 0.22 0.19 0.17 0.15 0.15 0.17 0.16 0.16 0.19 0.23 0.21 0.13 0.07 0.05 0.05 0.06 0.10 0.17 0.31 0.45 0.63 1.19 1.51 1.23 0.97 0.66 0.49 0.44 0.39 0.32 0.28
0.35 0.35 0.32 0.24 0.20 0.22 0.24 0.23 0.25 0.31 0.31 0.28 0.27 0.28 0.26 0.25 0.23 0.22 0.21 0.20 0.23 0.23 0.18 0.11 0.07 0.05 0.05 0.06 0.07 0.12 0.25 0.44 0.67 0.92 1.00 1.00 0.82 0.66 0.48 0.34 0.24 0.21 0.21
0.52 0.53 0.53 0.53 0.45 0.32 0.29 0.31 0.30 0.37 0.39 0.33 0.31 0.33 0.32 0.27 0.24 0.22 0.19 0.20 0.20 0.19 0.15 0.12 0.10 0.07 0.06 0.05 0.06 0.10 0.19 0.30 0.41 0.73 1.07 0.92 0.75 0.74 0.65 0.43 0.27 0.20 0.17
0.71 0.69 0.62 0.67 0.65 0.46 0.38 0.34 0.35 0.40 0.46 0.41 0.34 0.34 0.32 0.39 0.40 0.33 0.24 0.25 0.22 0.20 0.18 0.15 0.11 0.08 0.06 0.05 0.07 0.10 0.12 0.19 0.41 0.79 1.14 0.92 0.78 0.85 0.78 0.58 0.39 0.28 0.21
0.93 0.90 0.83 0.69 0.62 0.57 0.45 0.42 0.46 0.44 0.46 0.43 0.44 0.41 0.45 0.69 0.78 0.60 0.59 0.46 0.36 0.30 0.25 0.20 0.15 0.11 0.08 0.06 0.07 0.09 0.09 0.17 0.44 0.88 0.90 0.75 0.82 0.94 0.95 0.74 0.52 0.38 0.32
1.28 1.06 1.11 0.97 0.80 0.89 0.90 0.74 0.68 0.66 0.66 0.61 0.76 0.76 0.81 0.90 0.85 0.83 0.91 0.69 0.55 0.47 0.44 0.41 0.25 0.20 0.17 0.18 0.17 0.15 0.18 0.26 0.46 0.71 0.75 0.74 0.84 1.01 1.08 0.90 0.68 0.56 0.50
1.69 1.44 1.33 1.31 1.16 1.22 1.42 1.26 0.98 0.89 0.92 0.92 1.02 0.93 1.06 1.18 1.15 1.11 1.17 0.98 0.88 0.85 0.87 0.77 0.60 0.49 0.43 0.34 0.31 0.31 0.31 0.33 0.44 0.63 0.74 0.74 0.82 1.04 1.17 1.09 0.88 0.74 0.67
1.83 1.74 1.49 1.54 1.48 1.51 1.68 1.56 1.34 1.28 1.16 1.16 1.31 1.21 1.23 1.30 1.34 1.41 1.30 1.22 1.14 1.12 1.09 0.96 0.89 0.85 0.75 0.68 0.56 0.51 0.51 0.48 0.50 0.60 0.66 0.74 0.76 0.98 1.25 1.29 1.16 1.00 0.96
1.64 1.73 1.82 1.81 1.81 1.64 1.67 1.64 1.50 1.37 1.38 1.33 1.36 1.36 1.30 1.35 1.54 1.59 1.56 1.50 1.45 1.47 1.56 1.38 1.18 1.18 1.07 1.03 0.96 0.91 0.82 0.78 0.77 0.82 0.96 0.91 0.81 0.90 1.15 1.36 1.40 1.34 1.30
1.55 1.64 1.82 1.87 1.90 1.82 1.76 1.78 1.76 1.66 1.62 1.62 1.68 1.73 1.58 1.50 1.71 1.77 1.90 1.85 1.78 1.76 1.81 1.76 1.60 1.57 1.45 1.37 1.26 1.10 1.04 1.13 1.13 1.04 1.13 1.21 1.04 1.03 1.04 1.18 1.31 1.39 1.43
1.28 1.43 1.53 1.66 1.74 1.92 2.02 2.14 2.01 2.04 2.00 2.00 1.88 1.86 1.75 1.71 1.85 2.00 2.09 2.09 2.05 2.00 2.10 2.18 2.10 1.91 1.80 1.66 1.52 1.29 1.21 1.28 1.32 1.35 1.35 1.43 1.52 1.41 1.30 1.22 1.26 1.34 1.46
1.12 1.39 1.52 1.64 1.83 1.95 2.07 2.28 2.31 2.42 2.38 2.35 2.31 2.20 2.24 2.29 2.22 2.27 2.38 2.46 2.46 2.49 2.51 2.44 2.48 2.22 2.16 2.05 1.79 1.63 1.43 1.40 1.43 1.40 1.46 1.43 1.49 1.48 1.47 1.41 1.32 1.32 1.45
1.17 1.42 1.63 1.80 2.05 2.32 2.38 2.53 2.51 2.71 2.86 2.96 3.10 2.99 2.85 2.89 2.89 2.96 2.93 2.96 2.92 2.97 2.84 2.78 2.74 2.52 2.34 2.31 1.98 1.81 1.66 1.53 1.51 1.48 1.47 1.46 1.36 1.29 1.33 1.38 1.43 1.33 1.41
1.58 1.63 1.72 1.86 2.06 2.26 2.57 2.91 3.09 3.20 3.42 3.58 3.71 3.87 3.85 3.80 3.87 3.89 3.76 3.65 3.49 3.34 3.17 3.05 2.87 2.69 2.47 2.37 2.23 1.90 1.54 1.33 1.35 1.30 1.32 1.43 1.43 1.35 1.31 1.33 1.34 1.28 1.24
1.80 1.82 1.89 1.96 2.21 2.49 2.86 3.30 3.75 3.97 4.15 4.19 4.25 4.46 4.58 4.60 4.75 4.84 4.73 4.51 4.29 3.92 3.48 3.14 2.94 2.79 2.55 2.48 2.37 2.28 1.81 1.46 1.22 1.02 1.08 1.13 1.18 1.26 1.22 1.17 1.16 1.20 1.20
1.82 1.91 2.00 2.27 2.69 3.13 3.59 4.09 4.54 4.84 4.93 4.88 4.61 4.69 4.84 4.81 4.89 5.06 5.04 4.79 4.41 3.83 3.32 3.12 3.01 2.88 2.71 2.61 2.44 2.46 2.09 1.73 1.43 1.09 0.92 0.87 0.92 0.94 0.95 0.99 1.02 1.08 1.05
1.83 2.00 2.09 2.39 2.94 3.44 3.90 4.56 5.07 5.38 5.56 5.66 5.43 5.12 4.97 4.81 4.69 4.62 4.51 4.12 3.68 3.33 3.04 2.93 2.89 2.70 2.67 2.56 2.46 2.16 1.93 1.69 1.52 1.26 1.02 0.87 0.84 0.81 0.81 0.83 0.89 0.99 1.05
1.80 1.83 1.90 2.28 2.86 3.59 4.30 4.84 5.31 5.68 5.83 5.81 5.46 5.07 4.68 4.34 3.94 3.61 3.29 3.03 2.90 2.70 2.49 2.39 2.36 2.31 2.19 2.09 2.06 2.00 1.92 1.71 1.43 1.24 1.10 0.97 0.94 0.87 0.83 0.84 0.86 0.91 0.97
1.54 1.66 1.87 2.19 2.87 3.62 4.21 4.73 5.09 5.42 5.47 5.21 4.79 4.34 4.04 3.66 3.22 2.80 2.58 2.37 2.23 2.05 1.83 1.71 1.70 1.74 1.81 1.86 1.89 1.85 1.78 1.73 1.58 1.47 1.34 1.15 1.10 1.07 0.96 0.92 0.93 0.96 1.02

GEFSSE_prec_meanprecacc_144.txt.gz
Total_Precipitation_Accumulation
0.08 0.04 0.05 0.04 0.07 0.08 0.09 0.11 0.13 0.14 0.12 0.11 0.11 0.11 0.12 0.11 0.08 0.07 0.07 0.10 0.14 0.21 0.25 0.27 0.25 0.23 0.23 0.23 0.18 0.13 0.10 0.10 0.13 0.15 0.19 0.23 0.26 0.26 0.28 0.26 0.30 0.27 0.17
0.06 0.04 0.05 0.04 0.05 0.07 0.08 0.12 0.13 0.13 0.14 0.14 0.14 0.15 0.15 0.11 0.08 0.08 0.08 0.11 0.18 0.22 0.23 0.23 0.22 0.19 0.19 0.17 0.12 0.10 0.10 0.11 0.19 0.26 0.32 0.34 0.37 0.32 0.29 0.26 0.33 0.35 0.23
0.07 0.04 0.05 0.04 0.04 0.06 0.08 0.12 0.12 0.10 0.12 0.13 0.13 0.13 0.10 0.08 0.07 0.07 0.07 0.12 0.17 0.19 0.17 0.14 0.12 0.12 0.12 0.10 0.09 0.09 0.10 0.16 0.26 0.42 0.68 0.57 0.41 0.28 0.27 0.24 0.20 0.18 0.21
0.07 0.05 0.04 0.05 0.05 0.06 0.06 0.10 0.14 0.12 0.11 0.11 0.12 0.10 0.09 0.08 0.08 0.08 0.09 0.12 0.15 0.14 0.11 0.08 0.08 0.08 0.09 0.08 0.07 0.09 0.13 0.21 0.38 0.62 1.10 0.82 0.54 0.34 0.28 0.25 0.20 0.17 0.19
0.07 0.05 0.06 0.06 0.07 0.08 0.07 0.07 0.13 0.15 0.14 0.14 0.13 0.12 0.12 0.11 0.10 0.10 0.11 0.13 0.13 0.13 0.14 0.13 0.11 0.08 0.08 0.08 0.09 0.14 0.23 0.35 0.58 0.92 1.37 1.16 0.91 0.58 0.36 0.30 0.31 0.25 0.23
0.11 0.07 0.07 0.07 0.09 0.13 0.13 0.12 0.13 0.15 0.16 0.18 0.17 0.16 0.15 0.14 0.12 0.11 0.12 0.12 0.13 0.14 0.17 0.19 0.15 0.09 0.08 0.08 0.11 0.18 0.28 0.47 0.68 1.02 1.52 1.41 1.03 0.63 0.42 0.37 0.35 0.30 0.25
0.19 0.16 0.11 0.10 0.11 0.13 0.16 0.19 0.22 0.18 0.18 0.21 0.20 0.18 0.16 0.16 0.15 0.14 0.14 0.13 0.15 0.18 0.20 0.16 0.11 0.07 0.07 0.08 0.13 0.20 0.33 0.58 0.81 1.27 1.53 1.39 1.22 0.73 0.49 0.43 0.40 0.33 0.26
0.29 0.23 0.18 0.16 0.13 0.14 0.18 0.21 0.27 0.29 0.28 0.27 0.25 0.22 0.20 0.17 0.16 0.18 0.17 0.17 0.20 0.24 0.22 0.13 0.07 0.05 0.06 0.07 0.11 0.19 0.34 0.50 0.67 1.23 1.55 1.26 1.00 0.69 0.51 0.45 0.40 0.34 0.29
0.37 0.38 0.35 0.25 0.21 0.23 0.25 0.24 0.27 0.33 0.34 0.33 0.33 0.33 0.29 0.28 0.25 0.23 0.22 0.21 0.23 0.24 0.19 0.12 0.08 0.06 0.06 0.07 0.08 0.14 0.26 0.47 0.70 0.97 1.03 1.07 0.86 0.72 0.54 0.38 0.27 0.24 0.22
0.54 0.56 0.57 0.57 0.48 0.34 0.31 0.32 0.32 0.39 0.41 0.36 0.34 0.37 0.35 0.29 0.26 0.24 0.20 0.21 0.21 0.21 0.17 0.13 0.12 0.09 0.07 0.06 0.07 0.12 0.21 0.31 0.43 0.76 1.12 0.98 0.78 0.81 0.76 0.52 0.32 0.24 0.20
0.73 0.71 0.66 0.71 0.68 0.49 0.41 0.36 0.37 0.43 0.49 0.46 0.39 0.37 0.35 0.41 0.42 0.36 0.27 0.28 0.24 0.22 0.20 0.17 0.13 0.10 0.08 0.06 0.07 0.11 0.14 0.20 0.42 0.81 1.19 0.95 0.82 0.92 0.89 0.71 0.48 0.34 0.25
0.95 0.92 0.86 0.72 0.65 0.60 0.47 0.45 0.49 0.48 0.51 0.49 0.50 0.48 0.52 0.76 0.84 0.64 0.63 0.50 0.40 0.35 0.29 0.23 0.18 0.13 0.09 0.07 0.08 0.10 0.11 0.18 0.45 0.90 0.92 0.78 0.87 1.04 1.09 0.90 0.64 0.46 0.39
1.32 1.10 1.15 1.01 0.83 0.92 0.93 0.77 0.72 0.70 0.70 0.67 0.81 0.82 0.87 0.98 0.95 0.90 0.97 0.76 0.62 0.54 0.51 0.47 0.29 0.22 0.19 0.20 0.19 0.16 0.19 0.27 0.48 0.72 0.77 0.77 0.89 1.10 1.23 1.05 0.80 0.66 0.60
1.74 1.50 1.39 1.37 1.24 1.28 1.48 1.32 1.05 0.95 0.97 0.98 1.07 0.97 1.11 1.25 1.23 1.20 1.26 1.07 0.98 0.97 0.99 0.88 0.70 0.56 0.48 0.39 0.34 0.33 0.33 0.36 0.47 0.67 0.77 0.77 0.86 1.12 1.30 1.23 1.03 0.88 0.79
1.88 1.78 1.55 1.61 1.58 1.62 1.78 1.64 1.47 1.48 1.31 1.25 1.38 1.27 1.30 1.37 1.43 1.52 1.42 1.35 1.28 1.26 1.22 1.08 1.01 0.95 0.84 0.75 0.60 0.54 0.54 0.50 0.54 0.66 0.70 0.77 0.79 1.03 1.35 1.45 1.34 1.17 1.10
1.70 1.78 1.87 1.86 1.86 1.71 1.76 1.73 1.60 1.54 1.57 1.46 1.44 1.42 1.37 1.42 1.62 1.69 1.67 1.63 1.60 1.61 1.70 1.51 1.30 1.30 1.17 1.11 1.03 0.98 0.89 0.85 0.84 0.91 1.03 0.97 0.85 0.95 1.23 1.48 1.54 1.49 1.46
1.64 1.71 1.88 1.93 1.96 1.89 1.83 1.85 1.81 1.71 1.65 1.67 1.74 1.78 1.63 1.57 1.77 1.84 2.00 1.96 1.90 1.87 1.91 1.88 1.71 1.68 1.54 1.44 1.35 1.20 1.15 1.22 1.22 1.13 1.22 1.31 1.12 1.08 1.10 1.26 1.42 1.51 1.58
1.32 1.49 1.59 1.71 1.80 2.04 2.13 2.20 2.05 2.07 2.03 2.03 1.92 1.91 1.81 1.77 1.91 2.07 2.17 2.18 2.16 2.09 2.19 2.29 2.21 2.00 1.89 1.75 1.61 1.38 1.30 1.37 1.41 1.43 1.43 1.53 1.62 1.48 1.37 1.29 1.33 1.43 1.56
1.17 1.46 1.60 1.71 1.88 2.02 2.18 2.37 2.35 2.46 2.41 2.38 2.34 2.23 2.29 2.35 2.28 2.34 2.45 2.54 2.56 2.60 2.61 2.53 2.57 2.33 2.27 2.15 1.88 1.70 1.50 1.47 1.52 1.47 1.53 1.51 1.57 1.57 1.55 1.49 1.39 1.39 1.54
1.23 1.51 1.72 1.87 2.10 2.38 2.45 2.60 2.56 2.75 2.90 2.99 3.13 3.03 2.90 2.96 2.98 3.05 3.02 3.05 3.03 3.08 2.95 2.89 2.86 2.65 2.47 2.43 2.08 1.90 1.74 1.60 1.58 1.55 1.53 1.51 1.41 1.35 1.41 1.46 1.53 1.40 1.48
1.64 1.69 1.79 1.93 2.13 2.34 2.64 2.98 3.14 3.23 3.46 3.62 3.75 3.92 3.89 3.85 3.95 3.99 3.87 3.76 3.61 3.48 3.30 3.18 2.98 2.81 2.59 2.49 2.36 2.04 1.66 1.42 1.41 1.34 1.36 1.47 1.47 1.39 1.37 1.40 1.41 1.37 1.33
1.86 1.89 1.96 2.06 2.32 2.59 2.93 3.37 3.81 4.02 4.19 4.23 4.30 4.50 4.62 4.64 4.80 4.91 4.81 4.62 4.39 4.04 3.61 3.28 3.08 2.93 2.68 2.62 2.55 2.45 1.95 1.57 1.30 1.07 1.12 1.18 1.24 1.31 1.26 1.21 1.21 1.27 1.26
1.89 1.99 2.09 2.37 2.80 3.23 3.68 4.17 4.61 4.91 4.98 4.92 4.64 4.73 4.87 4.84 4.92 5.10 5.08 4.85 4.49 3.94 3.44 3.27 3.17 3.03 2.85 2.73 2.57 2.62 2.25 1.86 1.53 1.16 0.97 0.91 0.96 0.99 0.99 1.02 1.05 1.11 1.10
1.91 2.09 2.20 2.52 3.07 3.55 3.99 4.63 5.13 5.43 5.61 5.71 5.47 5.16 5.01 4.84 4.72 4.64 4.53 4.16 3.72 3.39 3.14 3.04 3.00 2.81 2.79 2.69 2.59 2.29 2.06 1.83 1.64 1.35 1.08 0.92 0.87 0.85 0.85 0.87 0.92 1.03 1.10
1.90 1.93 2.01 2.41 3.01 3.73 4.41 4.92 5.37 5.73 5.88 5.86 5.50 5.11 4.71 4.36 3.95 3.62 3.30 3.05 2.92 2.73 2.53 2.45 2.43 2.38 2.26 2.18 2.16 2.10 2.02 1.81 1.54 1.35 1.19 1.03 0.98 0.90 0.86 0.88 0.91 0.96 1.02
1.63 1.76 1.95 2.28 2.96 3.70 4.29 4.80 5.15 5.48 5.51 5.24 4.82 4.36 4.06 3.68 3.23 2.81 2.59 2.38 2.25 2.08 1.87 1.75 1.74 1.79 1.86 1.93 1.98 1.94 1.88 1.83 1.68 1.58 1.43 1.23 1.16 1.10 0.99 0.95 0.97 0.99 1.06

GEFSSE_prec_meanprecacc_150.txt.gz
Total_Precipitation_Accumulation
0.09 0.04 0.05 0.04 0.08 0.09 0.10 0.13 0.14 0.15 0.13 0.12 0.12 0.12 0.12 0.11 0.08 0.08 0.07 0.10 0.14 0.21 0.25 0.27 0.26 0.24 0.24 0.23 0.18 0.13 0.11 0.10 0.13 0.15 0.19 0.23 0.26 0.27 0.28 0.28 0.36 0.32 0.18
0.06 0.04 0.05 0.04 0.05 0.08 0.09 0.13 0.15 0.14 0.15 0.15 0.15 0.16 0.16 0.11 0.08 0.08 0.08 0.12 0.18 0.23 0.23 0.24 0.22 0.20 0.20 0.17 0.12 0.10 0.10 0.11 0.20 0.26 0.33 0.34 0.38 0.32 0.30 0.28 0.39 0.40 0.24
0.07 0.05 0.05 0.04 0.04 0.06 0.09 0.13 0.14 0.12 0.13 0.15 0.15 0.15 0.12 0.09 0.07 0.07 0.08 0.12 0.18 0.19 0.18 0.14 0.12 0.12 0.12 0.10 0.09 0.09 0.10 0.16 0.27 0.43 0.75 0.65 0.45 0.29 0.27 0.25 0.22 0.20 0.22
0.08 0.05 0.04 0.05 0.05 0.06 0.07 0.11 0.15 0.14 0.13 0.13 0.14 0.12 0.10 0.09 0.09 0.09 0.09 0.12 0.15 0.15 0.12 0.09 0.08 0.08 0.09 0.08 0.08 0.10 0.13 0.22 0.38 0.65 1.23 0.99 0.64 0.37 0.30 0.25 0.20 0.18 0.20
0.07 0.05 0.06 0.06 0.07 0.09 0.08 0.08 0.14 0.16 0.16 0.16 0.16 0.14 0.13 0.13 0.12 0.11 0.12 0.13 0.14 0.13 0.15 0.14 0.11 0.08 0.08 0.08 0.10 0.14 0.23 0.36 0.59 0.96 1.47 1.29 1.01 0.62 0.37 0.30 0.31 0.26 0.24
0.11 0.07 0.07 0.07 0.10 0.13 0.13 0.13 0.14 0.16 0.18 0.20 0.19 0.18 0.17 0.16 0.14 0.12 0.13 0.13 0.14 0.15 0.17 0.19 0.15 0.09 0.08 0.09 0.12 0.18 0.29 0.48 0.69 1.07 1.59 1.46 1.10 0.68 0.42 0.37 0.36 0.31 0.26
0.20 0.16 0.11 0.11 0.11 0.13 0.16 0.20 0.23 0.19 0.19 0.22 0.22 0.20 0.19 0.19 0.16 0.15 0.15 0.14 0.16 0.19 0.20 0.17 0.12 0.07 0.07 0.08 0.13 0.20 0.34 0.60 0.84 1.33 1.59 1.43 1.30 0.78 0.50 0.44 0.40 0.34 0.27
0.30 0.23 0.19 0.17 0.14 0.15 0.19 0.21 0.28 0.30 0.29 0.28 0.26 0.24 0.22 0.19 0.17 0.19 0.18 0.18 0.20 0.24 0.23 0.14 0.08 0.06 0.06 0.07 0.11 0.19 0.35 0.51 0.70 1.27 1.58 1.31 1.07 0.72 0.53 0.46 0.41 0.35 0.29
0.37 0.38 0.36 0.26 0.23 0.24 0.26 0.24 0.27 0.34 0.35 0.35 0.35 0.35 0.31 0.28 0.26 0.24 0.23 0.22 0.24 0.25 0.20 0.12 0.08 0.06 0.06 0.07 0.09 0.14 0.27 0.49 0.73 0.99 1.06 1.14 0.92 0.74 0.56 0.40 0.29 0.25 0.24
0.55 0.56 0.58 0.58 0.49 0.36 0.32 0.33 0.33 0.40 0.43 0.37 0.36 0.37 0.35 0.30 0.26 0.25 0.21 0.23 0.23 0.21 0.18 0.14 0.13 0.09 0.07 0.06 0.08 0.12 0.21 0.32 0.44 0.79 1.19 1.06 0.82 0.83 0.79 0.55 0.35 0.26 0.22
0.76 0.74 0.68 0.74 0.72 0.53 0.44 0.38 0.39 0.45 0.51 0.48 0.41 0.39 0.36 0.43 0.46 0.39 0.30 0.31 0.26 0.24 0.21 0.19 0.14 0.11 0.09 0.06 0.08 0.12 0.14 0.21 0.46 0.93 1.30 1.03 0.88 0.95 0.93 0.76 0.53 0.37 0.28
0.98 0.95 0.90 0.77 0.70 0.65 0.53 0.50 0.55 0.52 0.55 0.53 0.58 0.54 0.57 0.83 0.93 0.72 0.72 0.57 0.46 0.38 0.31 0.26 0.20 0.15 0.10 0.09 0.11 0.13 0.12 0.19 0.50 1.00 0.97 0.81 0.92 1.07 1.14 0.96 0.70 0.51 0.43
1.35 1.14 1.20 1.07 0.89 1.01 1.03 0.85 0.81 0.80 0.81 0.76 0.92 0.94 0.99 1.10 1.05 1.00 1.09 0.87 0.71 0.61 0.59 0.57 0.36 0.28 0.25 0.26 0.25 0.22 0.21 0.28 0.50 0.76 0.81 0.81 0.91 1.13 1.27 1.11 0.86 0.73 0.67
1.77 1.54 1.43 1.43 1.32 1.38 1.61 1.46 1.20 1.10 1.11 1.11 1.18 1.08 1.23 1.37 1.35 1.30 1.37 1.20 1.13 1.10 1.13 1.03 0.85 0.68 0.59 0.49 0.40 0.38 0.36 0.38 0.51 0.72 0.83 0.82 0.89 1.15 1.35 1.29 1.09 0.95 0.88
1.92 1.83 1.59 1.65 1.66 1.74 1.92 1.80 1.64 1.69 1.50 1.39 1.51 1.37 1.40 1.49 1.54 1.63 1.52 1.47 1.39 1.38 1.35 1.21 1.14 1.09 0.96 0.85 0.68 0.61 0.60 0.53 0.58 0.74 0.79 0.84 0.85 1.09 1.41 1.52 1.41 1.24 1.19
1.77 1.85 1.91 1.89 1.90 1.77 1.87 1.90 1.77 1.69 1.71 1.56 1.53 1.49 1.44 1.53 1.73 1.80 1.79 1.77 1.72 1.73 1.80 1.61 1.41 1.45 1.31 1.26 1.13 1.04 0.93 0.88 0.87 0.94 1.09 1.08 0.94 1.02 1.30 1.56 1.63 1.57 1.55
1.74 1.80 1.94 1.97 2.01 1.94 1.90 1.94 1.90 1.80 1.71 1.72 1.80 1.84 1.69 1.63 1.86 1.94 2.11 2.08 2.01 1.98 2.03 2.01 1.85 1.85 1.69 1.59 1.48 1.31 1.23 1.29 1.27 1.18 1.30 1.46 1.26 1.21 1.20 1.35 1.50 1.61 1.70
1.41 1.56 1.66 1.79 1.88 2.12 2.22 2.28 2.13 2.20 2.11 2.08 1.97 1.98 1.88 1.84 1.98 2.17 2.28 2.30 2.28 2.20 2.30 2.43 2.38 2.19 2.07 1.91 1.75 1.49 1.39 1.48 1.50 1.49 1.50 1.63 1.75 1.62 1.53 1.39 1.41 1.50 1.65
1.24 1.53 1.67 1.80 1.97 2.13 2.31 2.48 2.45 2.54 2.47 2.43 2.40 2.31 2.37 2.44 2.36 2.44 2.58 2.67 2.68 2.71 2.72 2.62 2.74 2.53 2.47 2.32 2.01 1.82 1.61 1.56 1.61 1.54 1.61 1.59 1.68 1.71 1.72 1.62 1.48 1.47 1.62
1.29 1.59 1.81 1.98 2.21 2.49 2.57 2.74 2.67 2.84 2.98 3.08 3.22 3.12 2.98 3.04 3.03 3.11 3.10 3.15 3.14 3.19 3.06 3.01 2.99 2.80 2.64 2.61 2.22 2.04 1.88 1.71 1.67 1.62 1.60 1.60 1.53 1.45 1.53 1.61 1.66 1.48 1.55
1.70 1.78 1.91 2.06 2.27 2.48 2.78 3.10 3.26 3.34 3.55 3.70 3.83 3.98 3.95 3.91 4.01 4.06 3.96 3.86 3.71 3.58 3.39 3.28 3.11 2.93 2.71 2.63 2.51 2.19 1.78 1.52 1.50 1.43 1.44 1.54 1.54 1.48 1.49 1.54 1.56 1.48 1.41
1.92 1.96 2.07 2.19 2.46 2.74 3.12 3.57 3.99 4.16 4.29 4.31 4.36 4.58 4.69 4.71 4.87 4.98 4.90 4.71 4.49 4.15 3.72 3.39 3.20 3.04 2.79 2.74 2.70 2.61 2.08 1.69 1.40 1.15 1.20 1.26 1.31 1.40 1.37 1.33 1.38 1.45 1.40
1.96 2.06 2.18 2.50 2.91 3.35 3.83 4.35 4.77 5.04 5.09 5.02 4.73 4.84 4.98 4.94 5.01 5.18 5.16 4.91 4.54 4.01 3.53 3.36 3.28 3.15 2.97 2.87 2.73 2.78 2.39 2.00 1.66 1.26 1.05 0.98 1.05 1.09 1.09 1.12 1.17 1.25 1.24
1.98 2.16 2.29 2.63 3.18 3.65 4.12 4.78 5.29 5.57 5.74 5.84 5.60 5.30 5.15 4.97 4.83 4.73 4.60 4.20 3.75 3.42 3.17 3.09 3.08 2.91 2.89 2.81 2.72 2.43 2.21 1.98 1.79 1.48 1.17 1.00 0.95 0.93 0.94 0.95 1.01 1.15 1.21
1.94 1.98 2.07 2.49 3.09 3.81 4.52 5.07 5.54 5.91 6.04 5.98 5.63 5.26 4.84 4.48 4.06 3.71 3.37 3.09 2.95 2.75 2.55 2.47 2.47 2.44 2.33 2.28 2.28 2.22 2.13 1.93 1.67 1.48 1.29 1.11 1.04 0.95 0.93 0.95 1.00 1.07 1.14
1.66 1.79 2.01 2.35 3.02 3.76 4.37 4.91 5.29 5.62 5.65 5.37 4.94 4.48 4.19 3.81 3.33 2.88 2.65 2.43 2.29 2.11 1.90 1.78 1.77 1.83 1.91 1.98 2.05 2.03 1.98 1.93 1.79 1.69 1.55 1.33 1.23 1.17 1.05 1.01 1.05 1.11 1.20

GEFSSE_prec_meanprecacc_156.txt.gz
Total_Precipitation_Accumulation
0.09 0.04 0.05 0.04 0.08 0.09 0.10 0.13 0.15 0.15 0.13 0.12 0.12 0.12 0.13 0.11 0.08 0.08 0.07 0.10 0.14 0.21 0.25 0.27 0.26 0.24 0.24 0.23 0.18 0.14 0.11 0.11 0.14 0.16 0.20 0.25 0.28 0.28 0.31 0.30 0.38 0.33 0.20
0.07 0.05 0.06 0.04 0.05 0.08 0.09 0.13 0.15 0.14 0.15 0.15 0.15 0.16 0.16 0.11 0.08 0.08 0.08 0.12 0.18 0.23 0.23 0.24 0.23 0.20 0.20 0.17 0.13 0.11 0.10 0.12 0.21 0.28 0.34 0.36 0.40 0.34 0.32 0.30 0.42 0.41 0.24
0.08 0.05 0.05 0.04 0.04 0.06 0.09 0.13 0.14 0.12 0.13 0.15 0.15 0.15 0.12 0.09 0.08 0.07 0.08 0.12 0.18 0.19 0.18 0.14 0.12 0.13 0.13 0.11 0.09 0.09 0.11 0.16 0.29 0.46 0.79 0.68 0.48 0.33 0.31 0.27 0.24 0.20 0.22
0.08 0.05 0.04 0.05 0.05 0.06 0.07 0.11 0.16 0.14 0.13 0.13 0.14 0.12 0.10 0.09 0.09 0.09 0.10 0.13 0.16 0.15 0.12 0.09 0.08 0.08 0.10 0.08 0.08 0.10 0.14 0.22 0.41 0.71 1.32 1.10 0.69 0.42 0.34 0.27 0.21 0.18 0.20
0.07 0.05 0.06 0.07 0.08 0.09 0.08 0.08 0.14 0.16 0.17 0.16 0.17 0.15 0.14 0.13 0.12 0.11 0.12 0.14 0.14 0.13 0.15 0.14 0.12 0.09 0.08 0.09 0.10 0.14 0.23 0.36 0.62 1.02 1.59 1.44 1.11 0.72 0.42 0.33 0.32 0.26 0.24
0.12 0.07 0.07 0.07 0.10 0.13 0.13 0.13 0.14 0.16 0.18 0.20 0.19 0.19 0.17 0.16 0.14 0.12 0.13 0.13 0.14 0.15 0.17 0.20 0.15 0.09 0.08 0.09 0.12 0.18 0.29 0.49 0.72 1.13 1.69 1.58 1.22 0.84 0.49 0.40 0.37 0.31 0.27
0.20 0.16 0.12 0.11 0.11 0.13 0.16 0.20 0.23 0.19 0.19 0.22 0.22 0.20 0.19 0.19 0.17 0.15 0.15 0.14 0.16 0.19 0.21 0.17 0.12 0.08 0.07 0.08 0.14 0.20 0.34 0.61 0.87 1.41 1.72 1.54 1.43 0.90 0.56 0.46 0.42 0.35 0.28
0.30 0.25 0.25 0.19 0.14 0.15 0.19 0.21 0.28 0.30 0.30 0.29 0.27 0.24 0.22 0.19 0.18 0.19 0.19 0.19 0.21 0.25 0.23 0.14 0.08 0.06 0.06 0.07 0.12 0.19 0.36 0.52 0.73 1.33 1.68 1.43 1.18 0.83 0.61 0.50 0.43 0.36 0.30
0.38 0.43 0.40 0.28 0.23 0.24 0.26 0.25 0.28 0.34 0.36 0.35 0.36 0.35 0.31 0.29 0.26 0.25 0.24 0.23 0.25 0.26 0.20 0.13 0.08 0.07 0.07 0.07 0.09 0.14 0.28 0.51 0.76 1.04 1.15 1.29 1.07 0.88 0.66 0.45 0.31 0.26 0.24
0.58 0.59 0.59 0.58 0.50 0.36 0.33 0.34 0.33 0.41 0.43 0.38 0.36 0.38 0.35 0.30 0.27 0.25 0.22 0.23 0.23 0.22 0.18 0.15 0.13 0.10 0.08 0.07 0.08 0.12 0.22 0.34 0.46 0.84 1.28 1.20 0.98 0.99 0.90 0.61 0.38 0.27 0.23
0.78 0.75 0.69 0.75 0.72 0.54 0.45 0.39 0.41 0.46 0.52 0.49 0.42 0.40 0.37 0.43 0.47 0.40 0.31 0.33 0.29 0.26 0.23 0.20 0.16 0.12 0.09 0.07 0.08 0.12 0.15 0.22 0.50 0.99 1.41 1.12 1.02 1.10 1.03 0.83 0.57 0.40 0.30
1.00 0.97 0.92 0.79 0.71 0.66 0.54 0.53 0.58 0.55 0.57 0.55 0.59 0.56 0.58 0.85 0.95 0.75 0.76 0.63 0.53 0.44 0.35 0.29 0.23 0.17 0.12 0.09 0.12 0.15 0.14 0.23 0.60 1.12 1.08 0.91 1.04 1.19 1.24 1.03 0.76 0.56 0.46
1.38 1.17 1.23 1.09 0.91 1.03 1.05 0.89 0.85 0.83 0.84 0.79 0.95 0.97 1.02 1.14 1.10 1.04 1.14 0.94 0.79 0.68 0.63 0.62 0.41 0.31 0.28 0.30 0.30 0.26 0.29 0.36 0.58 0.86 0.97 0.97 1.07 1.27 1.40 1.20 0.93 0.78 0.72
1.81 1.58 1.48 1.47 1.35 1.41 1.64 1.50 1.25 1.14 1.15 1.15 1.22 1.12 1.29 1.42 1.40 1.36 1.42 1.26 1.20 1.16 1.18 1.07 0.90 0.74 0.66 0.57 0.48 0.47 0.47 0.49 0.62 0.87 0.98 0.97 1.04 1.30 1.51 1.43 1.20 1.03 0.95
1.97 1.88 1.65 1.70 1.71 1.79 1.97 1.84 1.68 1.76 1.55 1.42 1.54 1.42 1.46 1.55 1.58 1.67 1.59 1.57 1.47 1.44 1.40 1.26 1.20 1.16 1.05 0.95 0.75 0.70 0.74 0.68 0.73 0.91 0.95 0.99 1.00 1.23 1.55 1.68 1.54 1.33 1.27
1.85 1.93 2.02 1.99 1.99 1.85 1.93 1.94 1.80 1.77 1.83 1.65 1.59 1.55 1.51 1.60 1.80 1.85 1.83 1.83 1.79 1.77 1.84 1.66 1.48 1.55 1.41 1.34 1.19 1.12 1.06 1.04 1.06 1.14 1.31 1.25 1.07 1.14 1.42 1.70 1.75 1.67 1.65
1.84 1.90 2.06 2.08 2.10 2.02 1.97 2.00 1.95 1.85 1.82 1.87 1.90 1.92 1.77 1.71 1.93 2.00 2.16 2.11 2.04 2.01 2.07 2.05 1.92 1.92 1.76 1.65 1.53 1.38 1.32 1.39 1.39 1.35 1.49 1.61 1.39 1.33 1.35 1.48 1.63 1.72 1.79
1.51 1.69 1.82 1.92 1.98 2.21 2.30 2.36 2.21 2.29 2.26 2.17 2.04 2.04 1.95 1.91 2.05 2.24 2.34 2.33 2.31 2.23 2.34 2.47 2.42 2.25 2.13 1.96 1.81 1.57 1.47 1.56 1.61 1.62 1.64 1.77 1.89 1.74 1.63 1.50 1.52 1.61 1.76
1.30 1.63 1.80 1.94 2.11 2.25 2.42 2.59 2.55 2.63 2.55 2.50 2.46 2.38 2.45 2.51 2.43 2.51 2.63 2.71 2.73 2.77 2.78 2.68 2.80 2.60 2.53 2.37 2.07 1.87 1.66 1.60 1.67 1.62 1.70 1.70 1.80 1.83 1.82 1.72 1.58 1.58 1.73
1.35 1.65 1.90 2.07 2.33 2.60 2.67 2.84 2.77 2.92 3.05 3.14 3.28 3.17 3.04 3.11 3.11 3.17 3.15 3.19 3.21 3.27 3.14 3.09 3.08 2.87 2.70 2.65 2.26 2.08 1.92 1.76 1.73 1.69 1.66 1.67 1.62 1.54 1.62 1.70 1.74 1.58 1.67
1.81 1.88 1.99 2.14 2.35 2.55 2.85 3.19 3.34 3.42 3.64 3.78 3.89 4.03 3.99 3.96 4.08 4.12 4.02 3.92 3.78 3.66 3.47 3.35 3.17 3.00 2.77 2.69 2.57 2.24 1.83 1.59 1.57 1.50 1.51 1.62 1.62 1.54 1.56 1.64 1.68 1.60 1.50
2.05 2.08 2.16 2.28 2.54 2.83 3.21 3.66 4.08 4.25 4.38 4.41 4.45 4.66 4.76 4.79 4.96 5.08 5.00 4.80 4.57 4.24 3.81 3.47 3.27 3.11 2.85 2.81 2.77 2.67 2.14 1.75 1.48 1.22 1.28 1.34 1.38 1.47 1.45 1.44 1.51 1.59 1.52
2.04 2.13 2.26 2.57 2.99 3.43 3.91 4.42 4.86 5.13 5.17 5.11 4.83 4.95 5.09 5.06 5.13 5.30 5.28 5.03 4.66 4.11 3.62 3.43 3.34 3.21 3.02 2.93 2.79 2.83 2.43 2.05 1.72 1.33 1.13 1.06 1.12 1.15 1.16 1.21 1.27 1.37 1.37
2.06 2.23 2.36 2.70 3.24 3.72 4.18 4.85 5.37 5.65 5.82 5.92 5.71 5.43 5.28 5.11 4.97 4.85 4.70 4.30 3.84 3.50 3.25 3.16 3.15 2.97 2.94 2.85 2.77 2.48 2.26 2.03 1.84 1.54 1.25 1.07 1.04 1.03 1.03 1.03 1.12 1.30 1.36
2.04 2.05 2.13 2.54 3.13 3.86 4.57 5.12 5.61 5.99 6.15 6.10 5.75 5.39 4.99 4.64 4.21 3.84 3.48 3.17 3.02 2.82 2.61 2.53 2.52 2.48 2.37 2.31 2.31 2.25 2.17 1.97 1.71 1.54 1.36 1.19 1.15 1.07 1.02 1.03 1.09 1.17 1.27
1.71 1.85 2.07 2.40 3.06 3.80 4.41 4.96 5.34 5.70 5.75 5.49 5.06 4.61 4.30 3.93 3.46 2.99 2.73 2.50 2.34 2.16 1.95 1.83 1.81 1.86 1.93 2.01 2.07 2.05 2.01 1.98 1.85 1.76 1.61 1.41 1.33 1.28 1.15 1.10 1.13 1.19 1.30

GEFSSE_prec_meanprecacc_162.txt.gz
Total_Precipitation_Accumulation
0.09 0.05 0.06 0.05 0.08 0.09 0.10 0.13 0.15 0.15 0.14 0.13 0.12 0.12 0.13 0.11 0.09 0.08 0.08 0.10 0.15 0.22 0.25 0.28 0.26 0.24 0.25 0.24 0.19 0.15 0.12 0.12 0.15 0.17 0.22 0.27 0.32 0.33 0.35 0.34 0.41 0.35 0.22
0.07 0.05 0.06 0.04 0.06 0.08 0.10 0.13 0.15 0.15 0.15 0.16 0.16 0.16 0.16 0.11 0.09 0.08 0.08 0.12 0.18 0.23 0.23 0.24 0.23 0.20 0.21 0.18 0.13 0.12 0.11 0.14 0.23 0.31 0.37 0.40 0.45 0.41 0.38 0.34 0.43 0.43 0.26
0.08 0.05 0.05 0.05 0.05 0.07 0.09 0.13 0.14 0.12 0.14 0.15 0.16 0.15 0.12 0.09 0.08 0.08 0.08 0.12 0.18 0.20 0.18 0.14 0.13 0.13 0.14 0.11 0.10 0.10 0.12 0.18 0.32 0.53 0.84 0.72 0.54 0.42 0.39 0.32 0.26 0.21 0.22
0.08 0.06 0.04 0.06 0.06 0.07 0.07 0.11 0.16 0.14 0.13 0.13 0.14 0.13 0.11 0.10 0.10 0.10 0.10 0.13 0.16 0.15 0.12 0.09 0.09 0.09 0.10 0.09 0.09 0.11 0.14 0.24 0.45 0.76 1.36 1.14 0.74 0.50 0.44 0.34 0.24 0.19 0.21
0.08 0.05 0.07 0.07 0.08 0.09 0.08 0.08 0.14 0.16 0.17 0.17 0.17 0.15 0.15 0.14 0.13 0.12 0.13 0.14 0.15 0.14 0.15 0.15 0.12 0.09 0.09 0.09 0.11 0.15 0.24 0.38 0.65 1.07 1.63 1.47 1.16 0.80 0.50 0.38 0.35 0.28 0.25
0.12 0.07 0.08 0.08 0.10 0.13 0.13 0.13 0.14 0.16 0.18 0.20 0.19 0.19 0.18 0.17 0.16 0.13 0.14 0.14 0.15 0.16 0.18 0.20 0.16 0.10 0.08 0.09 0.12 0.19 0.30 0.51 0.74 1.15 1.71 1.60 1.25 0.90 0.55 0.44 0.40 0.33 0.29
0.21 0.17 0.13 0.13 0.12 0.14 0.16 0.20 0.23 0.19 0.19 0.22 0.23 0.21 0.20 0.19 0.18 0.17 0.16 0.15 0.17 0.20 0.22 0.18 0.13 0.08 0.07 0.09 0.14 0.21 0.35 0.63 0.89 1.43 1.75 1.58 1.46 0.95 0.62 0.52 0.46 0.37 0.29
0.31 0.27 0.27 0.21 0.15 0.15 0.19 0.21 0.28 0.30 0.30 0.29 0.27 0.24 0.23 0.20 0.19 0.21 0.21 0.20 0.22 0.26 0.24 0.15 0.08 0.07 0.06 0.07 0.12 0.20 0.37 0.54 0.75 1.35 1.71 1.46 1.21 0.89 0.69 0.59 0.48 0.38 0.32
0.39 0.43 0.41 0.28 0.24 0.25 0.27 0.25 0.28 0.34 0.36 0.36 0.36 0.35 0.31 0.29 0.27 0.26 0.25 0.24 0.26 0.27 0.21 0.14 0.09 0.07 0.07 0.07 0.09 0.15 0.30 0.53 0.78 1.07 1.18 1.32 1.10 0.93 0.74 0.54 0.38 0.30 0.27
0.60 0.60 0.59 0.59 0.51 0.37 0.34 0.35 0.34 0.41 0.44 0.38 0.36 0.38 0.36 0.31 0.28 0.27 0.23 0.25 0.25 0.24 0.20 0.17 0.16 0.12 0.09 0.08 0.09 0.13 0.24 0.36 0.47 0.86 1.30 1.22 1.00 1.06 1.00 0.71 0.46 0.33 0.26
0.79 0.76 0.70 0.76 0.73 0.55 0.47 0.40 0.42 0.47 0.53 0.50 0.42 0.41 0.38 0.44 0.47 0.41 0.33 0.35 0.32 0.30 0.27 0.24 0.19 0.15 0.12 0.09 0.11 0.15 0.17 0.23 0.51 1.00 1.43 1.14 1.06 1.17 1.14 0.94 0.67 0.48 0.35
1.00 0.98 0.93 0.79 0.72 0.66 0.55 0.53 0.59 0.56 0.57 0.55 0.59 0.56 0.59 0.86 0.96 0.75 0.77 0.67 0.59 0.51 0.42 0.36 0.29 0.22 0.15 0.12 0.15 0.18 0.16 0.24 0.60 1.13 1.09 0.93 1.08 1.27 1.36 1.15 0.87 0.66 0.55
1.40 1.19 1.24 1.11 0.92 1.04 1.07 0.90 0.87 0.84 0.85 0.80 0.96 0.98 1.03 1.15 1.11 1.06 1.15 0.96 0.84 0.74 0.68 0.67 0.47 0.36 0.32 0.34 0.33 0.29 0.31 0.38 0.61 0.88 1.00 1.01 1.14 1.37 1.56 1.36 1.06 0.91 0.85
1.85 1.62 1.51 1.50 1.39 1.45 1.69 1.54 1.29 1.16 1.17 1.17 1.25 1.16 1.33 1.46 1.45 1.40 1.45 1.29 1.23 1.20 1.22 1.10 0.91 0.76 0.70 0.61 0.53 0.51 0.51 0.52 0.67 0.90 1.01 1.02 1.13 1.42 1.66 1.61 1.36 1.18 1.09
2.04 1.95 1.73 1.78 1.79 1.87 2.05 1.91 1.72 1.79 1.58 1.46 1.59 1.47 1.52 1.61 1.64 1.73 1.64 1.63 1.52 1.50 1.46 1.29 1.21 1.18 1.09 0.98 0.79 0.75 0.78 0.71 0.78 0.95 1.00 1.03 1.07 1.33 1.69 1.85 1.73 1.50 1.43
1.95 2.04 2.11 2.08 2.10 1.96 2.02 2.00 1.85 1.81 1.88 1.70 1.64 1.61 1.57 1.66 1.86 1.91 1.90 1.90 1.86 1.83 1.91 1.71 1.52 1.59 1.45 1.37 1.22 1.15 1.10 1.09 1.12 1.21 1.37 1.29 1.12 1.21 1.52 1.84 1.94 1.87 1.82
1.94 2.00 2.13 2.16 2.20 2.12 2.07 2.08 2.01 1.92 1.89 1.94 1.97 1.98 1.83 1.76 1.99 2.06 2.23 2.19 2.12 2.10 2.15 2.12 1.97 1.98 1.80 1.68 1.56 1.41 1.37 1.45 1.46 1.41 1.54 1.67 1.44 1.38 1.42 1.57 1.76 1.89 1.96
1.61 1.77 1.90 2.00 2.06 2.29 2.40 2.47 2.33 2.43 2.40 2.31 2.17 2.15 2.04 1.98 2.12 2.34 2.45 2.44 2.41 2.33 2.44 2.55 2.48 2.29 2.17 1.99 1.84 1.60 1.51 1.61 1.66 1.65 1.68 1.81 1.93 1.79 1.69 1.58 1.63 1.74 1.91
1.41 1.71 1.88 2.03 2.21 2.37 2.57 2.75 2.73 2.82 2.76 2.69 2.63 2.53 2.59 2.62 2.53 2.64 2.78 2.87 2.86 2.88 2.87 2.75 2.85 2.64 2.57 2.41 2.10 1.91 1.69 1.63 1.70 1.65 1.72 1.73 1.83 1.87 1.88 1.80 1.68 1.69 1.86
1.41 1.71 1.96 2.16 2.42 2.73 2.82 3.01 2.96 3.10 3.21 3.30 3.42 3.30 3.14 3.20 3.20 3.31 3.29 3.32 3.33 3.37 3.22 3.17 3.16 2.93 2.75 2.70 2.30 2.11 1.94 1.78 1.76 1.72 1.69 1.70 1.65 1.57 1.66 1.75 1.82 1.68 1.80
1.87 1.94 2.05 2.22 2.43 2.64 2.95 3.29 3.47 3.57 3.79 3.93 4.02 4.12 4.08 4.05 4.18 4.24 4.12 4.01 3.86 3.74 3.55 3.42 3.24 3.07 2.83 2.74 2.61 2.28 1.86 1.61 1.59 1.51 1.54 1.65 1.64 1.57 1.59 1.66 1.72 1.66 1.58
2.14 2.16 2.23 2.35 2.62 2.91 3.30 3.77 4.19 4.36 4.49 4.51 4.54 4.74 4.85 4.89 5.06 5.17 5.09 4.88 4.64 4.30 3.85 3.52 3.32 3.16 2.90 2.86 2.81 2.72 2.18 1.79 1.51 1.24 1.30 1.36 1.41 1.49 1.47 1.46 1.54 1.64 1.58
2.15 2.23 2.33 2.65 3.07 3.51 4.00 4.52 4.95 5.20 5.24 5.17 4.90 5.02 5.17 5.14 5.23 5.43 5.41 5.14 4.74 4.18 3.68 3.50 3.40 3.26 3.07 2.97 2.83 2.88 2.48 2.08 1.75 1.35 1.15 1.09 1.16 1.19 1.19 1.24 1.31 1.42 1.42
2.14 2.32 2.44 2.77 3.31 3.79 4.25 4.91 5.43 5.69 5.88 5.99 5.76 5.47 5.33 5.18 5.06 4.96 4.81 4.40 3.93 3.59 3.33 3.24 3.21 3.02 2.98 2.89 2.81 2.53 2.30 2.07 1.88 1.57 1.27 1.10 1.09 1.10 1.10 1.09 1.17 1.34 1.40
2.08 2.11 2.20 2.63 3.22 3.94 4.65 5.20 5.67 6.04 6.20 6.15 5.81 5.45 5.04 4.70 4.28 3.92 3.56 3.26 3.12 2.91 2.70 2.61 2.59 2.53 2.40 2.35 2.36 2.31 2.24 2.02 1.75 1.57 1.40 1.23 1.21 1.13 1.11 1.12 1.18 1.26 1.34
1.74 1.88 2.11 2.48 3.16 3.89 4.49 5.04 5.42 5.76 5.80 5.54 5.11 4.66 4.34 3.97 3.52 3.06 2.81 2.56 2.41 2.23 2.02 1.90 1.88 1.91 1.98 2.04 2.10 2.08 2.04 2.02 1.88 1.79 1.68 1.49 1.37 1.32 1.21 1.16 1.19 1.26 1.39

GEFSSE_prec_meanprecacc_168.txt.gz
Total_Precipitation_Accumulation
0.10 0.05 0.06 0.05 0.09 0.10 0.11 0.14 0.16 0.17 0.15 0.14 0.13 0.13 0.14 0.13 0.10 0.09 0.09 0.12 0.16 0.22 0.26 0.28 0.27 0.25 0.25 0.24 0.20 0.15 0.13 0.13 0.16 0.17 0.23 0.28 0.33 0.35 0.37 0.37 0.43 0.38 0.24
0.07 0.05 0.07 0.05 0.06 0.08 0.10 0.14 0.16 0.15 0.16 0.17 0.17 0.17 0.16 0.12 0.09 0.09 0.09 0.13 0.19 0.24 0.24 0.25 0.23 0.21 0.21 0.18 0.14 0.12 0.12 0.14 0.23 0.32 0.38 0.41 0.46 0.44 0.40 0.36 0.45 0.47 0.28
0.08 0.06 0.05 0.05 0.05 0.07 0.09 0.13 0.14 0.13 0.14 0.16 0.17 0.16 0.13 0.10 0.08 0.09 0.09 0.13 0.19 0.21 0.19 0.15 0.13 0.14 0.14 0.12 0.10 0.11 0.12 0.19 0.33 0.54 0.86 0.76 0.57 0.44 0.42 0.34 0.28 0.23 0.24
0.08 0.06 0.04 0.06 0.06 0.07 0.07 0.11 0.16 0.15 0.14 0.14 0.15 0.14 0.12 0.11 0.11 0.11 0.11 0.14 0.17 0.16 0.13 0.10 0.09 0.09 0.11 0.09 0.09 0.11 0.15 0.24 0.46 0.78 1.38 1.15 0.77 0.54 0.49 0.38 0.26 0.20 0.22
0.08 0.05 0.07 0.08 0.09 0.10 0.09 0.08 0.14 0.17 0.17 0.17 0.17 0.16 0.16 0.15 0.14 0.13 0.14 0.15 0.15 0.15 0.16 0.16 0.13 0.10 0.10 0.10 0.11 0.15 0.24 0.39 0.66 1.08 1.65 1.49 1.20 0.85 0.56 0.43 0.37 0.29 0.27
0.12 0.08 0.09 0.10 0.11 0.14 0.14 0.13 0.15 0.16 0.19 0.21 0.20 0.20 0.19 0.18 0.17 0.15 0.15 0.15 0.16 0.17 0.19 0.22 0.18 0.11 0.09 0.10 0.13 0.20 0.31 0.52 0.75 1.16 1.73 1.62 1.29 0.94 0.58 0.49 0.44 0.36 0.30
0.22 0.19 0.15 0.15 0.14 0.15 0.17 0.21 0.24 0.20 0.20 0.23 0.23 0.21 0.21 0.21 0.19 0.18 0.18 0.17 0.18 0.22 0.23 0.19 0.14 0.09 0.08 0.10 0.15 0.22 0.36 0.64 0.90 1.45 1.77 1.60 1.51 1.01 0.68 0.60 0.53 0.42 0.32
0.32 0.28 0.28 0.23 0.16 0.17 0.20 0.23 0.29 0.31 0.30 0.29 0.27 0.25 0.24 0.22 0.21 0.23 0.23 0.23 0.25 0.29 0.27 0.17 0.10 0.08 0.08 0.09 0.13 0.21 0.38 0.56 0.76 1.37 1.73 1.49 1.26 0.95 0.80 0.71 0.56 0.45 0.37
0.41 0.45 0.43 0.31 0.26 0.27 0.29 0.27 0.29 0.36 0.37 0.37 0.37 0.37 0.33 0.31 0.29 0.28 0.27 0.27 0.30 0.31 0.25 0.17 0.12 0.09 0.09 0.09 0.11 0.17 0.31 0.55 0.79 1.09 1.20 1.36 1.14 1.00 0.86 0.67 0.48 0.37 0.32
0.62 0.63 0.62 0.62 0.55 0.41 0.38 0.38 0.37 0.43 0.46 0.40 0.38 0.40 0.39 0.34 0.31 0.30 0.26 0.29 0.29 0.28 0.25 0.22 0.20 0.16 0.12 0.10 0.11 0.16 0.26 0.38 0.48 0.87 1.33 1.25 1.04 1.13 1.12 0.84 0.59 0.44 0.34
0.82 0.80 0.74 0.80 0.77 0.60 0.51 0.43 0.46 0.52 0.57 0.53 0.45 0.44 0.41 0.47 0.51 0.46 0.37 0.39 0.37 0.35 0.33 0.31 0.26 0.22 0.18 0.14 0.15 0.19 0.21 0.26 0.52 1.02 1.47 1.17 1.10 1.24 1.26 1.08 0.79 0.61 0.47
1.02 1.01 0.96 0.82 0.74 0.69 0.57 0.57 0.65 0.62 0.63 0.60 0.64 0.61 0.63 0.91 1.01 0.80 0.82 0.71 0.65 0.57 0.49 0.43 0.36 0.30 0.23 0.19 0.22 0.24 0.21 0.28 0.62 1.15 1.12 0.97 1.13 1.35 1.48 1.29 1.01 0.79 0.67
1.41 1.20 1.25 1.13 0.95 1.08 1.12 0.96 0.94 0.91 0.91 0.86 1.02 1.04 1.10 1.23 1.20 1.15 1.24 1.05 0.94 0.84 0.79 0.79 0.56 0.44 0.41 0.44 0.42 0.38 0.38 0.44 0.65 0.91 1.02 1.04 1.20 1.46 1.67 1.50 1.21 1.06 0.99
1.87 1.64 1.54 1.54 1.43 1.50 1.74 1.59 1.35 1.22 1.23 1.23 1.31 1.24 1.44 1.58 1.54 1.49 1.55 1.42 1.38 1.34 1.36 1.22 1.03 0.86 0.79 0.69 0.62 0.60 0.59 0.60 0.71 0.95 1.06 1.06 1.20 1.51 1.77 1.73 1.50 1.31 1.24
2.07 1.99 1.76 1.82 1.85 1.94 2.12 1.96 1.77 1.83 1.63 1.54 1.66 1.56 1.62 1.71 1.73 1.81 1.74 1.74 1.64 1.61 1.59 1.43 1.34 1.30 1.21 1.10 0.90 0.84 0.85 0.77 0.84 1.02 1.05 1.07 1.13 1.41 1.79 1.97 1.86 1.64 1.59
2.01 2.10 2.17 2.14 2.15 2.02 2.07 2.05 1.89 1.85 1.93 1.75 1.70 1.69 1.65 1.72 1.93 1.99 1.98 1.98 1.95 1.94 2.02 1.81 1.62 1.71 1.56 1.49 1.32 1.24 1.17 1.16 1.18 1.28 1.42 1.34 1.16 1.25 1.58 1.93 2.06 2.03 1.99
1.99 2.05 2.18 2.19 2.23 2.16 2.11 2.13 2.07 1.97 1.94 2.00 2.03 2.05 1.89 1.82 2.05 2.13 2.30 2.26 2.20 2.18 2.24 2.20 2.06 2.07 1.88 1.75 1.63 1.51 1.46 1.54 1.53 1.47 1.60 1.72 1.48 1.41 1.45 1.62 1.83 1.98 2.07
1.65 1.82 1.94 2.03 2.11 2.33 2.44 2.52 2.38 2.48 2.47 2.40 2.25 2.23 2.10 2.05 2.20 2.41 2.53 2.52 2.50 2.42 2.52 2.63 2.57 2.37 2.24 2.06 1.90 1.66 1.58 1.69 1.72 1.71 1.74 1.87 1.98 1.83 1.73 1.60 1.66 1.80 1.99
1.44 1.75 1.92 2.07 2.25 2.41 2.62 2.82 2.80 2.92 2.88 2.83 2.75 2.62 2.66 2.71 2.63 2.75 2.89 2.97 2.96 2.99 2.97 2.83 2.93 2.74 2.66 2.49 2.16 1.95 1.73 1.69 1.75 1.70 1.77 1.77 1.88 1.93 1.93 1.84 1.71 1.73 1.92
1.44 1.75 2.01 2.20 2.47 2.78 2.88 3.08 3.03 3.20 3.33 3.42 3.53 3.38 3.22 3.29 3.29 3.40 3.37 3.39 3.40 3.46 3.32 3.28 3.27 3.03 2.83 2.79 2.39 2.19 2.00 1.84 1.81 1.77 1.74 1.77 1.72 1.63 1.70 1.79 1.88 1.73 1.83
1.92 2.00 2.11 2.27 2.49 2.70 3.01 3.36 3.55 3.66 3.88 4.02 4.10 4.21 4.16 4.13 4.26 4.31 4.18 4.07 3.93 3.82 3.64 3.52 3.33 3.15 2.91 2.83 2.70 2.36 1.93 1.66 1.63 1.55 1.58 1.69 1.69 1.61 1.63 1.70 1.77 1.72 1.63
2.20 2.21 2.29 2.40 2.67 2.97 3.37 3.85 4.27 4.44 4.57 4.59 4.62 4.82 4.93 4.97 5.14 5.24 5.15 4.93 4.68 4.35 3.91 3.59 3.40 3.24 2.97 2.94 2.90 2.81 2.26 1.86 1.55 1.27 1.32 1.38 1.43 1.53 1.51 1.50 1.58 1.68 1.63
2.19 2.27 2.39 2.70 3.11 3.56 4.05 4.58 5.02 5.28 5.30 5.23 4.97 5.09 5.24 5.21 5.31 5.49 5.47 5.20 4.80 4.24 3.74 3.56 3.48 3.35 3.16 3.06 2.91 2.97 2.56 2.16 1.82 1.40 1.19 1.12 1.19 1.23 1.23 1.28 1.35 1.46 1.46
2.16 2.34 2.48 2.81 3.34 3.83 4.28 4.95 5.49 5.76 5.95 6.06 5.84 5.54 5.39 5.23 5.12 5.01 4.85 4.44 3.97 3.63 3.37 3.28 3.27 3.09 3.08 3.00 2.90 2.61 2.38 2.13 1.94 1.62 1.31 1.13 1.13 1.13 1.13 1.13 1.20 1.38 1.44
2.10 2.13 2.22 2.66 3.24 3.97 4.68 5.23 5.72 6.11 6.27 6.22 5.86 5.50 5.09 4.75 4.32 3.96 3.59 3.29 3.15 2.95 2.75 2.66 2.64 2.59 2.47 2.42 2.44 2.38 2.31 2.10 1.82 1.63 1.45 1.28 1.26 1.16 1.13 1.17 1.23 1.31 1.40
1.76 1.90 2.12 2.49 3.18 3.92 4.52 5.07 5.48 5.83 5.88 5.60 5.16 4.70 4.39 4.01 3.56 3.12 2.86 2.60 2.44 2.26 2.06 1.95 1.95 1.99 2.05 2.11 2.16 2.14 2.11 2.09 1.97 1.88 1.75 1.56 1.43 1.38 1.28 1.22 1.26 1.31 1.44

GEFSSE_prec_meanprecacc_174.txt.gz
Total_Precipitation_Accumulation
0.10 0.05 0.06 0.05 0.09 0.10 0.11 0.15 0.17 0.18 0.16 0.15 0.14 0.13 0.14 0.13 0.11 0.10 0.09 0.12 0.16 0.23 0.26 0.28 0.27 0.25 0.25 0.24 0.20 0.16 0.13 0.14 0.17 0.18 0.23 0.28 0.33 0.35 0.38 0.37 0.45 0.44 0.29
0.07 0.05 0.07 0.05 0.06 0.08 0.10 0.14 0.16 0.16 0.17 0.18 0.18 0.18 0.17 0.13 0.10 0.10 0.10 0.14 0.20 0.25 0.25 0.25 0.23 0.21 0.21 0.18 0.14 0.12 0.12 0.15 0.24 0.32 0.38 0.42 0.47 0.44 0.41 0.37 0.49 0.57 0.33
0.08 0.06 0.05 0.05 0.05 0.07 0.10 0.13 0.15 0.13 0.15 0.17 0.18 0.18 0.14 0.11 0.09 0.09 0.09 0.14 0.19 0.21 0.19 0.16 0.14 0.14 0.15 0.12 0.11 0.11 0.12 0.19 0.34 0.54 0.87 0.80 0.63 0.48 0.44 0.37 0.31 0.28 0.28
0.08 0.06 0.04 0.06 0.06 0.07 0.07 0.11 0.16 0.16 0.15 0.15 0.16 0.15 0.14 0.13 0.12 0.12 0.12 0.15 0.17 0.17 0.13 0.11 0.10 0.10 0.12 0.10 0.10 0.11 0.15 0.25 0.47 0.79 1.42 1.24 0.89 0.71 0.56 0.41 0.28 0.22 0.25
0.08 0.06 0.07 0.08 0.09 0.10 0.09 0.08 0.14 0.17 0.17 0.18 0.18 0.17 0.17 0.17 0.16 0.15 0.15 0.17 0.17 0.17 0.18 0.17 0.14 0.11 0.11 0.11 0.12 0.16 0.25 0.39 0.66 1.09 1.68 1.57 1.32 0.99 0.62 0.44 0.38 0.30 0.28
0.12 0.09 0.10 0.10 0.11 0.14 0.14 0.14 0.15 0.17 0.19 0.21 0.21 0.20 0.20 0.19 0.19 0.16 0.17 0.17 0.18 0.19 0.22 0.24 0.20 0.13 0.11 0.11 0.14 0.20 0.32 0.53 0.76 1.19 1.75 1.67 1.39 1.02 0.62 0.51 0.45 0.38 0.32
0.23 0.20 0.16 0.15 0.14 0.15 0.17 0.22 0.25 0.20 0.21 0.24 0.24 0.22 0.22 0.22 0.21 0.20 0.19 0.18 0.21 0.24 0.25 0.21 0.16 0.11 0.10 0.11 0.16 0.23 0.37 0.65 0.92 1.48 1.79 1.64 1.61 1.09 0.72 0.63 0.56 0.45 0.35
0.33 0.29 0.29 0.23 0.16 0.17 0.21 0.23 0.29 0.32 0.32 0.31 0.29 0.26 0.26 0.24 0.22 0.24 0.25 0.25 0.28 0.32 0.29 0.19 0.12 0.10 0.09 0.10 0.14 0.22 0.39 0.57 0.78 1.38 1.76 1.55 1.34 1.03 0.84 0.74 0.60 0.49 0.41
0.41 0.46 0.44 0.31 0.27 0.28 0.30 0.28 0.32 0.39 0.40 0.39 0.39 0.38 0.34 0.33 0.31 0.31 0.30 0.30 0.32 0.33 0.27 0.19 0.14 0.11 0.10 0.11 0.13 0.18 0.32 0.56 0.81 1.11 1.26 1.46 1.26 1.11 0.92 0.71 0.53 0.43 0.39
0.62 0.64 0.65 0.66 0.59 0.45 0.42 0.44 0.43 0.51 0.50 0.43 0.40 0.42 0.40 0.36 0.34 0.33 0.29 0.32 0.32 0.31 0.28 0.25 0.23 0.18 0.15 0.13 0.14 0.18 0.28 0.40 0.50 0.91 1.45 1.40 1.20 1.25 1.20 0.89 0.64 0.50 0.42
0.83 0.83 0.77 0.84 0.83 0.68 0.59 0.53 0.61 0.64 0.62 0.56 0.47 0.46 0.44 0.51 0.56 0.51 0.42 0.44 0.42 0.41 0.39 0.36 0.33 0.27 0.22 0.17 0.20 0.24 0.25 0.30 0.56 1.08 1.58 1.32 1.25 1.34 1.34 1.15 0.86 0.68 0.54
1.05 1.03 1.00 0.87 0.80 0.78 0.68 0.68 0.76 0.72 0.71 0.65 0.70 0.67 0.70 0.98 1.09 0.88 0.91 0.80 0.72 0.64 0.57 0.50 0.43 0.37 0.30 0.23 0.32 0.34 0.27 0.37 0.71 1.26 1.30 1.15 1.25 1.44 1.56 1.36 1.08 0.88 0.76
1.44 1.23 1.28 1.16 1.01 1.15 1.20 1.05 1.05 1.04 1.04 0.97 1.11 1.15 1.21 1.35 1.33 1.26 1.36 1.16 1.05 0.94 0.89 0.90 0.65 0.53 0.49 0.50 0.51 0.49 0.45 0.49 0.70 0.98 1.13 1.18 1.33 1.56 1.75 1.56 1.27 1.14 1.08
1.89 1.68 1.57 1.58 1.49 1.56 1.82 1.68 1.45 1.32 1.35 1.37 1.47 1.40 1.62 1.71 1.68 1.63 1.68 1.57 1.53 1.48 1.50 1.38 1.16 0.99 0.91 0.78 0.68 0.69 0.68 0.67 0.79 1.01 1.14 1.17 1.30 1.60 1.85 1.79 1.57 1.38 1.31
2.12 2.03 1.81 1.87 1.90 2.01 2.20 2.05 1.85 1.91 1.72 1.63 1.78 1.69 1.78 1.85 1.85 1.95 1.87 1.86 1.76 1.74 1.71 1.55 1.46 1.42 1.33 1.20 0.97 0.92 0.95 0.87 0.92 1.07 1.14 1.18 1.21 1.48 1.85 2.02 1.92 1.70 1.65
2.06 2.15 2.21 2.18 2.20 2.07 2.13 2.13 1.98 1.92 2.00 1.84 1.80 1.82 1.79 1.86 2.07 2.14 2.13 2.11 2.07 2.03 2.11 1.90 1.70 1.80 1.66 1.58 1.40 1.31 1.25 1.23 1.23 1.33 1.50 1.45 1.25 1.31 1.62 1.98 2.11 2.08 2.06
2.05 2.09 2.22 2.23 2.28 2.21 2.18 2.20 2.14 2.05 2.03 2.10 2.14 2.17 1.99 1.93 2.18 2.26 2.44 2.39 2.32 2.28 2.31 2.27 2.13 2.16 1.96 1.84 1.72 1.60 1.55 1.62 1.61 1.54 1.67 1.82 1.58 1.48 1.49 1.65 1.86 2.03 2.12
1.71 1.86 1.99 2.08 2.16 2.38 2.49 2.58 2.45 2.55 2.54 2.48 2.34 2.34 2.21 2.16 2.30 2.54 2.66 2.65 2.62 2.52 2.62 2.73 2.66 2.47 2.33 2.15 1.99 1.74 1.66 1.77 1.80 1.79 1.80 1.94 2.07 1.93 1.80 1.65 1.70 1.84 2.03
1.48 1.79 1.97 2.11 2.29 2.44 2.66 2.87 2.86 2.98 2.94 2.90 2.82 2.71 2.75 2.80 2.73 2.86 3.00 3.07 3.07 3.10 3.09 2.94 3.07 2.86 2.77 2.58 2.24 2.03 1.80 1.75 1.84 1.78 1.83 1.82 1.93 1.99 2.01 1.89 1.76 1.77 1.96
1.48 1.80 2.06 2.24 2.50 2.82 2.93 3.13 3.09 3.27 3.40 3.49 3.59 3.46 3.30 3.37 3.38 3.49 3.47 3.51 3.53 3.59 3.44 3.40 3.41 3.15 2.94 2.89 2.46 2.25 2.08 1.90 1.89 1.87 1.82 1.84 1.79 1.70 1.77 1.87 1.97 1.79 1.88
1.96 2.04 2.16 2.32 2.54 2.76 3.08 3.44 3.62 3.73 3.94 4.08 4.16 4.27 4.23 4.20 4.34 4.40 4.29 4.19 4.04 3.93 3.74 3.63 3.46 3.27 3.03 2.95 2.81 2.45 2.01 1.73 1.70 1.62 1.65 1.76 1.76 1.69 1.70 1.79 1.87 1.82 1.72
2.26 2.28 2.35 2.47 2.74 3.03 3.43 3.92 4.34 4.51 4.63 4.67 4.70 4.90 5.00 5.05 5.23 5.32 5.25 5.03 4.78 4.46 4.02 3.69 3.51 3.34 3.05 3.05 3.01 2.90 2.34 1.93 1.61 1.31 1.39 1.44 1.49 1.60 1.58 1.58 1.67 1.78 1.72
2.24 2.33 2.47 2.79 3.19 3.63 4.11 4.64 5.08 5.33 5.37 5.32 5.05 5.16 5.32 5.29 5.38 5.58 5.54 5.28 4.89 4.32 3.83 3.66 3.58 3.45 3.26 3.17 3.01 3.06 2.65 2.24 1.89 1.47 1.25 1.18 1.24 1.28 1.29 1.35 1.43 1.55 1.54
2.20 2.39 2.55 2.90 3.44 3.90 4.34 5.01 5.54 5.82 6.03 6.13 5.92 5.62 5.46 5.28 5.17 5.08 4.94 4.53 4.10 3.77 3.49 3.38 3.37 3.20 3.18 3.09 3.01 2.71 2.48 2.23 2.02 1.69 1.36 1.17 1.17 1.16 1.16 1.16 1.24 1.44 1.52
2.13 2.17 2.28 2.76 3.36 4.05 4.73 5.29 5.79 6.17 6.34 6.29 5.93 5.56 5.13 4.79 4.36 4.01 3.67 3.40 3.27 3.09 2.88 2.78 2.75 2.69 2.56 2.51 2.53 2.47 2.41 2.19 1.90 1.70 1.50 1.33 1.30 1.20 1.17 1.23 1.29 1.38 1.47
1.80 1.94 2.16 2.55 3.24 3.98 4.58 5.13 5.55 5.92 5.97 5.68 5.23 4.75 4.44 4.07 3.62 3.17 2.91 2.67 2.52 2.36 2.15 2.04 2.04 2.08 2.15 2.20 2.24 2.21 2.18 2.16 2.04 1.95 1.81 1.62 1.48 1.42 1.32 1.27 1.34 1.40 1.54

GEFSSE_prec_meanprecacc_180.txt.gz
Total_Precipitation_Accumulation
0.10 0.05 0.06 0.05 0.09 0.10 0.11 0.15 0.17 0.18 0.16 0.15 0.14 0.13 0.14 0.13 0.11 0.10 0.09 0.12 0.17 0.23 0.26 0.28 0.27 0.25 0.25 0.25 0.20 0.16 0.15 0.15 0.19 0.20 0.25 0.30 0.35 0.37 0.40 0.40 0.48 0.47 0.31
0.08 0.05 0.07 0.05 0.06 0.08 0.10 0.14 0.16 0.16 0.17 0.18 0.19 0.19 0.17 0.13 0.10 0.10 0.10 0.14 0.20 0.25 0.25 0.25 0.24 0.21 0.22 0.19 0.14 0.13 0.13 0.16 0.26 0.34 0.39 0.43 0.48 0.46 0.43 0.39 0.51 0.59 0.36
0.08 0.06 0.05 0.05 0.05 0.07 0.10 0.13 0.15 0.13 0.15 0.17 0.18 0.18 0.15 0.11 0.10 0.10 0.10 0.14 0.19 0.21 0.19 0.16 0.14 0.14 0.15 0.12 0.11 0.11 0.12 0.19 0.35 0.55 0.88 0.83 0.66 0.51 0.48 0.42 0.35 0.30 0.31
0.09 0.06 0.04 0.06 0.06 0.07 0.07 0.11 0.17 0.16 0.15 0.15 0.16 0.16 0.14 0.13 0.13 0.13 0.13 0.15 0.18 0.18 0.14 0.11 0.11 0.11 0.12 0.11 0.10 0.11 0.15 0.25 0.48 0.81 1.44 1.28 0.96 0.78 0.65 0.50 0.32 0.24 0.27
0.08 0.06 0.07 0.08 0.09 0.10 0.09 0.08 0.14 0.17 0.18 0.18 0.18 0.17 0.17 0.17 0.16 0.15 0.16 0.18 0.18 0.18 0.19 0.18 0.15 0.12 0.11 0.11 0.12 0.16 0.25 0.40 0.67 1.11 1.72 1.64 1.44 1.14 0.72 0.51 0.42 0.33 0.31
0.13 0.09 0.10 0.10 0.11 0.14 0.14 0.14 0.15 0.17 0.19 0.21 0.21 0.21 0.20 0.20 0.19 0.17 0.17 0.18 0.19 0.20 0.22 0.25 0.20 0.13 0.11 0.12 0.14 0.21 0.32 0.53 0.77 1.22 1.80 1.76 1.55 1.25 0.75 0.59 0.50 0.41 0.35
0.23 0.21 0.16 0.15 0.14 0.15 0.17 0.22 0.25 0.20 0.21 0.24 0.24 0.22 0.22 0.22 0.21 0.20 0.20 0.19 0.21 0.24 0.26 0.22 0.17 0.12 0.11 0.12 0.16 0.23 0.37 0.66 0.93 1.50 1.83 1.73 1.79 1.33 0.86 0.72 0.62 0.50 0.38
0.35 0.30 0.29 0.23 0.16 0.17 0.21 0.24 0.30 0.32 0.32 0.31 0.29 0.27 0.27 0.25 0.24 0.25 0.26 0.26 0.29 0.33 0.30 0.20 0.13 0.11 0.10 0.11 0.15 0.23 0.39 0.58 0.79 1.40 1.80 1.64 1.47 1.21 1.01 0.86 0.68 0.55 0.45
0.45 0.47 0.45 0.32 0.28 0.29 0.31 0.31 0.35 0.40 0.40 0.40 0.40 0.39 0.35 0.34 0.33 0.32 0.32 0.32 0.35 0.36 0.29 0.21 0.16 0.13 0.12 0.12 0.13 0.19 0.32 0.57 0.82 1.13 1.30 1.56 1.41 1.36 1.14 0.83 0.62 0.50 0.45
0.67 0.67 0.67 0.68 0.61 0.48 0.45 0.50 0.49 0.53 0.51 0.44 0.41 0.43 0.42 0.38 0.35 0.35 0.32 0.34 0.35 0.35 0.31 0.28 0.27 0.22 0.17 0.14 0.15 0.19 0.29 0.40 0.50 0.93 1.49 1.49 1.35 1.43 1.35 1.00 0.73 0.57 0.47
0.89 0.87 0.80 0.87 0.85 0.70 0.61 0.56 0.64 0.67 0.64 0.58 0.49 0.48 0.46 0.53 0.58 0.53 0.45 0.49 0.48 0.47 0.44 0.42 0.38 0.32 0.27 0.21 0.23 0.27 0.27 0.32 0.57 1.10 1.63 1.39 1.37 1.51 1.51 1.27 0.96 0.75 0.60
1.09 1.07 1.03 0.91 0.84 0.81 0.73 0.75 0.83 0.79 0.76 0.69 0.74 0.71 0.74 1.01 1.12 0.92 0.96 0.88 0.81 0.74 0.65 0.57 0.50 0.44 0.35 0.28 0.35 0.38 0.31 0.42 0.74 1.29 1.34 1.23 1.35 1.58 1.75 1.53 1.20 0.96 0.83
1.48 1.28 1.34 1.22 1.05 1.23 1.32 1.16 1.13 1.11 1.11 1.03 1.16 1.19 1.26 1.40 1.39 1.33 1.45 1.28 1.18 1.08 1.00 0.99 0.74 0.59 0.54 0.55 0.54 0.52 0.51 0.56 0.74 1.02 1.18 1.24 1.42 1.70 1.91 1.71 1.41 1.24 1.17
1.96 1.75 1.63 1.64 1.54 1.63 1.91 1.74 1.52 1.39 1.41 1.43 1.54 1.50 1.74 1.83 1.78 1.72 1.78 1.68 1.66 1.61 1.61 1.46 1.24 1.05 0.97 0.83 0.72 0.74 0.75 0.74 0.87 1.09 1.24 1.28 1.42 1.73 2.01 1.94 1.70 1.49 1.40
2.19 2.10 1.86 1.91 1.94 2.05 2.25 2.11 1.91 1.96 1.76 1.70 1.87 1.84 1.96 1.99 1.96 2.04 1.96 1.95 1.85 1.82 1.78 1.62 1.52 1.48 1.39 1.24 1.02 0.98 1.01 0.95 1.04 1.22 1.30 1.34 1.36 1.62 1.99 2.20 2.09 1.82 1.75
2.13 2.23 2.29 2.23 2.23 2.12 2.20 2.19 2.02 1.95 2.05 1.89 1.86 1.89 1.87 1.95 2.17 2.23 2.22 2.20 2.15 2.10 2.17 1.97 1.76 1.85 1.71 1.63 1.43 1.34 1.28 1.28 1.29 1.42 1.64 1.64 1.43 1.43 1.73 2.10 2.24 2.19 2.15
2.10 2.15 2.29 2.29 2.34 2.26 2.22 2.24 2.18 2.08 2.07 2.13 2.17 2.21 2.04 1.99 2.25 2.34 2.52 2.48 2.42 2.35 2.39 2.34 2.18 2.21 2.00 1.88 1.75 1.62 1.57 1.65 1.67 1.62 1.76 1.93 1.74 1.63 1.60 1.75 1.97 2.13 2.22
1.77 1.92 2.05 2.15 2.21 2.44 2.54 2.63 2.50 2.60 2.59 2.51 2.38 2.38 2.25 2.21 2.37 2.59 2.72 2.72 2.73 2.63 2.70 2.79 2.72 2.53 2.39 2.21 2.03 1.77 1.68 1.80 1.84 1.85 1.88 2.01 2.16 2.02 1.89 1.74 1.79 1.92 2.12
1.55 1.85 2.03 2.17 2.37 2.54 2.76 2.97 2.96 3.09 3.02 2.95 2.87 2.76 2.82 2.88 2.80 2.92 3.06 3.12 3.12 3.16 3.15 3.00 3.15 2.96 2.86 2.68 2.31 2.08 1.83 1.79 1.86 1.81 1.88 1.88 2.01 2.06 2.08 1.97 1.82 1.85 2.04
1.58 1.87 2.13 2.33 2.66 3.01 3.12 3.29 3.22 3.39 3.49 3.56 3.66 3.53 3.39 3.47 3.46 3.56 3.53 3.56 3.58 3.64 3.49 3.47 3.49 3.24 3.02 2.97 2.53 2.31 2.12 1.93 1.92 1.90 1.88 1.91 1.84 1.76 1.84 1.95 2.03 1.84 1.95
2.08 2.15 2.29 2.52 2.78 2.96 3.27 3.61 3.77 3.85 4.04 4.16 4.24 4.34 4.31 4.28 4.40 4.46 4.34 4.23 4.08 3.96 3.80 3.70 3.53 3.33 3.10 3.02 2.87 2.50 2.05 1.76 1.72 1.64 1.68 1.80 1.80 1.73 1.78 1.86 1.92 1.86 1.76
2.40 2.41 2.56 2.79 3.00 3.19 3.59 4.09 4.50 4.64 4.74 4.77 4.79 4.98 5.08 5.12 5.30 5.37 5.30 5.07 4.82 4.50 4.06 3.74 3.55 3.39 3.10 3.11 3.06 2.95 2.38 1.96 1.63 1.33 1.41 1.47 1.53 1.64 1.61 1.61 1.71 1.80 1.74
2.39 2.49 2.68 2.98 3.33 3.76 4.26 4.77 5.19 5.44 5.49 5.42 5.14 5.24 5.40 5.37 5.44 5.63 5.59 5.32 4.94 4.38 3.88 3.71 3.63 3.50 3.31 3.23 3.08 3.12 2.68 2.26 1.91 1.49 1.27 1.20 1.26 1.30 1.31 1.37 1.45 1.58 1.56
2.33 2.56 2.74 3.06 3.62 4.08 4.47 5.12 5.65 5.94 6.14 6.23 5.99 5.68 5.52 5.34 5.22 5.14 4.99 4.58 4.15 3.83 3.57 3.47 3.46 3.28 3.25 3.15 3.07 2.77 2.53 2.27 2.05 1.71 1.38 1.19 1.19 1.19 1.18 1.18 1.26 1.46 1.54
2.25 2.35 2.50 2.96 3.56 4.26 4.91 5.44 5.92 6.30 6.47 6.41 6.02 5.64 5.20 4.84 4.42 4.08 3.74 3.48 3.36 3.18 2.98 2.88 2.85 2.79 2.65 2.59 2.59 2.54 2.47 2.24 1.94 1.73 1.52 1.34 1.32 1.21 1.20 1.25 1.32 1.40 1.51
1.91 2.12 2.33 2.69 3.39 4.13 4.77 5.32 5.72 6.05 6.08 5.77 5.30 4.82 4.51 4.14 3.68 3.25 3.01 2.76 2.61 2.45 2.25 2.15 2.14 2.20 2.26 2.29 2.32 2.28 2.24 2.20 2.07 1.99 1.84 1.64 1.50 1.45 1.35 1.30 1.37 1.45 1.60

GEFSSE_prec_meanprecacc_186.txt.gz
Total_Precipitation_Accumulation
0.11 0.06 0.07 0.06 0.09 0.10 0.11 0.15 0.17 0.18 0.16 0.15 0.14 0.13 0.15 0.14 0.11 0.11 0.10 0.13 0.17 0.23 0.26 0.28 0.27 0.25 0.25 0.25 0.21 0.17 0.16 0.17 0.21 0.22 0.27 0.32 0.38 0.40 0.42 0.42 0.50 0.48 0.34
0.08 0.06 0.07 0.05 0.06 0.08 0.10 0.14 0.16 0.16 0.17 0.18 0.19 0.19 0.18 0.13 0.11 0.11 0.10 0.14 0.21 0.25 0.25 0.26 0.24 0.21 0.22 0.19 0.15 0.14 0.14 0.18 0.28 0.35 0.41 0.45 0.50 0.49 0.47 0.44 0.54 0.61 0.39
0.09 0.06 0.05 0.05 0.05 0.07 0.10 0.13 0.15 0.13 0.15 0.17 0.18 0.18 0.15 0.11 0.10 0.10 0.10 0.15 0.20 0.22 0.20 0.17 0.15 0.15 0.15 0.13 0.11 0.12 0.13 0.21 0.37 0.56 0.90 0.83 0.67 0.54 0.51 0.46 0.39 0.35 0.35
0.09 0.06 0.04 0.06 0.06 0.07 0.08 0.11 0.17 0.16 0.15 0.15 0.17 0.16 0.14 0.13 0.13 0.13 0.13 0.16 0.19 0.19 0.16 0.13 0.12 0.12 0.13 0.11 0.10 0.12 0.16 0.26 0.49 0.82 1.46 1.29 0.97 0.81 0.69 0.56 0.39 0.30 0.31
0.08 0.06 0.08 0.08 0.09 0.10 0.09 0.09 0.14 0.17 0.18 0.18 0.19 0.18 0.18 0.18 0.18 0.16 0.17 0.19 0.19 0.19 0.21 0.20 0.18 0.14 0.13 0.13 0.13 0.16 0.25 0.40 0.68 1.13 1.74 1.66 1.46 1.17 0.77 0.57 0.47 0.38 0.36
0.14 0.10 0.10 0.10 0.12 0.14 0.14 0.14 0.15 0.17 0.20 0.22 0.21 0.21 0.21 0.21 0.21 0.19 0.19 0.19 0.20 0.22 0.24 0.27 0.23 0.16 0.13 0.13 0.16 0.22 0.33 0.54 0.78 1.23 1.82 1.78 1.58 1.29 0.81 0.65 0.54 0.45 0.40
0.24 0.22 0.16 0.15 0.14 0.15 0.18 0.22 0.25 0.21 0.22 0.25 0.25 0.24 0.23 0.24 0.23 0.23 0.23 0.22 0.24 0.27 0.28 0.24 0.19 0.14 0.13 0.14 0.18 0.25 0.39 0.67 0.94 1.51 1.85 1.75 1.81 1.37 0.94 0.81 0.70 0.55 0.43
0.37 0.32 0.31 0.24 0.17 0.18 0.22 0.25 0.31 0.34 0.33 0.33 0.31 0.29 0.29 0.27 0.26 0.28 0.29 0.30 0.33 0.36 0.34 0.23 0.17 0.15 0.14 0.14 0.18 0.25 0.41 0.60 0.81 1.42 1.81 1.66 1.51 1.26 1.09 0.97 0.79 0.62 0.50
0.51 0.53 0.50 0.36 0.30 0.30 0.32 0.33 0.37 0.42 0.42 0.42 0.42 0.41 0.37 0.37 0.35 0.35 0.35 0.36 0.39 0.39 0.34 0.26 0.22 0.19 0.18 0.17 0.18 0.22 0.35 0.59 0.84 1.14 1.31 1.59 1.46 1.42 1.23 0.96 0.74 0.60 0.52
0.71 0.73 0.72 0.72 0.65 0.51 0.48 0.53 0.51 0.55 0.53 0.45 0.43 0.45 0.44 0.41 0.38 0.39 0.36 0.40 0.41 0.42 0.38 0.35 0.35 0.30 0.26 0.22 0.22 0.25 0.35 0.45 0.52 0.94 1.50 1.51 1.39 1.50 1.46 1.14 0.86 0.70 0.58
0.92 0.91 0.83 0.90 0.90 0.75 0.66 0.60 0.67 0.70 0.66 0.59 0.50 0.49 0.47 0.55 0.61 0.57 0.49 0.56 0.57 0.57 0.55 0.53 0.50 0.44 0.38 0.31 0.31 0.36 0.35 0.37 0.61 1.12 1.64 1.41 1.41 1.57 1.62 1.40 1.08 0.88 0.73
1.12 1.10 1.06 0.95 0.88 0.85 0.77 0.82 0.89 0.82 0.78 0.71 0.76 0.73 0.76 1.03 1.16 0.97 1.03 1.00 0.94 0.86 0.78 0.72 0.67 0.60 0.50 0.38 0.44 0.47 0.38 0.48 0.80 1.32 1.35 1.26 1.41 1.67 1.86 1.64 1.31 1.09 0.97
1.51 1.31 1.38 1.26 1.09 1.26 1.38 1.23 1.17 1.14 1.14 1.06 1.19 1.22 1.29 1.44 1.44 1.40 1.52 1.36 1.28 1.19 1.10 1.10 0.87 0.71 0.66 0.65 0.62 0.59 0.57 0.62 0.79 1.05 1.20 1.27 1.48 1.78 2.00 1.82 1.55 1.39 1.34
1.98 1.78 1.67 1.68 1.58 1.67 1.94 1.78 1.56 1.43 1.44 1.46 1.58 1.53 1.78 1.86 1.81 1.75 1.82 1.72 1.71 1.66 1.68 1.53 1.32 1.14 1.05 0.90 0.80 0.81 0.81 0.79 0.91 1.12 1.28 1.32 1.46 1.80 2.10 2.05 1.84 1.63 1.54
2.22 2.14 1.90 1.97 2.00 2.10 2.30 2.16 1.96 2.01 1.80 1.73 1.91 1.88 1.99 2.03 2.00 2.08 1.99 1.97 1.87 1.84 1.82 1.67 1.58 1.54 1.45 1.31 1.09 1.05 1.08 1.01 1.08 1.27 1.33 1.37 1.41 1.68 2.08 2.31 2.22 1.97 1.91
2.19 2.30 2.33 2.29 2.32 2.21 2.28 2.26 2.08 2.01 2.10 1.94 1.91 1.93 1.91 2.00 2.20 2.27 2.25 2.22 2.17 2.13 2.20 2.02 1.80 1.89 1.75 1.67 1.48 1.40 1.34 1.35 1.36 1.48 1.69 1.68 1.48 1.49 1.80 2.19 2.35 2.33 2.33
2.17 2.21 2.35 2.37 2.44 2.38 2.33 2.34 2.26 2.15 2.13 2.19 2.22 2.26 2.09 2.05 2.31 2.39 2.57 2.52 2.46 2.40 2.42 2.37 2.22 2.24 2.02 1.90 1.78 1.66 1.61 1.70 1.72 1.67 1.83 2.00 1.79 1.68 1.66 1.81 2.05 2.24 2.38
1.82 1.97 2.12 2.25 2.35 2.57 2.67 2.76 2.63 2.74 2.73 2.63 2.47 2.46 2.33 2.30 2.48 2.71 2.83 2.81 2.79 2.68 2.74 2.82 2.75 2.56 2.41 2.23 2.06 1.82 1.73 1.85 1.88 1.88 1.91 2.06 2.21 2.07 1.93 1.80 1.85 2.00 2.24
1.61 1.94 2.14 2.32 2.54 2.71 2.94 3.15 3.14 3.27 3.17 3.07 2.97 2.86 2.91 2.98 2.93 3.06 3.18 3.21 3.18 3.21 3.19 3.03 3.18 3.00 2.90 2.72 2.33 2.10 1.86 1.81 1.89 1.84 1.92 1.91 2.05 2.10 2.11 2.01 1.88 1.90 2.11
1.68 2.01 2.29 2.51 2.86 3.22 3.34 3.51 3.45 3.58 3.65 3.68 3.77 3.62 3.48 3.56 3.56 3.67 3.63 3.64 3.64 3.69 3.54 3.52 3.54 3.29 3.07 3.01 2.56 2.32 2.13 1.95 1.94 1.92 1.90 1.94 1.89 1.80 1.89 2.00 2.07 1.88 2.00
2.21 2.29 2.44 2.70 2.98 3.18 3.48 3.81 3.98 4.04 4.23 4.34 4.38 4.47 4.43 4.39 4.51 4.57 4.44 4.32 4.16 4.04 3.86 3.75 3.58 3.38 3.14 3.06 2.90 2.52 2.06 1.77 1.74 1.66 1.70 1.83 1.83 1.77 1.80 1.88 1.95 1.88 1.78
2.53 2.54 2.73 3.00 3.23 3.42 3.78 4.25 4.65 4.79 4.88 4.90 4.92 5.12 5.21 5.24 5.39 5.46 5.38 5.16 4.92 4.60 4.15 3.80 3.60 3.43 3.14 3.14 3.09 2.97 2.39 1.97 1.64 1.34 1.42 1.49 1.55 1.66 1.63 1.63 1.73 1.83 1.77
2.47 2.58 2.79 3.17 3.55 3.96 4.42 4.92 5.31 5.56 5.59 5.52 5.25 5.38 5.56 5.50 5.54 5.69 5.64 5.39 5.02 4.46 3.96 3.78 3.69 3.56 3.36 3.27 3.11 3.15 2.71 2.28 1.92 1.50 1.28 1.20 1.27 1.32 1.33 1.39 1.46 1.59 1.58
2.38 2.62 2.83 3.17 3.76 4.22 4.61 5.25 5.78 6.06 6.26 6.36 6.14 5.84 5.66 5.47 5.34 5.22 5.05 4.64 4.21 3.89 3.62 3.52 3.53 3.35 3.31 3.20 3.12 2.81 2.57 2.31 2.09 1.74 1.40 1.21 1.20 1.21 1.22 1.21 1.27 1.47 1.55
2.28 2.40 2.60 3.07 3.66 4.36 5.01 5.55 6.03 6.43 6.64 6.58 6.17 5.76 5.29 4.94 4.53 4.18 3.82 3.54 3.44 3.26 3.04 2.93 2.90 2.85 2.70 2.63 2.64 2.59 2.52 2.28 1.98 1.77 1.55 1.37 1.34 1.24 1.22 1.28 1.33 1.41 1.52
1.95 2.16 2.40 2.77 3.47 4.21 4.84 5.43 5.85 6.21 6.26 5.95 5.43 4.92 4.60 4.22 3.76 3.32 3.09 2.84 2.69 2.52 2.30 2.17 2.16 2.22 2.30 2.33 2.36 2.34 2.30 2.27 2.13 2.03 1.87 1.66 1.52 1.46 1.37 1.32 1.39 1.46 1.61

GEFSSE_prec_meanprecacc_192.txt.gz
Total_Precipitation_Accumulation
0.12 0.06 0.08 0.07 0.10 0.11 0.12 0.15 0.17 0.18 0.17 0.16 0.15 0.15 0.16 0.14 0.13 0.12 0.10 0.13 0.17 0.23 0.26 0.29 0.27 0.25 0.26 0.26 0.22 0.18 0.17 0.18 0.22 0.24 0.29 0.35 0.40 0.42 0.43 0.43 0.52 0.50 0.37
0.09 0.07 0.08 0.06 0.08 0.09 0.10 0.14 0.16 0.16 0.18 0.19 0.19 0.20 0.19 0.14 0.11 0.11 0.11 0.15 0.21 0.25 0.25 0.26 0.24 0.21 0.22 0.20 0.16 0.14 0.15 0.19 0.29 0.36 0.43 0.46 0.52 0.51 0.49 0.45 0.56 0.66 0.43
0.09 0.07 0.06 0.07 0.06 0.07 0.10 0.14 0.15 0.14 0.15 0.17 0.19 0.19 0.16 0.13 0.11 0.11 0.11 0.16 0.21 0.23 0.21 0.17 0.16 0.16 0.16 0.14 0.12 0.13 0.14 0.23 0.38 0.58 0.91 0.85 0.68 0.56 0.53 0.49 0.41 0.39 0.37
0.09 0.07 0.05 0.07 0.07 0.08 0.08 0.12 0.17 0.16 0.15 0.15 0.17 0.16 0.15 0.15 0.15 0.15 0.15 0.18 0.20 0.20 0.17 0.14 0.13 0.14 0.15 0.13 0.12 0.13 0.17 0.28 0.51 0.84 1.47 1.30 0.98 0.82 0.71 0.59 0.41 0.32 0.32
0.08 0.07 0.09 0.09 0.10 0.12 0.10 0.10 0.16 0.18 0.19 0.19 0.20 0.19 0.20 0.20 0.19 0.18 0.19 0.20 0.21 0.22 0.23 0.22 0.20 0.16 0.15 0.15 0.15 0.18 0.27 0.42 0.70 1.14 1.75 1.67 1.48 1.20 0.79 0.60 0.51 0.41 0.38
0.14 0.10 0.11 0.11 0.13 0.16 0.15 0.15 0.17 0.19 0.22 0.24 0.24 0.24 0.24 0.24 0.24 0.23 0.23 0.24 0.24 0.25 0.28 0.30 0.27 0.19 0.16 0.17 0.20 0.26 0.36 0.57 0.80 1.24 1.83 1.80 1.60 1.31 0.84 0.68 0.59 0.49 0.43
0.25 0.22 0.17 0.16 0.15 0.16 0.19 0.24 0.27 0.23 0.24 0.28 0.28 0.26 0.26 0.27 0.26 0.27 0.28 0.29 0.31 0.32 0.33 0.29 0.24 0.19 0.18 0.20 0.23 0.29 0.43 0.71 0.97 1.53 1.86 1.78 1.83 1.39 0.97 0.87 0.76 0.61 0.48
0.38 0.32 0.31 0.25 0.18 0.19 0.24 0.27 0.33 0.37 0.37 0.36 0.35 0.33 0.33 0.31 0.30 0.32 0.33 0.35 0.39 0.42 0.40 0.30 0.24 0.22 0.22 0.21 0.23 0.30 0.45 0.63 0.83 1.44 1.83 1.68 1.53 1.28 1.12 1.03 0.89 0.71 0.57
0.52 0.53 0.50 0.37 0.31 0.32 0.35 0.36 0.41 0.45 0.45 0.45 0.45 0.45 0.43 0.42 0.40 0.39 0.39 0.40 0.44 0.46 0.42 0.34 0.31 0.29 0.27 0.25 0.24 0.28 0.39 0.64 0.88 1.17 1.33 1.61 1.48 1.44 1.26 1.03 0.85 0.71 0.62
0.72 0.74 0.73 0.74 0.66 0.52 0.50 0.56 0.55 0.59 0.56 0.48 0.45 0.47 0.47 0.44 0.42 0.43 0.40 0.45 0.47 0.49 0.45 0.45 0.47 0.44 0.40 0.33 0.31 0.33 0.41 0.52 0.58 0.99 1.55 1.54 1.42 1.53 1.50 1.21 0.97 0.80 0.69
0.94 0.93 0.85 0.91 0.91 0.77 0.69 0.63 0.70 0.74 0.70 0.62 0.53 0.52 0.50 0.58 0.64 0.61 0.53 0.61 0.62 0.64 0.63 0.64 0.63 0.57 0.54 0.46 0.45 0.47 0.45 0.44 0.69 1.21 1.70 1.45 1.45 1.64 1.69 1.49 1.18 0.99 0.87
1.14 1.13 1.09 0.97 0.91 0.87 0.80 0.84 0.92 0.86 0.81 0.73 0.79 0.77 0.80 1.08 1.21 1.01 1.06 1.03 0.98 0.94 0.88 0.83 0.79 0.75 0.67 0.54 0.58 0.58 0.47 0.56 0.88 1.40 1.42 1.32 1.47 1.73 1.92 1.71 1.40 1.20 1.10
1.53 1.34 1.41 1.29 1.13 1.28 1.40 1.25 1.20 1.18 1.18 1.10 1.23 1.26 1.33 1.49 1.48 1.43 1.56 1.40 1.34 1.27 1.23 1.27 1.04 0.83 0.80 0.80 0.74 0.68 0.64 0.68 0.85 1.12 1.28 1.34 1.56 1.86 2.07 1.90 1.65 1.50 1.46
2.00 1.80 1.69 1.71 1.61 1.70 1.98 1.82 1.60 1.47 1.49 1.51 1.62 1.57 1.83 1.91 1.86 1.81 1.88 1.79 1.79 1.77 1.80 1.68 1.52 1.32 1.20 1.07 0.94 0.93 0.90 0.86 0.95 1.18 1.34 1.38 1.53 1.87 2.17 2.13 1.93 1.73 1.66
2.26 2.16 1.91 1.99 2.04 2.16 2.36 2.23 2.01 2.05 1.85 1.78 1.95 1.93 2.06 2.11 2.07 2.14 2.06 2.03 1.93 1.92 1.90 1.78 1.71 1.71 1.63 1.44 1.19 1.15 1.18 1.11 1.16 1.33 1.38 1.41 1.44 1.73 2.15 2.39 2.31 2.07 2.02
2.25 2.33 2.36 2.33 2.39 2.29 2.39 2.37 2.15 2.06 2.15 1.99 1.95 1.99 1.98 2.08 2.29 2.35 2.33 2.28 2.23 2.19 2.27 2.09 1.87 1.99 1.86 1.77 1.56 1.47 1.42 1.46 1.46 1.57 1.76 1.74 1.52 1.53 1.85 2.25 2.42 2.41 2.42
2.19 2.24 2.38 2.42 2.54 2.50 2.46 2.47 2.35 2.22 2.19 2.25 2.29 2.35 2.19 2.15 2.40 2.47 2.65 2.60 2.53 2.46 2.49 2.43 2.27 2.30 2.10 1.99 1.86 1.73 1.68 1.78 1.80 1.75 1.91 2.07 1.85 1.73 1.70 1.86 2.09 2.29 2.45
1.84 2.00 2.18 2.32 2.44 2.69 2.78 2.87 2.73 2.82 2.79 2.70 2.55 2.54 2.40 2.37 2.55 2.79 2.91 2.89 2.88 2.74 2.80 2.88 2.81 2.61 2.47 2.30 2.13 1.89 1.80 1.92 1.93 1.94 1.98 2.13 2.29 2.12 1.97 1.83 1.88 2.04 2.29
1.64 1.99 2.20 2.40 2.63 2.82 3.07 3.29 3.24 3.33 3.23 3.13 3.05 2.94 2.99 3.07 3.04 3.18 3.30 3.33 3.28 3.28 3.25 3.09 3.24 3.06 2.96 2.77 2.38 2.15 1.92 1.87 1.94 1.88 1.97 1.99 2.13 2.17 2.17 2.05 1.91 1.94 2.15
1.71 2.05 2.35 2.59 2.97 3.33 3.44 3.60 3.53 3.64 3.70 3.74 3.86 3.75 3.58 3.65 3.68 3.80 3.78 3.78 3.76 3.79 3.63 3.59 3.60 3.36 3.13 3.07 2.61 2.37 2.18 1.99 1.98 1.96 1.95 1.99 1.95 1.86 1.94 2.05 2.12 1.92 2.04
2.24 2.32 2.49 2.76 3.05 3.26 3.57 3.89 4.04 4.10 4.29 4.41 4.45 4.52 4.52 4.51 4.61 4.67 4.55 4.44 4.27 4.14 3.95 3.85 3.66 3.46 3.21 3.12 2.96 2.58 2.10 1.80 1.77 1.70 1.74 1.88 1.89 1.83 1.87 1.95 2.01 1.94 1.82
2.56 2.57 2.77 3.05 3.29 3.48 3.86 4.31 4.70 4.85 4.94 4.97 4.99 5.19 5.31 5.34 5.49 5.55 5.48 5.26 5.03 4.73 4.26 3.89 3.67 3.49 3.19 3.22 3.17 3.04 2.44 2.01 1.66 1.36 1.44 1.52 1.59 1.72 1.70 1.69 1.79 1.89 1.82
2.50 2.61 2.83 3.22 3.60 4.01 4.49 4.97 5.36 5.63 5.66 5.58 5.31 5.45 5.63 5.57 5.63 5.80 5.76 5.52 5.16 4.59 4.07 3.88 3.77 3.64 3.43 3.34 3.19 3.24 2.78 2.33 1.96 1.52 1.30 1.23 1.31 1.37 1.38 1.45 1.52 1.65 1.63
2.41 2.65 2.86 3.21 3.81 4.27 4.66 5.30 5.83 6.12 6.32 6.43 6.22 5.95 5.77 5.56 5.44 5.33 5.15 4.74 4.33 4.00 3.71 3.60 3.60 3.43 3.39 3.27 3.18 2.89 2.64 2.37 2.15 1.78 1.43 1.25 1.25 1.26 1.26 1.26 1.33 1.53 1.61
2.29 2.42 2.62 3.10 3.69 4.38 5.03 5.59 6.07 6.49 6.71 6.65 6.26 5.87 5.38 5.02 4.61 4.26 3.90 3.63 3.54 3.37 3.16 3.04 2.97 2.89 2.76 2.70 2.71 2.66 2.60 2.35 2.05 1.83 1.61 1.43 1.40 1.31 1.29 1.35 1.40 1.47 1.57
1.95 2.17 2.41 2.79 3.49 4.23 4.87 5.48 5.90 6.26 6.32 6.01 5.49 4.98 4.66 4.28 3.83 3.39 3.15 2.92 2.79 2.62 2.39 2.25 2.22 2.27 2.36 2.39 2.42 2.40 2.37 2.34 2.19 2.09 1.94 1.72 1.59 1.54 1.44 1.39 1.46 1.53 1.67

GEFSSE_prec_meanprecacc_198.txt.gz
Total_Precipitation_Accumulation
0.13 0.07 0.08 0.07 0.10 0.11 0.12 0.15 0.17 0.18 0.17 0.16 0.15 0.15 0.17 0.16 0.14 0.12 0.11 0.13 0.17 0.23 0.27 0.30 0.28 0.26 0.27 0.27 0.23 0.19 0.18 0.19 0.24 0.25 0.29 0.35 0.41 0.43 0.44 0.44 0.54 0.53 0.43
0.09 0.07 0.08 0.06 0.08 0.09 0.10 0.14 0.16 0.17 0.18 0.19 0.20 0.21 0.21 0.17 0.13 0.12 0.11 0.15 0.22 0.26 0.26 0.27 0.25 0.22 0.24 0.21 0.17 0.16 0.16 0.21 0.31 0.38 0.43 0.46 0.52 0.51 0.49 0.46 0.58 0.74 0.54
0.10 0.07 0.07 0.07 0.07 0.08 0.10 0.14 0.15 0.14 0.16 0.18 0.20 0.20 0.18 0.15 0.14 0.14 0.13 0.17 0.22 0.23 0.22 0.18 0.17 0.17 0.17 0.16 0.15 0.15 0.17 0.25 0.40 0.59 0.93 0.86 0.70 0.59 0.55 0.50 0.43 0.42 0.41
0.10 0.08 0.06 0.07 0.08 0.08 0.09 0.12 0.17 0.17 0.16 0.16 0.18 0.18 0.17 0.16 0.17 0.18 0.18 0.20 0.22 0.22 0.19 0.16 0.15 0.15 0.16 0.16 0.15 0.15 0.20 0.31 0.53 0.85 1.48 1.32 1.03 0.93 0.78 0.63 0.44 0.35 0.35
0.09 0.08 0.09 0.09 0.11 0.12 0.11 0.10 0.16 0.18 0.19 0.20 0.21 0.19 0.21 0.22 0.22 0.21 0.22 0.24 0.24 0.25 0.27 0.26 0.23 0.20 0.18 0.18 0.18 0.21 0.29 0.44 0.72 1.15 1.76 1.70 1.55 1.31 0.88 0.65 0.55 0.45 0.41
0.15 0.11 0.11 0.12 0.13 0.16 0.15 0.15 0.17 0.19 0.23 0.25 0.25 0.25 0.25 0.26 0.26 0.25 0.26 0.28 0.29 0.30 0.32 0.35 0.32 0.25 0.21 0.21 0.23 0.28 0.38 0.59 0.81 1.24 1.84 1.82 1.67 1.40 0.91 0.73 0.62 0.53 0.47
0.26 0.23 0.17 0.16 0.15 0.17 0.19 0.24 0.27 0.24 0.26 0.29 0.30 0.28 0.28 0.29 0.29 0.30 0.31 0.33 0.37 0.37 0.37 0.33 0.30 0.25 0.23 0.23 0.27 0.32 0.46 0.73 0.98 1.55 1.88 1.80 1.88 1.46 1.04 0.93 0.81 0.67 0.53
0.39 0.33 0.32 0.25 0.19 0.20 0.25 0.28 0.34 0.39 0.38 0.37 0.36 0.35 0.35 0.34 0.33 0.36 0.37 0.40 0.44 0.49 0.48 0.37 0.30 0.28 0.27 0.25 0.27 0.33 0.49 0.66 0.85 1.46 1.85 1.72 1.58 1.34 1.19 1.09 0.93 0.76 0.64
0.54 0.55 0.52 0.38 0.32 0.34 0.36 0.37 0.42 0.46 0.46 0.45 0.46 0.46 0.44 0.44 0.42 0.42 0.43 0.45 0.49 0.51 0.50 0.44 0.41 0.37 0.35 0.32 0.31 0.34 0.44 0.68 0.91 1.20 1.36 1.67 1.57 1.55 1.36 1.12 0.90 0.76 0.68
0.74 0.76 0.76 0.75 0.69 0.58 0.56 0.62 0.59 0.60 0.56 0.48 0.45 0.48 0.48 0.45 0.43 0.45 0.43 0.49 0.53 0.56 0.53 0.54 0.56 0.51 0.47 0.41 0.39 0.41 0.49 0.57 0.61 1.02 1.59 1.60 1.51 1.65 1.60 1.28 1.02 0.86 0.75
0.96 0.95 0.88 0.95 0.96 0.84 0.78 0.73 0.78 0.76 0.71 0.63 0.55 0.55 0.54 0.63 0.70 0.68 0.59 0.66 0.68 0.71 0.71 0.72 0.71 0.65 0.62 0.54 0.53 0.58 0.56 0.52 0.75 1.26 1.76 1.52 1.54 1.75 1.79 1.57 1.24 1.04 0.92
1.17 1.15 1.11 1.00 0.94 0.90 0.83 0.89 0.97 0.90 0.88 0.80 0.87 0.85 0.87 1.16 1.31 1.12 1.17 1.16 1.09 1.04 0.97 0.90 0.86 0.83 0.75 0.60 0.65 0.67 0.56 0.63 0.95 1.46 1.49 1.40 1.55 1.81 2.00 1.80 1.47 1.24 1.15
1.55 1.36 1.44 1.32 1.16 1.31 1.44 1.30 1.26 1.24 1.27 1.20 1.33 1.36 1.41 1.57 1.57 1.52 1.66 1.51 1.44 1.38 1.34 1.38 1.14 0.91 0.87 0.87 0.82 0.78 0.72 0.74 0.92 1.18 1.35 1.41 1.65 1.94 2.13 1.96 1.71 1.55 1.52
2.03 1.84 1.72 1.74 1.65 1.74 2.02 1.87 1.66 1.54 1.57 1.60 1.71 1.65 1.92 2.01 1.95 1.90 1.99 1.90 1.90 1.88 1.91 1.78 1.62 1.39 1.26 1.13 1.02 1.01 0.99 0.94 1.02 1.25 1.41 1.44 1.59 1.95 2.22 2.17 1.98 1.78 1.72
2.29 2.20 1.98 2.02 2.08 2.21 2.42 2.29 2.10 2.14 1.93 1.86 2.03 2.02 2.16 2.21 2.17 2.24 2.14 2.12 2.02 2.01 1.99 1.87 1.78 1.78 1.69 1.50 1.25 1.21 1.25 1.18 1.23 1.40 1.47 1.49 1.52 1.80 2.21 2.44 2.35 2.11 2.07
2.28 2.36 2.41 2.37 2.44 2.35 2.44 2.43 2.21 2.11 2.21 2.05 2.02 2.07 2.08 2.19 2.39 2.45 2.42 2.37 2.31 2.27 2.34 2.16 1.95 2.09 1.94 1.86 1.65 1.56 1.49 1.54 1.53 1.63 1.83 1.82 1.59 1.58 1.90 2.29 2.47 2.46 2.47
2.23 2.27 2.41 2.45 2.57 2.54 2.51 2.52 2.40 2.26 2.24 2.30 2.36 2.43 2.28 2.25 2.51 2.58 2.74 2.67 2.61 2.55 2.57 2.50 2.37 2.41 2.19 2.07 1.94 1.82 1.77 1.88 1.89 1.83 1.99 2.14 1.90 1.78 1.76 1.92 2.15 2.35 2.51
1.90 2.06 2.22 2.34 2.47 2.72 2.83 2.93 2.78 2.86 2.84 2.77 2.63 2.61 2.47 2.45 2.66 2.91 3.01 2.98 2.98 2.84 2.89 2.97 2.91 2.71 2.57 2.40 2.23 1.98 1.91 2.04 2.06 2.04 2.06 2.20 2.35 2.18 2.04 1.89 1.94 2.09 2.34
1.67 2.02 2.25 2.45 2.68 2.88 3.14 3.35 3.29 3.39 3.29 3.20 3.12 3.02 3.06 3.15 3.13 3.29 3.40 3.45 3.40 3.38 3.34 3.17 3.34 3.17 3.07 2.88 2.48 2.25 2.02 1.97 2.05 1.98 2.05 2.06 2.21 2.25 2.26 2.14 1.99 2.01 2.21
1.73 2.07 2.38 2.64 3.02 3.39 3.51 3.67 3.59 3.71 3.77 3.81 3.94 3.82 3.66 3.73 3.77 3.89 3.87 3.89 3.88 3.90 3.74 3.68 3.70 3.46 3.24 3.17 2.69 2.47 2.28 2.07 2.07 2.04 2.02 2.07 2.04 1.94 2.02 2.14 2.22 2.01 2.12
2.26 2.35 2.53 2.81 3.12 3.31 3.62 3.93 4.10 4.17 4.36 4.47 4.52 4.59 4.58 4.58 4.69 4.75 4.63 4.55 4.39 4.25 4.06 3.95 3.76 3.55 3.30 3.22 3.06 2.67 2.18 1.87 1.84 1.76 1.79 1.94 1.95 1.89 1.93 2.02 2.10 2.05 1.93
2.59 2.61 2.82 3.09 3.34 3.53 3.90 4.37 4.77 4.93 5.02 5.05 5.06 5.25 5.37 5.39 5.55 5.61 5.55 5.35 5.12 4.84 4.36 3.99 3.77 3.58 3.27 3.32 3.26 3.15 2.54 2.10 1.74 1.41 1.49 1.56 1.63 1.77 1.76 1.76 1.88 2.01 1.93
2.54 2.65 2.85 3.25 3.64 4.06 4.54 5.03 5.43 5.70 5.73 5.65 5.38 5.53 5.69 5.63 5.70 5.86 5.82 5.59 5.23 4.66 4.14 3.96 3.86 3.73 3.52 3.43 3.28 3.35 2.89 2.43 2.04 1.59 1.36 1.28 1.37 1.42 1.43 1.51 1.60 1.75 1.74
2.45 2.70 2.90 3.26 3.87 4.33 4.72 5.37 5.90 6.19 6.40 6.51 6.32 6.03 5.83 5.62 5.51 5.40 5.22 4.81 4.40 4.06 3.78 3.67 3.68 3.53 3.50 3.36 3.27 2.98 2.75 2.48 2.23 1.86 1.49 1.30 1.30 1.30 1.30 1.29 1.37 1.60 1.70
2.32 2.46 2.68 3.17 3.77 4.46 5.10 5.65 6.15 6.58 6.80 6.76 6.36 5.96 5.46 5.08 4.67 4.33 3.97 3.70 3.60 3.43 3.22 3.12 3.09 3.00 2.87 2.79 2.80 2.75 2.69 2.45 2.14 1.93 1.68 1.48 1.46 1.36 1.35 1.39 1.45 1.53 1.64
1.98 2.20 2.45 2.84 3.55 4.30 4.93 5.53 5.97 6.34 6.41 6.10 5.58 5.08 4.75 4.35 3.89 3.44 3.20 2.97 2.85 2.68 2.46 2.33 2.31 2.36 2.45 2.49 2.53 2.50 2.46 2.43 2.28 2.19 2.02 1.80 1.66 1.60 1.52 1.47 1.53 1.60 1.75

GEFSSE_prec_meanprecacc_204.txt.gz
Total_Precipitation_Accumulation
0.16 0.07 0.08 0.07 0.10 0.11 0.12 0.15 0.17 0.19 0.17 0.16 0.16 0.16 0.17 0.16 0.14 0.12 0.11 0.13 0.17 0.24 0.27 0.30 0.30 0.27 0.29 0.29 0.25 0.22 0.20 0.22 0.27 0.29 0.33 0.39 0.45 0.47 0.50 0.51 0.59 0.57 0.48
0.12 0.08 0.08 0.06 0.08 0.09 0.10 0.14 0.16 0.17 0.18 0.19 0.20 0.21 0.21 0.17 0.13 0.12 0.11 0.15 0.22 0.26 0.26 0.28 0.27 0.24 0.25 0.23 0.19 0.18 0.19 0.23 0.33 0.41 0.47 0.49 0.56 0.56 0.54 0.51 0.65 0.79 0.58
0.14 0.09 0.07 0.07 0.07 0.08 0.10 0.14 0.15 0.14 0.16 0.18 0.20 0.21 0.18 0.15 0.14 0.15 0.13 0.17 0.23 0.24 0.23 0.20 0.19 0.19 0.19 0.18 0.17 0.18 0.19 0.28 0.41 0.61 0.96 0.88 0.72 0.63 0.62 0.57 0.50 0.48 0.46
0.16 0.10 0.07 0.08 0.08 0.08 0.09 0.12 0.17 0.17 0.16 0.16 0.18 0.18 0.17 0.17 0.18 0.19 0.19 0.21 0.23 0.23 0.21 0.17 0.17 0.17 0.19 0.19 0.17 0.18 0.22 0.33 0.55 0.87 1.50 1.33 1.05 0.97 0.86 0.71 0.52 0.42 0.40
0.15 0.13 0.11 0.10 0.11 0.12 0.11 0.10 0.16 0.18 0.19 0.20 0.21 0.20 0.21 0.22 0.22 0.22 0.23 0.25 0.26 0.27 0.28 0.28 0.26 0.24 0.23 0.23 0.22 0.23 0.32 0.47 0.74 1.17 1.78 1.72 1.57 1.37 1.00 0.76 0.63 0.55 0.48
0.20 0.14 0.14 0.14 0.14 0.16 0.15 0.15 0.18 0.20 0.23 0.25 0.26 0.25 0.25 0.27 0.27 0.26 0.27 0.30 0.31 0.32 0.34 0.37 0.34 0.27 0.24 0.24 0.27 0.31 0.41 0.62 0.83 1.26 1.86 1.85 1.70 1.47 1.02 0.87 0.73 0.62 0.55
0.36 0.28 0.21 0.19 0.16 0.17 0.19 0.25 0.28 0.25 0.26 0.29 0.30 0.28 0.28 0.29 0.30 0.31 0.32 0.34 0.39 0.40 0.39 0.36 0.32 0.27 0.25 0.26 0.29 0.35 0.49 0.76 1.00 1.57 1.92 1.84 1.93 1.53 1.16 1.07 0.95 0.77 0.61
0.48 0.41 0.36 0.27 0.19 0.20 0.25 0.28 0.35 0.39 0.38 0.37 0.37 0.35 0.36 0.34 0.34 0.37 0.39 0.42 0.47 0.52 0.51 0.41 0.34 0.32 0.30 0.28 0.30 0.37 0.53 0.70 0.87 1.50 1.89 1.76 1.63 1.42 1.30 1.22 1.06 0.86 0.71
0.61 0.60 0.54 0.39 0.33 0.35 0.39 0.38 0.42 0.46 0.46 0.46 0.47 0.47 0.45 0.44 0.43 0.43 0.44 0.47 0.52 0.55 0.54 0.50 0.46 0.42 0.40 0.37 0.36 0.40 0.50 0.75 0.95 1.23 1.39 1.71 1.62 1.63 1.47 1.24 1.02 0.85 0.74
0.85 0.83 0.80 0.78 0.71 0.60 0.59 0.63 0.61 0.62 0.57 0.49 0.46 0.49 0.49 0.46 0.45 0.47 0.45 0.52 0.56 0.59 0.56 0.59 0.64 0.61 0.55 0.48 0.45 0.46 0.54 0.64 0.66 1.06 1.63 1.63 1.57 1.76 1.74 1.41 1.14 0.95 0.82
1.09 1.08 0.96 1.00 1.00 0.86 0.80 0.76 0.81 0.81 0.75 0.65 0.57 0.58 0.56 0.64 0.72 0.69 0.63 0.71 0.72 0.75 0.77 0.80 0.78 0.73 0.74 0.66 0.62 0.65 0.63 0.57 0.80 1.31 1.79 1.56 1.59 1.84 1.92 1.70 1.37 1.15 1.01
1.29 1.25 1.18 1.07 1.01 0.97 0.89 0.94 1.03 1.02 0.99 0.84 0.89 0.86 0.88 1.17 1.32 1.14 1.21 1.20 1.14 1.11 1.07 1.02 0.94 0.89 0.81 0.67 0.74 0.75 0.60 0.67 1.00 1.51 1.53 1.45 1.61 1.89 2.12 1.92 1.59 1.35 1.24
1.64 1.44 1.51 1.42 1.31 1.44 1.51 1.38 1.35 1.39 1.43 1.27 1.36 1.38 1.43 1.59 1.58 1.54 1.67 1.53 1.47 1.42 1.38 1.45 1.22 0.99 0.93 0.91 0.87 0.83 0.76 0.78 0.97 1.23 1.38 1.46 1.71 2.05 2.27 2.08 1.83 1.67 1.61
2.14 1.93 1.87 1.89 1.82 1.88 2.12 1.93 1.73 1.62 1.66 1.67 1.76 1.69 1.96 2.04 1.98 1.93 2.01 1.92 1.92 1.90 1.94 1.82 1.67 1.45 1.30 1.17 1.05 1.04 1.02 0.98 1.07 1.30 1.46 1.51 1.66 2.06 2.37 2.31 2.10 1.88 1.80
2.40 2.29 2.04 2.11 2.19 2.35 2.54 2.36 2.14 2.20 1.99 1.92 2.10 2.09 2.22 2.27 2.22 2.29 2.19 2.17 2.07 2.05 2.03 1.92 1.84 1.84 1.73 1.54 1.28 1.25 1.29 1.22 1.26 1.45 1.52 1.55 1.59 1.90 2.34 2.58 2.47 2.22 2.17
2.34 2.43 2.48 2.43 2.48 2.39 2.50 2.49 2.26 2.15 2.26 2.12 2.11 2.16 2.17 2.27 2.48 2.54 2.50 2.45 2.39 2.35 2.41 2.24 2.02 2.16 2.00 1.90 1.70 1.61 1.54 1.58 1.56 1.66 1.87 1.86 1.65 1.67 2.02 2.44 2.62 2.61 2.60
2.28 2.32 2.47 2.50 2.60 2.57 2.54 2.57 2.44 2.30 2.28 2.36 2.44 2.52 2.37 2.35 2.62 2.69 2.83 2.76 2.71 2.65 2.66 2.60 2.46 2.48 2.25 2.13 1.99 1.86 1.81 1.92 1.92 1.86 2.02 2.16 1.93 1.86 1.87 2.04 2.29 2.51 2.68
1.93 2.10 2.27 2.42 2.52 2.76 2.86 2.96 2.82 2.90 2.87 2.81 2.70 2.68 2.56 2.54 2.75 3.01 3.09 3.04 3.05 2.92 2.96 3.06 3.01 2.79 2.65 2.47 2.29 2.02 1.95 2.08 2.11 2.08 2.11 2.25 2.39 2.22 2.09 1.97 2.04 2.21 2.48
1.70 2.05 2.30 2.53 2.78 2.95 3.19 3.42 3.37 3.46 3.35 3.25 3.19 3.08 3.13 3.21 3.21 3.37 3.47 3.50 3.46 3.46 3.43 3.25 3.42 3.24 3.14 2.94 2.54 2.32 2.07 2.01 2.10 2.02 2.09 2.09 2.25 2.29 2.30 2.18 2.07 2.11 2.33
1.79 2.12 2.43 2.70 3.11 3.50 3.60 3.76 3.68 3.81 3.85 3.88 4.00 3.89 3.72 3.80 3.83 3.95 3.92 3.92 3.93 3.96 3.80 3.75 3.77 3.53 3.32 3.24 2.78 2.55 2.35 2.11 2.11 2.08 2.05 2.11 2.08 1.99 2.07 2.17 2.28 2.08 2.23
2.33 2.44 2.61 2.88 3.20 3.41 3.73 4.02 4.17 4.25 4.44 4.54 4.57 4.65 4.65 4.65 4.75 4.81 4.67 4.60 4.45 4.32 4.12 4.01 3.83 3.62 3.37 3.29 3.13 2.72 2.22 1.91 1.87 1.80 1.84 1.98 1.99 1.93 1.99 2.08 2.15 2.10 1.99
2.65 2.68 2.90 3.21 3.51 3.68 4.05 4.48 4.85 5.00 5.09 5.12 5.13 5.32 5.44 5.47 5.62 5.68 5.63 5.42 5.21 4.92 4.45 4.06 3.84 3.64 3.33 3.38 3.32 3.19 2.57 2.13 1.77 1.45 1.53 1.61 1.68 1.83 1.83 1.83 1.95 2.08 2.01
2.62 2.71 2.90 3.32 3.78 4.23 4.68 5.12 5.50 5.76 5.78 5.70 5.44 5.59 5.75 5.69 5.76 5.92 5.88 5.65 5.30 4.74 4.21 4.00 3.90 3.77 3.56 3.47 3.33 3.39 2.93 2.46 2.07 1.62 1.39 1.32 1.42 1.49 1.50 1.56 1.65 1.79 1.79
2.52 2.75 2.94 3.29 3.92 4.43 4.82 5.43 5.95 6.24 6.46 6.58 6.39 6.09 5.88 5.66 5.55 5.44 5.26 4.85 4.45 4.11 3.82 3.70 3.72 3.56 3.53 3.40 3.31 3.03 2.80 2.51 2.26 1.88 1.52 1.33 1.32 1.33 1.34 1.33 1.41 1.64 1.73
2.38 2.51 2.72 3.20 3.80 4.50 5.14 5.70 6.20 6.64 6.87 6.82 6.42 6.01 5.52 5.15 4.74 4.37 4.00 3.73 3.63 3.47 3.26 3.16 3.12 3.04 2.90 2.83 2.84 2.81 2.74 2.49 2.17 1.95 1.71 1.50 1.47 1.37 1.37 1.42 1.48 1.56 1.67
2.04 2.24 2.48 2.89 3.60 4.34 4.98 5.60 6.05 6.43 6.47 6.15 5.62 5.11 4.79 4.42 3.95 3.48 3.23 3.00 2.88 2.71 2.49 2.37 2.35 2.39 2.47 2.52 2.57 2.55 2.51 2.48 2.32 2.22 2.04 1.81 1.67 1.62 1.54 1.49 1.56 1.64 1.79

GEFSSE_prec_meanprecacc_210.txt.gz
Total_Precipitation_Accumulation
0.18 0.08 0.09 0.09 0.12 0.12 0.13 0.16 0.18 0.19 0.18 0.17 0.17 0.16 0.17 0.16 0.15 0.13 0.12 0.15 0.19 0.24 0.28 0.32 0.32 0.31 0.33 0.33 0.30 0.25 0.23 0.26 0.32 0.33 0.38 0.44 0.50 0.52 0.55 0.57 0.66 0.62 0.54
0.14 0.09 0.09 0.08 0.09 0.11 0.11 0.15 0.17 0.17 0.19 0.20 0.21 0.21 0.21 0.18 0.14 0.13 0.13 0.17 0.24 0.27 0.27 0.29 0.29 0.27 0.29 0.27 0.23 0.22 0.22 0.28 0.38 0.46 0.52 0.54 0.62 0.63 0.62 0.60 0.73 0.84 0.67
0.14 0.09 0.07 0.08 0.08 0.09 0.11 0.14 0.16 0.15 0.17 0.19 0.21 0.21 0.19 0.16 0.15 0.15 0.14 0.19 0.24 0.26 0.25 0.21 0.21 0.21 0.22 0.22 0.21 0.21 0.24 0.32 0.46 0.66 1.01 0.92 0.76 0.71 0.70 0.66 0.60 0.56 0.52
0.17 0.11 0.07 0.08 0.09 0.10 0.09 0.12 0.18 0.17 0.16 0.17 0.19 0.18 0.18 0.18 0.19 0.20 0.20 0.23 0.26 0.26 0.24 0.20 0.19 0.19 0.21 0.21 0.20 0.21 0.26 0.36 0.59 0.90 1.52 1.35 1.06 1.03 0.95 0.81 0.61 0.51 0.46
0.17 0.13 0.12 0.11 0.12 0.14 0.12 0.11 0.17 0.19 0.20 0.20 0.22 0.21 0.23 0.24 0.24 0.24 0.26 0.29 0.29 0.31 0.33 0.33 0.30 0.27 0.26 0.25 0.24 0.26 0.35 0.50 0.76 1.18 1.80 1.73 1.59 1.41 1.07 0.84 0.71 0.63 0.55
0.22 0.15 0.15 0.15 0.16 0.18 0.17 0.17 0.19 0.20 0.24 0.27 0.27 0.26 0.27 0.28 0.28 0.28 0.31 0.34 0.35 0.37 0.40 0.43 0.41 0.33 0.29 0.28 0.31 0.35 0.44 0.65 0.86 1.28 1.88 1.87 1.72 1.50 1.08 0.94 0.81 0.70 0.62
0.37 0.30 0.23 0.21 0.19 0.19 0.21 0.26 0.29 0.26 0.26 0.30 0.31 0.29 0.30 0.31 0.31 0.32 0.34 0.37 0.42 0.43 0.43 0.41 0.38 0.33 0.32 0.32 0.34 0.40 0.54 0.81 1.03 1.60 1.94 1.87 1.95 1.57 1.22 1.14 1.03 0.86 0.67
0.50 0.43 0.38 0.29 0.21 0.22 0.28 0.30 0.36 0.41 0.39 0.38 0.37 0.37 0.37 0.35 0.35 0.38 0.40 0.43 0.49 0.55 0.55 0.44 0.37 0.36 0.36 0.36 0.36 0.44 0.60 0.76 0.90 1.52 1.92 1.81 1.68 1.47 1.36 1.29 1.14 0.95 0.78
0.62 0.62 0.56 0.41 0.35 0.37 0.41 0.41 0.45 0.49 0.48 0.47 0.48 0.49 0.47 0.46 0.45 0.44 0.46 0.50 0.55 0.59 0.57 0.53 0.50 0.46 0.45 0.44 0.44 0.48 0.58 0.83 1.01 1.27 1.43 1.76 1.69 1.71 1.56 1.31 1.10 0.93 0.81
0.87 0.86 0.82 0.80 0.73 0.63 0.61 0.67 0.64 0.66 0.60 0.51 0.48 0.52 0.53 0.49 0.47 0.49 0.47 0.54 0.60 0.62 0.59 0.62 0.69 0.67 0.62 0.53 0.51 0.54 0.62 0.71 0.72 1.09 1.66 1.67 1.64 1.84 1.85 1.52 1.23 1.03 0.91
1.17 1.13 1.00 1.05 1.04 0.90 0.84 0.80 0.85 0.85 0.78 0.68 0.59 0.60 0.58 0.66 0.74 0.72 0.66 0.75 0.78 0.81 0.84 0.87 0.85 0.79 0.79 0.71 0.68 0.71 0.71 0.65 0.85 1.34 1.82 1.59 1.64 1.91 2.01 1.80 1.47 1.25 1.11
1.37 1.33 1.23 1.12 1.06 1.01 0.92 0.98 1.07 1.06 1.04 0.87 0.91 0.89 0.91 1.21 1.36 1.17 1.24 1.25 1.20 1.19 1.16 1.11 1.03 0.97 0.88 0.72 0.79 0.83 0.68 0.76 1.09 1.56 1.55 1.48 1.66 1.95 2.20 2.01 1.69 1.45 1.36
1.69 1.50 1.56 1.46 1.34 1.47 1.53 1.40 1.39 1.43 1.47 1.31 1.40 1.42 1.47 1.63 1.64 1.60 1.71 1.57 1.52 1.46 1.42 1.50 1.28 1.05 0.99 0.96 0.92 0.90 0.84 0.87 1.07 1.31 1.42 1.49 1.75 2.10 2.34 2.18 1.94 1.78 1.71
2.18 1.98 1.90 1.92 1.84 1.90 2.14 1.94 1.74 1.63 1.67 1.69 1.78 1.73 2.00 2.08 2.04 2.01 2.08 1.97 1.94 1.92 1.96 1.84 1.70 1.49 1.36 1.22 1.10 1.10 1.09 1.05 1.14 1.37 1.53 1.55 1.69 2.10 2.43 2.39 2.20 1.99 1.93
2.46 2.36 2.10 2.14 2.22 2.37 2.56 2.37 2.15 2.20 2.00 1.93 2.12 2.12 2.28 2.35 2.32 2.39 2.28 2.22 2.10 2.08 2.06 1.96 1.87 1.88 1.77 1.59 1.34 1.31 1.35 1.27 1.32 1.51 1.58 1.61 1.64 1.95 2.40 2.65 2.57 2.36 2.32
2.41 2.53 2.57 2.48 2.52 2.42 2.52 2.50 2.27 2.17 2.27 2.14 2.14 2.21 2.24 2.37 2.59 2.67 2.62 2.52 2.43 2.38 2.44 2.28 2.07 2.22 2.06 1.97 1.76 1.67 1.62 1.65 1.61 1.71 1.91 1.90 1.69 1.73 2.08 2.51 2.71 2.72 2.73
2.33 2.38 2.52 2.55 2.66 2.61 2.58 2.59 2.46 2.31 2.31 2.39 2.48 2.56 2.43 2.42 2.69 2.77 2.93 2.83 2.75 2.69 2.70 2.64 2.53 2.58 2.35 2.21 2.05 1.93 1.88 1.97 1.96 1.89 2.05 2.19 1.96 1.90 1.91 2.09 2.36 2.60 2.79
1.97 2.14 2.33 2.50 2.60 2.83 2.91 3.00 2.85 2.93 2.91 2.85 2.73 2.71 2.59 2.59 2.81 3.09 3.17 3.11 3.11 2.98 3.04 3.13 3.07 2.88 2.73 2.54 2.34 2.07 1.99 2.13 2.15 2.13 2.15 2.28 2.42 2.24 2.11 2.01 2.11 2.29 2.58
1.77 2.12 2.39 2.63 2.88 3.06 3.27 3.49 3.43 3.52 3.41 3.30 3.22 3.10 3.15 3.26 3.28 3.45 3.54 3.55 3.51 3.52 3.50 3.33 3.49 3.31 3.21 3.01 2.59 2.36 2.12 2.05 2.15 2.08 2.14 2.14 2.29 2.33 2.33 2.21 2.12 2.18 2.41
1.89 2.20 2.51 2.78 3.20 3.61 3.69 3.84 3.75 3.89 3.93 3.94 4.05 3.92 3.74 3.84 3.92 4.04 3.98 3.98 3.98 4.00 3.85 3.82 3.85 3.62 3.39 3.31 2.86 2.60 2.38 2.14 2.15 2.12 2.10 2.17 2.14 2.03 2.10 2.21 2.32 2.13 2.29
2.44 2.55 2.72 2.97 3.28 3.51 3.84 4.14 4.28 4.36 4.56 4.63 4.63 4.69 4.69 4.71 4.84 4.89 4.71 4.63 4.49 4.37 4.18 4.09 3.92 3.72 3.45 3.39 3.24 2.79 2.26 1.94 1.91 1.83 1.87 2.02 2.02 1.97 2.02 2.10 2.19 2.14 2.04
2.78 2.80 3.01 3.33 3.63 3.80 4.19 4.65 5.04 5.18 5.25 5.27 5.25 5.40 5.51 5.53 5.67 5.72 5.66 5.46 5.25 4.97 4.49 4.12 3.93 3.74 3.41 3.46 3.40 3.27 2.63 2.17 1.80 1.48 1.56 1.63 1.70 1.86 1.85 1.85 1.98 2.11 2.04
2.73 2.83 3.00 3.41 3.87 4.32 4.80 5.29 5.71 5.94 5.97 5.87 5.59 5.68 5.82 5.74 5.80 5.94 5.91 5.69 5.34 4.79 4.26 4.07 3.98 3.84 3.62 3.53 3.39 3.47 2.99 2.51 2.11 1.66 1.45 1.36 1.44 1.51 1.53 1.59 1.68 1.81 1.81
2.61 2.85 3.03 3.38 4.01 4.52 4.90 5.52 6.09 6.36 6.57 6.69 6.49 6.18 5.94 5.71 5.58 5.46 5.28 4.88 4.48 4.14 3.84 3.73 3.76 3.61 3.59 3.45 3.36 3.08 2.85 2.56 2.30 1.92 1.55 1.35 1.35 1.36 1.37 1.35 1.43 1.66 1.75
2.46 2.58 2.79 3.28 3.89 4.56 5.19 5.75 6.29 6.72 6.92 6.87 6.47 6.06 5.56 5.19 4.76 4.38 4.01 3.75 3.65 3.48 3.27 3.18 3.15 3.06 2.93 2.86 2.87 2.84 2.78 2.52 2.21 1.99 1.73 1.51 1.49 1.41 1.40 1.44 1.50 1.59 1.69
2.09 2.29 2.53 2.93 3.65 4.38 5.01 5.62 6.10 6.49 6.53 6.19 5.65 5.14 4.82 4.45 3.98 3.51 3.25 3.02 2.89 2.73 2.51 2.39 2.38 2.42 2.50 2.55 2.60 2.59 2.55 2.52 2.36 2.26 2.08 1.83 1.69 1.65 1.57 1.51 1.58 1.66 1.81

GEFSSE_prec_meanprecacc_216.txt.gz
Total_Precipitation_Accumulation
0.18 0.09 0.10 0.10 0.13 0.13 0.14 0.18 0.19 0.20 0.19 0.18 0.18 0.17 0.19 0.18 0.17 0.15 0.14 0.17 0.21 0.27 0.30 0.35 0.35 0.34 0.36 0.36 0.32 0.28 0.26 0.29 0.34 0.36 0.41 0.48 0.55 0.57 0.59 0.62 0.71 0.64 0.58
0.15 0.10 0.10 0.08 0.10 0.12 0.13 0.17 0.19 0.19 0.20 0.22 0.22 0.23 0.23 0.19 0.16 0.15 0.14 0.19 0.28 0.32 0.31 0.32 0.33 0.31 0.33 0.30 0.26 0.25 0.24 0.29 0.40 0.49 0.56 0.57 0.66 0.68 0.66 0.64 0.78 0.91 0.72
0.15 0.10 0.08 0.09 0.09 0.11 0.12 0.16 0.18 0.17 0.18 0.20 0.22 0.23 0.20 0.17 0.16 0.18 0.17 0.22 0.29 0.32 0.31 0.27 0.26 0.28 0.28 0.27 0.25 0.25 0.27 0.36 0.49 0.69 1.04 0.95 0.79 0.75 0.75 0.72 0.65 0.62 0.56
0.17 0.11 0.08 0.10 0.11 0.12 0.12 0.15 0.21 0.19 0.18 0.18 0.20 0.20 0.20 0.20 0.21 0.22 0.23 0.27 0.31 0.32 0.32 0.32 0.30 0.27 0.27 0.28 0.26 0.24 0.29 0.40 0.63 0.93 1.54 1.37 1.09 1.08 1.02 0.86 0.67 0.56 0.49
0.17 0.14 0.13 0.13 0.15 0.17 0.15 0.14 0.21 0.22 0.22 0.23 0.23 0.22 0.24 0.26 0.27 0.27 0.30 0.32 0.34 0.37 0.40 0.40 0.40 0.36 0.33 0.32 0.31 0.32 0.40 0.54 0.81 1.21 1.81 1.75 1.62 1.46 1.12 0.89 0.76 0.68 0.60
0.22 0.15 0.16 0.17 0.19 0.20 0.19 0.20 0.21 0.22 0.26 0.29 0.29 0.28 0.28 0.30 0.30 0.31 0.35 0.39 0.41 0.43 0.48 0.51 0.48 0.41 0.36 0.36 0.39 0.44 0.52 0.71 0.91 1.32 1.94 1.91 1.76 1.56 1.13 0.98 0.86 0.75 0.68
0.38 0.30 0.23 0.22 0.21 0.21 0.23 0.28 0.31 0.28 0.29 0.33 0.33 0.31 0.32 0.33 0.33 0.35 0.38 0.41 0.46 0.47 0.48 0.45 0.43 0.38 0.37 0.39 0.42 0.49 0.64 0.91 1.12 1.67 2.00 1.92 2.01 1.63 1.28 1.20 1.08 0.92 0.73
0.51 0.44 0.39 0.30 0.22 0.25 0.31 0.33 0.39 0.42 0.41 0.40 0.39 0.39 0.40 0.39 0.38 0.42 0.44 0.47 0.53 0.60 0.59 0.49 0.42 0.41 0.40 0.41 0.42 0.52 0.68 0.84 0.97 1.58 1.97 1.85 1.73 1.53 1.43 1.38 1.22 1.01 0.83
0.64 0.63 0.57 0.43 0.36 0.39 0.43 0.43 0.47 0.51 0.50 0.49 0.51 0.53 0.52 0.50 0.49 0.48 0.50 0.54 0.59 0.63 0.62 0.58 0.55 0.52 0.50 0.48 0.48 0.54 0.65 0.89 1.09 1.37 1.49 1.81 1.73 1.76 1.63 1.40 1.18 1.00 0.88
0.89 0.87 0.83 0.82 0.75 0.65 0.63 0.68 0.66 0.68 0.63 0.54 0.52 0.57 0.57 0.53 0.51 0.54 0.51 0.58 0.65 0.67 0.64 0.68 0.76 0.74 0.68 0.58 0.55 0.58 0.70 0.81 0.79 1.16 1.73 1.73 1.68 1.89 1.90 1.59 1.31 1.11 0.99
1.18 1.15 1.02 1.06 1.05 0.92 0.86 0.81 0.87 0.86 0.80 0.70 0.63 0.64 0.62 0.70 0.78 0.77 0.70 0.80 0.85 0.91 0.96 0.98 0.96 0.91 0.91 0.80 0.75 0.77 0.78 0.75 0.95 1.42 1.89 1.63 1.67 1.95 2.06 1.87 1.55 1.34 1.19
1.39 1.34 1.24 1.13 1.07 1.02 0.93 1.00 1.09 1.07 1.05 0.89 0.94 0.93 0.95 1.26 1.42 1.22 1.28 1.30 1.27 1.27 1.25 1.21 1.16 1.14 1.05 0.84 0.88 0.91 0.75 0.82 1.20 1.68 1.66 1.56 1.72 2.00 2.26 2.08 1.76 1.52 1.43
1.75 1.54 1.58 1.49 1.36 1.49 1.54 1.41 1.41 1.45 1.50 1.33 1.42 1.46 1.52 1.69 1.70 1.66 1.76 1.62 1.57 1.51 1.48 1.58 1.37 1.14 1.09 1.06 1.01 0.99 0.92 0.94 1.15 1.40 1.52 1.59 1.82 2.15 2.39 2.24 2.00 1.83 1.78
2.26 2.04 1.95 1.96 1.88 1.93 2.16 1.97 1.76 1.66 1.69 1.70 1.79 1.75 2.04 2.13 2.09 2.07 2.14 2.03 2.00 1.98 2.02 1.91 1.78 1.58 1.44 1.31 1.18 1.19 1.18 1.13 1.20 1.42 1.59 1.63 1.77 2.15 2.47 2.44 2.26 2.05 2.00
2.51 2.44 2.19 2.20 2.26 2.41 2.59 2.40 2.18 2.23 2.02 1.95 2.14 2.14 2.31 2.39 2.36 2.43 2.32 2.27 2.15 2.13 2.11 2.01 1.92 1.93 1.82 1.64 1.40 1.38 1.43 1.35 1.38 1.57 1.63 1.67 1.73 2.03 2.45 2.68 2.60 2.41 2.39
2.44 2.56 2.63 2.54 2.57 2.46 2.55 2.53 2.29 2.19 2.29 2.16 2.16 2.24 2.27 2.41 2.62 2.69 2.64 2.55 2.47 2.42 2.49 2.32 2.10 2.26 2.11 2.01 1.81 1.73 1.69 1.72 1.67 1.75 1.96 1.97 1.78 1.81 2.14 2.55 2.75 2.76 2.79
2.36 2.41 2.55 2.59 2.69 2.64 2.60 2.62 2.49 2.34 2.34 2.42 2.50 2.59 2.46 2.45 2.71 2.79 2.95 2.86 2.78 2.73 2.74 2.68 2.56 2.62 2.39 2.25 2.09 1.98 1.94 2.03 2.02 1.95 2.10 2.24 2.02 1.97 1.99 2.15 2.41 2.65 2.84
1.99 2.17 2.37 2.52 2.63 2.86 2.95 3.04 2.89 2.95 2.93 2.89 2.77 2.75 2.63 2.62 2.84 3.12 3.20 3.14 3.13 3.02 3.07 3.16 3.11 2.91 2.76 2.58 2.38 2.11 2.03 2.16 2.18 2.16 2.19 2.32 2.46 2.29 2.18 2.08 2.16 2.35 2.64
1.79 2.15 2.43 2.66 2.91 3.09 3.32 3.54 3.48 3.58 3.45 3.33 3.26 3.16 3.20 3.30 3.32 3.48 3.56 3.57 3.54 3.55 3.53 3.36 3.52 3.34 3.26 3.06 2.64 2.41 2.16 2.09 2.19 2.12 2.18 2.18 2.33 2.38 2.39 2.27 2.18 2.24 2.47
1.91 2.23 2.54 2.81 3.22 3.63 3.72 3.87 3.81 3.97 3.98 3.97 4.08 3.96 3.79 3.88 3.97 4.07 4.00 4.01 4.01 4.04 3.89 3.85 3.89 3.66 3.44 3.38 2.93 2.66 2.44 2.19 2.19 2.17 2.16 2.25 2.23 2.10 2.18 2.27 2.39 2.20 2.35
2.45 2.57 2.75 3.01 3.32 3.54 3.86 4.16 4.32 4.41 4.59 4.66 4.66 4.72 4.73 4.74 4.88 4.92 4.73 4.66 4.53 4.40 4.21 4.13 3.98 3.76 3.50 3.45 3.31 2.86 2.31 2.00 1.96 1.88 1.92 2.11 2.15 2.06 2.09 2.15 2.24 2.19 2.07
2.81 2.83 3.05 3.37 3.67 3.83 4.22 4.69 5.08 5.20 5.28 5.31 5.28 5.43 5.54 5.57 5.70 5.75 5.69 5.49 5.28 5.00 4.53 4.17 4.01 3.80 3.46 3.53 3.49 3.36 2.70 2.24 1.84 1.51 1.60 1.68 1.76 1.93 1.90 1.89 2.00 2.14 2.07
2.78 2.88 3.05 3.48 3.94 4.38 4.85 5.36 5.79 6.01 6.05 5.94 5.65 5.72 5.85 5.77 5.82 5.97 5.93 5.71 5.37 4.83 4.30 4.12 4.04 3.91 3.70 3.62 3.48 3.57 3.07 2.58 2.18 1.71 1.49 1.40 1.49 1.57 1.58 1.63 1.70 1.84 1.83
2.66 2.89 3.08 3.45 4.10 4.60 4.97 5.59 6.19 6.45 6.65 6.77 6.55 6.22 5.97 5.73 5.60 5.49 5.30 4.90 4.51 4.17 3.88 3.77 3.81 3.67 3.65 3.51 3.42 3.14 2.92 2.64 2.38 1.98 1.59 1.40 1.40 1.42 1.43 1.39 1.47 1.69 1.78
2.50 2.62 2.85 3.38 3.98 4.65 5.28 5.82 6.35 6.78 6.97 6.95 6.56 6.13 5.61 5.22 4.80 4.43 4.06 3.79 3.70 3.52 3.32 3.22 3.20 3.12 2.99 2.92 2.92 2.89 2.84 2.58 2.26 2.05 1.78 1.57 1.55 1.44 1.43 1.47 1.54 1.63 1.73
2.13 2.33 2.59 3.02 3.77 4.49 5.09 5.69 6.15 6.54 6.57 6.25 5.73 5.23 4.91 4.53 4.04 3.56 3.30 3.07 2.94 2.76 2.56 2.44 2.43 2.46 2.54 2.59 2.64 2.64 2.59 2.56 2.40 2.31 2.13 1.88 1.75 1.69 1.61 1.55 1.61 1.70 1.85

GEFSSE_prec_meanprecacc_222.txt.gz
Total_Precipitation_Accumulation
0.21 0.11 0.10 0.10 0.13 0.13 0.14 0.18 0.20 0.21 0.20 0.19 0.18 0.18 0.20 0.20 0.19 0.17 0.16 0.21 0.25 0.31 0.34 0.39 0.42 0.41 0.41 0.40 0.36 0.32 0.32 0.35 0.41 0.42 0.47 0.54 0.59 0.61 0.64 0.67 0.78 0.71 0.65
0.19 0.14 0.11 0.09 0.10 0.12 0.13 0.17 0.20 0.21 0.21 0.24 0.23 0.24 0.24 0.20 0.17 0.16 0.16 0.23 0.32 0.37 0.35 0.37 0.37 0.35 0.37 0.33 0.29 0.28 0.28 0.33 0.44 0.53 0.61 0.63 0.71 0.73 0.71 0.70 0.86 1.06 0.82
0.21 0.23 0.11 0.10 0.10 0.11 0.13 0.16 0.19 0.18 0.20 0.22 0.23 0.24 0.21 0.18 0.19 0.20 0.20 0.25 0.33 0.36 0.35 0.32 0.30 0.32 0.34 0.33 0.28 0.27 0.30 0.39 0.52 0.72 1.09 1.04 0.86 0.81 0.80 0.77 0.71 0.69 0.62
0.20 0.19 0.13 0.11 0.12 0.13 0.13 0.17 0.22 0.21 0.20 0.20 0.22 0.22 0.21 0.22 0.23 0.25 0.26 0.29 0.34 0.37 0.38 0.38 0.36 0.33 0.34 0.34 0.31 0.28 0.32 0.43 0.65 0.97 1.61 1.46 1.15 1.17 1.10 0.93 0.72 0.61 0.54
0.18 0.16 0.16 0.16 0.17 0.18 0.17 0.17 0.23 0.24 0.25 0.25 0.25 0.24 0.25 0.27 0.28 0.29 0.32 0.35 0.38 0.41 0.44 0.46 0.45 0.40 0.37 0.37 0.36 0.37 0.45 0.58 0.83 1.25 1.88 1.80 1.68 1.59 1.24 0.96 0.82 0.74 0.66
0.22 0.16 0.18 0.20 0.21 0.22 0.21 0.21 0.23 0.24 0.28 0.32 0.32 0.31 0.31 0.32 0.32 0.33 0.38 0.42 0.45 0.48 0.52 0.55 0.54 0.46 0.41 0.41 0.44 0.49 0.58 0.75 0.95 1.35 1.98 1.96 1.83 1.68 1.29 1.10 0.92 0.82 0.74
0.38 0.31 0.24 0.23 0.22 0.22 0.24 0.29 0.33 0.31 0.32 0.36 0.36 0.34 0.34 0.36 0.36 0.38 0.41 0.44 0.49 0.51 0.52 0.49 0.48 0.44 0.43 0.45 0.47 0.53 0.69 0.96 1.16 1.71 2.07 2.03 2.08 1.72 1.39 1.30 1.16 0.98 0.80
0.52 0.45 0.39 0.31 0.23 0.26 0.33 0.35 0.41 0.45 0.44 0.43 0.42 0.42 0.43 0.41 0.42 0.45 0.47 0.51 0.58 0.64 0.64 0.54 0.48 0.46 0.46 0.46 0.47 0.56 0.72 0.88 1.01 1.61 2.02 1.97 1.79 1.57 1.50 1.44 1.28 1.08 0.89
0.66 0.65 0.58 0.44 0.37 0.40 0.45 0.46 0.50 0.53 0.52 0.51 0.53 0.54 0.54 0.53 0.52 0.52 0.53 0.58 0.63 0.67 0.66 0.62 0.60 0.58 0.56 0.54 0.54 0.59 0.70 0.94 1.13 1.41 1.55 1.91 1.78 1.81 1.69 1.48 1.25 1.06 0.94
0.92 0.93 0.86 0.83 0.77 0.66 0.65 0.71 0.68 0.69 0.64 0.55 0.53 0.57 0.58 0.54 0.53 0.57 0.55 0.62 0.68 0.70 0.68 0.71 0.79 0.79 0.73 0.64 0.61 0.65 0.76 0.87 0.86 1.21 1.78 1.79 1.74 1.95 1.97 1.64 1.36 1.17 1.04
1.26 1.20 1.05 1.09 1.07 0.93 0.88 0.83 0.89 0.88 0.81 0.72 0.64 0.66 0.63 0.72 0.81 0.82 0.74 0.86 0.91 0.95 0.99 1.01 0.99 0.96 0.97 0.86 0.81 0.83 0.86 0.82 1.00 1.48 1.93 1.70 1.76 2.03 2.13 1.93 1.61 1.39 1.25
1.48 1.38 1.29 1.17 1.11 1.05 0.96 1.04 1.13 1.10 1.07 0.91 0.96 0.95 0.98 1.31 1.47 1.26 1.34 1.36 1.33 1.32 1.29 1.25 1.21 1.19 1.10 0.90 0.93 0.98 0.80 0.88 1.27 1.73 1.70 1.62 1.81 2.11 2.36 2.17 1.84 1.59 1.50
1.82 1.60 1.63 1.53 1.41 1.53 1.59 1.46 1.46 1.49 1.54 1.35 1.44 1.50 1.56 1.73 1.75 1.72 1.83 1.68 1.63 1.57 1.55 1.65 1.43 1.19 1.15 1.12 1.06 1.04 0.96 0.99 1.21 1.45 1.55 1.64 1.90 2.24 2.48 2.33 2.06 1.88 1.84
2.33 2.10 2.00 2.02 1.93 1.99 2.22 2.02 1.81 1.69 1.73 1.73 1.84 1.79 2.08 2.17 2.15 2.13 2.20 2.09 2.06 2.03 2.08 1.97 1.84 1.64 1.52 1.38 1.24 1.23 1.22 1.18 1.26 1.47 1.63 1.67 1.83 2.23 2.56 2.52 2.32 2.11 2.05
2.54 2.48 2.23 2.24 2.31 2.47 2.65 2.45 2.23 2.27 2.07 1.99 2.19 2.18 2.35 2.44 2.43 2.50 2.38 2.32 2.20 2.17 2.15 2.05 1.97 1.98 1.88 1.70 1.46 1.43 1.49 1.41 1.44 1.62 1.67 1.71 1.78 2.09 2.53 2.75 2.66 2.46 2.43
2.46 2.59 2.66 2.57 2.61 2.52 2.62 2.59 2.35 2.23 2.34 2.21 2.22 2.29 2.32 2.46 2.69 2.75 2.69 2.61 2.52 2.45 2.51 2.36 2.15 2.32 2.15 2.05 1.86 1.78 1.74 1.78 1.73 1.81 2.01 2.02 1.83 1.87 2.21 2.61 2.79 2.81 2.83
2.38 2.43 2.58 2.62 2.72 2.70 2.67 2.67 2.54 2.39 2.39 2.48 2.57 2.66 2.52 2.50 2.77 2.87 3.02 2.92 2.83 2.76 2.78 2.72 2.61 2.68 2.44 2.29 2.13 2.02 2.00 2.08 2.08 2.00 2.16 2.30 2.08 2.03 2.04 2.20 2.45 2.68 2.87
2.01 2.20 2.39 2.55 2.66 2.91 3.02 3.12 2.95 3.01 2.98 2.94 2.82 2.81 2.69 2.69 2.90 3.19 3.26 3.19 3.19 3.07 3.12 3.22 3.16 2.97 2.84 2.65 2.45 2.16 2.08 2.22 2.24 2.22 2.24 2.38 2.52 2.34 2.23 2.12 2.20 2.37 2.67
1.80 2.17 2.46 2.70 2.95 3.14 3.39 3.61 3.54 3.63 3.49 3.37 3.30 3.20 3.25 3.38 3.41 3.56 3.64 3.64 3.60 3.60 3.58 3.41 3.59 3.42 3.34 3.15 2.72 2.46 2.21 2.15 2.23 2.16 2.24 2.24 2.38 2.42 2.44 2.33 2.23 2.28 2.50
1.94 2.26 2.58 2.84 3.27 3.69 3.78 3.94 3.87 4.02 4.03 4.01 4.12 4.00 3.83 3.93 4.03 4.17 4.10 4.10 4.10 4.11 3.95 3.92 3.95 3.74 3.53 3.48 3.01 2.73 2.50 2.25 2.24 2.23 2.22 2.32 2.27 2.14 2.22 2.33 2.45 2.25 2.40
2.49 2.61 2.80 3.05 3.36 3.58 3.91 4.22 4.37 4.45 4.63 4.70 4.70 4.76 4.78 4.79 4.92 4.96 4.78 4.74 4.62 4.48 4.29 4.20 4.05 3.84 3.58 3.54 3.40 2.94 2.39 2.07 2.03 1.95 2.00 2.20 2.21 2.12 2.14 2.20 2.28 2.23 2.10
2.86 2.88 3.09 3.42 3.72 3.89 4.28 4.77 5.14 5.26 5.33 5.36 5.33 5.49 5.60 5.62 5.75 5.79 5.74 5.54 5.35 5.08 4.62 4.24 4.08 3.86 3.51 3.60 3.57 3.45 2.78 2.32 1.91 1.58 1.68 1.75 1.83 2.00 1.96 1.92 2.03 2.18 2.10
2.84 2.93 3.10 3.53 3.98 4.42 4.91 5.46 5.89 6.09 6.12 6.00 5.72 5.79 5.91 5.81 5.86 6.00 5.98 5.77 5.44 4.89 4.37 4.20 4.13 3.99 3.77 3.68 3.56 3.65 3.15 2.65 2.24 1.78 1.55 1.46 1.56 1.66 1.66 1.69 1.74 1.87 1.87
2.72 2.94 3.13 3.50 4.14 4.64 5.01 5.67 6.28 6.54 6.72 6.83 6.61 6.29 6.04 5.79 5.64 5.53 5.35 4.97 4.60 4.24 3.96 3.84 3.88 3.74 3.72 3.58 3.50 3.22 2.99 2.72 2.46 2.05 1.65 1.45 1.47 1.50 1.51 1.46 1.51 1.72 1.80
2.58 2.70 2.92 3.42 4.02 4.70 5.33 5.88 6.42 6.84 7.03 7.01 6.62 6.19 5.68 5.30 4.87 4.48 4.13 3.88 3.80 3.61 3.40 3.28 3.27 3.19 3.05 2.98 2.99 2.97 2.92 2.67 2.35 2.12 1.84 1.62 1.60 1.48 1.48 1.54 1.60 1.67 1.77
2.18 2.40 2.70 3.10 3.82 4.53 5.14 5.75 6.22 6.60 6.64 6.31 5.80 5.31 4.97 4.59 4.10 3.62 3.37 3.15 3.02 2.85 2.64 2.51 2.50 2.52 2.61 2.66 2.71 2.71 2.67 2.64 2.47 2.39 2.19 1.93 1.80 1.73 1.65 1.61 1.66 1.74 1.89

GEFSSE_prec_meanprecacc_228.txt.gz
Total_Precipitation_Accumulation
0.26 0.17 0.18 0.16 0.15 0.14 0.14 0.18 0.20 0.21 0.20 0.19 0.19 0.19 0.21 0.21 0.20 0.18 0.19 0.25 0.28 0.32 0.35 0.41 0.44 0.43 0.45 0.45 0.41 0.39 0.40 0.43 0.52 0.58 0.64 0.67 0.74 0.77 0.81 0.82 0.91 0.78 0.73
0.22 0.17 0.16 0.13 0.13 0.14 0.14 0.17 0.21 0.21 0.22 0.24 0.23 0.24 0.24 0.21 0.18 0.17 0.18 0.25 0.34 0.39 0.37 0.39 0.40 0.37 0.39 0.37 0.34 0.34 0.35 0.41 0.52 0.63 0.73 0.77 0.86 0.88 0.90 0.85 0.99 1.16 0.89
0.24 0.25 0.14 0.14 0.13 0.12 0.14 0.17 0.19 0.18 0.20 0.22 0.24 0.24 0.21 0.19 0.19 0.21 0.21 0.26 0.35 0.39 0.38 0.34 0.33 0.34 0.37 0.35 0.32 0.32 0.35 0.45 0.60 0.80 1.17 1.11 0.95 0.94 0.96 0.93 0.84 0.79 0.69
0.22 0.22 0.15 0.16 0.18 0.16 0.15 0.18 0.24 0.22 0.21 0.21 0.22 0.22 0.22 0.22 0.24 0.26 0.27 0.31 0.36 0.41 0.43 0.43 0.40 0.36 0.36 0.37 0.33 0.32 0.37 0.48 0.72 1.03 1.66 1.53 1.22 1.30 1.25 1.06 0.84 0.71 0.62
0.19 0.18 0.19 0.21 0.23 0.24 0.20 0.19 0.24 0.25 0.26 0.27 0.27 0.25 0.26 0.28 0.29 0.30 0.34 0.37 0.40 0.44 0.50 0.53 0.51 0.44 0.40 0.40 0.39 0.40 0.48 0.62 0.89 1.30 1.92 1.86 1.75 1.76 1.39 1.07 0.91 0.82 0.74
0.23 0.17 0.20 0.23 0.25 0.26 0.24 0.24 0.24 0.26 0.30 0.33 0.33 0.33 0.33 0.33 0.34 0.35 0.40 0.44 0.47 0.50 0.55 0.59 0.58 0.52 0.46 0.45 0.48 0.53 0.62 0.80 0.99 1.39 2.03 2.01 1.89 1.82 1.46 1.22 1.01 0.90 0.82
0.40 0.33 0.25 0.24 0.24 0.24 0.26 0.31 0.34 0.31 0.32 0.37 0.37 0.36 0.37 0.37 0.38 0.40 0.43 0.46 0.52 0.54 0.54 0.51 0.51 0.48 0.48 0.49 0.51 0.56 0.73 1.01 1.21 1.75 2.12 2.08 2.15 1.83 1.52 1.42 1.26 1.07 0.87
0.55 0.48 0.42 0.32 0.25 0.28 0.35 0.36 0.42 0.46 0.45 0.44 0.43 0.43 0.45 0.44 0.44 0.47 0.49 0.53 0.60 0.67 0.67 0.56 0.51 0.49 0.49 0.50 0.51 0.59 0.75 0.91 1.04 1.65 2.07 2.03 1.87 1.66 1.60 1.54 1.36 1.16 0.98
0.71 0.72 0.67 0.47 0.39 0.42 0.48 0.49 0.53 0.55 0.53 0.52 0.54 0.56 0.57 0.56 0.54 0.54 0.55 0.60 0.66 0.70 0.70 0.65 0.63 0.61 0.59 0.57 0.56 0.63 0.74 0.99 1.17 1.46 1.59 1.96 1.83 1.88 1.79 1.56 1.32 1.11 1.00
1.01 1.04 0.96 0.87 0.80 0.68 0.67 0.73 0.71 0.72 0.65 0.57 0.54 0.59 0.60 0.58 0.55 0.59 0.57 0.65 0.71 0.74 0.71 0.75 0.83 0.83 0.78 0.68 0.64 0.69 0.80 0.92 0.90 1.25 1.81 1.86 1.81 2.03 2.06 1.73 1.45 1.24 1.10
1.36 1.32 1.14 1.15 1.12 0.98 0.91 0.86 0.91 0.90 0.83 0.73 0.66 0.68 0.66 0.75 0.83 0.83 0.77 0.89 0.95 1.00 1.04 1.06 1.05 1.01 1.03 0.91 0.85 0.88 0.91 0.85 1.03 1.50 1.96 1.77 1.87 2.12 2.22 2.01 1.69 1.46 1.31
1.53 1.44 1.38 1.26 1.18 1.12 1.00 1.07 1.17 1.12 1.09 0.92 0.97 0.98 1.01 1.33 1.49 1.29 1.37 1.40 1.38 1.37 1.35 1.31 1.27 1.25 1.17 0.94 0.97 1.03 0.83 0.90 1.29 1.76 1.73 1.66 1.88 2.21 2.48 2.28 1.92 1.66 1.56
1.85 1.64 1.69 1.60 1.47 1.59 1.63 1.51 1.51 1.52 1.56 1.37 1.46 1.52 1.59 1.76 1.78 1.75 1.87 1.72 1.66 1.61 1.58 1.69 1.49 1.26 1.21 1.17 1.10 1.08 0.99 1.03 1.24 1.47 1.58 1.68 1.95 2.33 2.60 2.44 2.14 1.96 1.91
2.36 2.12 2.03 2.06 1.97 2.04 2.26 2.06 1.84 1.73 1.76 1.75 1.86 1.81 2.11 2.21 2.18 2.15 2.23 2.12 2.09 2.06 2.11 2.00 1.89 1.68 1.57 1.45 1.30 1.28 1.26 1.21 1.29 1.50 1.66 1.73 1.88 2.29 2.66 2.63 2.42 2.18 2.12
2.56 2.49 2.24 2.27 2.36 2.53 2.71 2.50 2.26 2.30 2.10 2.02 2.21 2.20 2.38 2.46 2.46 2.53 2.41 2.36 2.23 2.20 2.18 2.09 2.00 2.01 1.92 1.75 1.52 1.48 1.53 1.45 1.47 1.65 1.70 1.76 1.83 2.13 2.58 2.85 2.76 2.56 2.52
2.48 2.61 2.68 2.60 2.66 2.61 2.72 2.69 2.43 2.29 2.39 2.25 2.26 2.31 2.34 2.49 2.72 2.79 2.73 2.65 2.56 2.48 2.54 2.39 2.19 2.35 2.19 2.09 1.89 1.82 1.77 1.81 1.77 1.84 2.02 2.04 1.87 1.90 2.25 2.67 2.89 2.90 2.93
2.39 2.45 2.59 2.65 2.77 2.76 2.77 2.80 2.65 2.47 2.46 2.55 2.62 2.69 2.55 2.52 2.80 2.90 3.05 2.95 2.86 2.80 2.81 2.75 2.64 2.70 2.47 2.32 2.15 2.05 2.03 2.11 2.11 2.03 2.18 2.31 2.10 2.06 2.08 2.24 2.51 2.75 2.96
2.02 2.21 2.41 2.58 2.70 2.96 3.10 3.21 3.05 3.10 3.07 3.01 2.87 2.84 2.72 2.71 2.93 3.22 3.30 3.23 3.24 3.12 3.17 3.27 3.21 3.01 2.86 2.69 2.49 2.18 2.11 2.25 2.27 2.25 2.27 2.39 2.53 2.36 2.25 2.15 2.24 2.42 2.71
1.82 2.20 2.49 2.75 3.01 3.21 3.44 3.69 3.65 3.74 3.59 3.44 3.36 3.25 3.30 3.41 3.44 3.60 3.68 3.69 3.65 3.65 3.64 3.48 3.65 3.46 3.37 3.18 2.77 2.51 2.24 2.18 2.26 2.20 2.27 2.27 2.41 2.43 2.44 2.33 2.25 2.31 2.54
1.99 2.31 2.64 2.91 3.33 3.78 3.85 4.01 4.01 4.20 4.16 4.11 4.19 4.06 3.90 3.99 4.07 4.20 4.14 4.16 4.15 4.16 4.01 3.98 4.00 3.78 3.56 3.50 3.07 2.80 2.55 2.28 2.27 2.26 2.26 2.36 2.31 2.16 2.24 2.34 2.45 2.27 2.44
2.56 2.70 2.90 3.14 3.43 3.64 3.97 4.29 4.47 4.59 4.74 4.79 4.78 4.82 4.84 4.86 4.97 4.99 4.80 4.77 4.65 4.53 4.33 4.24 4.08 3.87 3.62 3.58 3.45 3.01 2.45 2.11 2.07 1.99 2.04 2.23 2.25 2.14 2.16 2.22 2.29 2.24 2.12
2.94 2.98 3.18 3.50 3.78 3.93 4.32 4.81 5.20 5.34 5.40 5.42 5.41 5.55 5.65 5.68 5.81 5.83 5.78 5.56 5.38 5.11 4.64 4.27 4.11 3.88 3.54 3.63 3.62 3.53 2.85 2.38 1.96 1.62 1.72 1.79 1.87 2.03 1.99 1.95 2.06 2.21 2.12
2.88 3.00 3.16 3.59 4.03 4.46 4.95 5.49 5.91 6.12 6.17 6.05 5.77 5.84 5.97 5.89 5.95 6.08 6.03 5.81 5.48 4.93 4.40 4.23 4.16 4.01 3.79 3.71 3.59 3.73 3.22 2.70 2.29 1.82 1.59 1.50 1.60 1.70 1.70 1.72 1.77 1.90 1.90
2.76 2.99 3.19 3.56 4.19 4.68 5.05 5.70 6.31 6.57 6.78 6.88 6.65 6.33 6.10 5.85 5.73 5.62 5.45 5.06 4.67 4.31 4.01 3.88 3.91 3.77 3.75 3.60 3.52 3.26 3.03 2.75 2.49 2.09 1.69 1.49 1.51 1.54 1.55 1.51 1.55 1.75 1.84
2.64 2.76 3.00 3.51 4.08 4.74 5.36 5.91 6.45 6.89 7.12 7.08 6.66 6.23 5.72 5.35 4.93 4.54 4.19 3.97 3.89 3.69 3.46 3.33 3.31 3.22 3.08 3.00 3.01 2.99 2.95 2.71 2.39 2.15 1.87 1.66 1.63 1.51 1.52 1.59 1.65 1.72 1.81
2.26 2.49 2.82 3.24 3.92 4.60 5.18 5.78 6.24 6.62 6.68 6.36 5.84 5.33 4.99 4.63 4.17 3.68 3.41 3.18 3.06 2.88 2.67 2.53 2.51 2.53 2.62 2.67 2.73 2.73 2.70 2.67 2.51 2.43 2.22 1.96 1.84 1.75 1.68 1.64 1.70 1.79 1.94

GEFSSE_prec_meanprecacc_234.txt.gz
Total_Precipitation_Accumulation
0.28 0.20 0.23 0.22 0.17 0.16 0.17 0.22 0.24 0.23 0.21 0.20 0.20 0.20 0.22 0.24 0.23 0.22 0.23 0.29 0.31 0.34 0.37 0.43 0.47 0.47 0.50 0.51 0.47 0.46 0.49 0.54 0.66 0.72 0.77 0.78 0.83 0.85 0.91 0.99 1.10 0.96 0.89
0.23 0.20 0.18 0.15 0.14 0.15 0.15 0.20 0.23 0.23 0.23 0.25 0.25 0.25 0.26 0.23 0.20 0.20 0.21 0.28 0.39 0.40 0.38 0.40 0.42 0.40 0.43 0.41 0.40 0.42 0.44 0.51 0.63 0.75 0.88 0.92 0.99 0.99 1.03 1.04 1.19 1.30 1.02
0.26 0.28 0.16 0.15 0.15 0.14 0.15 0.20 0.22 0.20 0.22 0.23 0.25 0.25 0.23 0.21 0.22 0.24 0.24 0.30 0.39 0.42 0.41 0.36 0.35 0.38 0.40 0.40 0.37 0.39 0.44 0.55 0.70 0.91 1.26 1.19 1.04 1.05 1.12 1.13 1.02 0.96 0.81
0.24 0.24 0.17 0.18 0.20 0.18 0.17 0.21 0.27 0.24 0.23 0.23 0.24 0.23 0.23 0.23 0.26 0.29 0.30 0.33 0.39 0.45 0.48 0.47 0.44 0.41 0.41 0.41 0.39 0.39 0.45 0.57 0.82 1.11 1.71 1.57 1.28 1.44 1.44 1.25 1.01 0.87 0.75
0.21 0.20 0.23 0.25 0.26 0.26 0.23 0.21 0.27 0.28 0.28 0.28 0.29 0.26 0.28 0.30 0.30 0.32 0.36 0.39 0.42 0.48 0.55 0.59 0.57 0.49 0.45 0.45 0.45 0.47 0.56 0.70 0.97 1.36 1.96 1.90 1.82 1.91 1.58 1.25 1.05 0.95 0.85
0.25 0.19 0.23 0.29 0.28 0.29 0.27 0.26 0.26 0.28 0.31 0.34 0.35 0.34 0.34 0.35 0.35 0.36 0.41 0.46 0.50 0.53 0.58 0.63 0.64 0.57 0.51 0.50 0.54 0.60 0.69 0.87 1.06 1.44 2.07 2.05 1.95 1.94 1.60 1.36 1.13 1.00 0.91
0.43 0.36 0.29 0.29 0.28 0.28 0.29 0.34 0.36 0.33 0.34 0.38 0.38 0.37 0.39 0.40 0.40 0.43 0.46 0.49 0.54 0.56 0.57 0.55 0.55 0.52 0.52 0.55 0.57 0.62 0.79 1.07 1.26 1.79 2.15 2.11 2.21 1.92 1.62 1.53 1.36 1.17 0.96
0.57 0.51 0.46 0.37 0.29 0.33 0.38 0.38 0.44 0.48 0.47 0.45 0.44 0.45 0.48 0.47 0.46 0.49 0.52 0.56 0.63 0.70 0.70 0.61 0.57 0.54 0.53 0.55 0.56 0.64 0.80 0.96 1.07 1.67 2.10 2.07 1.93 1.74 1.69 1.62 1.44 1.24 1.05
0.74 0.75 0.72 0.52 0.45 0.48 0.53 0.52 0.56 0.58 0.55 0.54 0.55 0.58 0.59 0.59 0.59 0.58 0.59 0.64 0.69 0.73 0.73 0.70 0.70 0.66 0.64 0.61 0.61 0.69 0.81 1.05 1.22 1.48 1.61 1.99 1.87 1.94 1.87 1.63 1.38 1.18 1.07
1.05 1.06 0.99 0.93 0.86 0.76 0.77 0.79 0.75 0.75 0.69 0.60 0.57 0.62 0.63 0.61 0.60 0.65 0.62 0.69 0.75 0.77 0.75 0.80 0.90 0.90 0.84 0.73 0.70 0.76 0.89 1.00 0.94 1.27 1.83 1.88 1.85 2.08 2.12 1.79 1.51 1.30 1.15
1.39 1.35 1.16 1.18 1.16 1.05 1.01 0.92 0.95 0.94 0.88 0.78 0.69 0.71 0.69 0.78 0.88 0.88 0.82 0.94 1.00 1.05 1.09 1.11 1.10 1.08 1.10 0.98 0.91 0.95 0.97 0.88 1.06 1.53 1.99 1.81 1.92 2.18 2.29 2.07 1.75 1.53 1.37
1.55 1.46 1.40 1.29 1.22 1.18 1.07 1.12 1.20 1.15 1.13 0.97 1.02 1.01 1.03 1.36 1.54 1.33 1.42 1.46 1.44 1.44 1.41 1.37 1.33 1.33 1.24 0.99 1.02 1.09 0.88 0.94 1.33 1.79 1.77 1.72 1.96 2.30 2.55 2.35 1.99 1.72 1.63
1.86 1.65 1.71 1.62 1.49 1.63 1.67 1.55 1.55 1.55 1.59 1.40 1.50 1.58 1.64 1.80 1.82 1.80 1.90 1.76 1.72 1.67 1.63 1.74 1.55 1.30 1.24 1.19 1.13 1.13 1.03 1.05 1.26 1.50 1.61 1.75 2.03 2.44 2.71 2.52 2.23 2.04 1.99
2.37 2.13 2.04 2.08 1.99 2.07 2.29 2.09 1.88 1.76 1.79 1.78 1.89 1.85 2.14 2.24 2.21 2.18 2.26 2.16 2.13 2.10 2.14 2.03 1.92 1.70 1.59 1.46 1.31 1.31 1.30 1.25 1.31 1.52 1.68 1.77 1.94 2.37 2.75 2.71 2.51 2.27 2.21
2.58 2.51 2.25 2.29 2.37 2.55 2.74 2.53 2.30 2.33 2.12 2.05 2.24 2.24 2.40 2.48 2.48 2.56 2.45 2.41 2.27 2.24 2.21 2.11 2.03 2.04 1.95 1.77 1.53 1.50 1.57 1.49 1.51 1.67 1.73 1.81 1.90 2.19 2.64 2.91 2.82 2.63 2.59
2.51 2.63 2.70 2.62 2.67 2.62 2.74 2.71 2.46 2.33 2.42 2.29 2.29 2.35 2.37 2.51 2.74 2.81 2.76 2.69 2.61 2.53 2.57 2.41 2.21 2.39 2.24 2.14 1.93 1.85 1.80 1.84 1.80 1.87 2.05 2.08 1.93 1.97 2.30 2.71 2.94 2.96 2.99
2.41 2.46 2.62 2.69 2.81 2.79 2.80 2.83 2.68 2.51 2.51 2.60 2.67 2.73 2.59 2.55 2.82 2.92 3.06 2.97 2.89 2.83 2.85 2.79 2.67 2.73 2.50 2.37 2.19 2.08 2.06 2.14 2.14 2.06 2.20 2.34 2.14 2.12 2.13 2.28 2.54 2.79 3.01
2.04 2.23 2.43 2.62 2.75 3.02 3.14 3.24 3.08 3.14 3.13 3.07 2.92 2.88 2.76 2.76 2.97 3.25 3.31 3.24 3.25 3.14 3.19 3.30 3.24 3.05 2.90 2.72 2.51 2.21 2.13 2.27 2.30 2.27 2.30 2.42 2.55 2.39 2.29 2.18 2.27 2.45 2.75
1.84 2.22 2.52 2.79 3.07 3.28 3.52 3.75 3.71 3.79 3.65 3.51 3.42 3.30 3.33 3.46 3.49 3.64 3.72 3.72 3.69 3.69 3.66 3.50 3.67 3.49 3.40 3.20 2.79 2.52 2.26 2.20 2.27 2.21 2.29 2.29 2.42 2.45 2.47 2.36 2.28 2.35 2.59
2.01 2.35 2.69 2.95 3.39 3.84 3.92 4.08 4.09 4.28 4.24 4.19 4.25 4.12 3.95 4.03 4.11 4.24 4.17 4.19 4.19 4.22 4.06 4.01 4.03 3.81 3.59 3.54 3.10 2.82 2.57 2.30 2.29 2.28 2.27 2.37 2.32 2.17 2.25 2.35 2.48 2.30 2.48
2.62 2.76 2.97 3.19 3.48 3.68 4.02 4.34 4.53 4.66 4.83 4.86 4.84 4.86 4.88 4.89 5.00 5.03 4.83 4.79 4.69 4.57 4.37 4.27 4.11 3.89 3.64 3.61 3.49 3.06 2.49 2.14 2.09 2.00 2.05 2.25 2.27 2.16 2.18 2.24 2.31 2.26 2.14
3.01 3.06 3.27 3.57 3.83 3.98 4.37 4.86 5.25 5.38 5.46 5.49 5.47 5.60 5.68 5.71 5.85 5.87 5.81 5.59 5.41 5.14 4.66 4.29 4.12 3.90 3.55 3.65 3.64 3.57 2.90 2.43 1.99 1.63 1.73 1.81 1.89 2.05 2.01 1.96 2.07 2.22 2.14
2.98 3.09 3.27 3.70 4.10 4.51 4.99 5.54 5.95 6.15 6.18 6.07 5.80 5.88 6.00 5.91 5.98 6.12 6.07 5.85 5.53 4.98 4.43 4.25 4.18 4.03 3.81 3.73 3.61 3.74 3.24 2.72 2.31 1.84 1.61 1.52 1.62 1.72 1.72 1.74 1.80 1.92 1.91
2.86 3.08 3.28 3.66 4.27 4.74 5.10 5.74 6.34 6.59 6.79 6.89 6.66 6.35 6.11 5.87 5.75 5.69 5.52 5.11 4.72 4.36 4.06 3.92 3.95 3.81 3.79 3.63 3.54 3.27 3.04 2.76 2.50 2.10 1.71 1.51 1.52 1.55 1.56 1.53 1.58 1.78 1.86
2.75 2.84 3.07 3.59 4.16 4.81 5.43 5.96 6.50 6.92 7.15 7.10 6.68 6.24 5.73 5.37 4.95 4.57 4.25 4.02 3.94 3.74 3.52 3.39 3.36 3.26 3.11 3.02 3.03 3.01 2.96 2.72 2.39 2.16 1.88 1.67 1.65 1.52 1.52 1.60 1.66 1.73 1.82
2.40 2.60 2.92 3.34 4.00 4.67 5.25 5.84 6.30 6.67 6.73 6.40 5.87 5.35 5.01 4.65 4.18 3.70 3.44 3.23 3.10 2.92 2.71 2.58 2.55 2.57 2.65 2.70 2.75 2.75 2.71 2.68 2.53 2.44 2.22 1.96 1.84 1.76 1.68 1.65 1.71 1.80 1.95

GEFSSE_prec_meanprecacc_240.txt.gz
Total_Precipitation_Accumulation
0.28 0.20 0.24 0.23 0.19 0.19 0.23 0.31 0.32 0.27 0.25 0.22 0.22 0.21 0.24 0.25 0.25 0.24 0.24 0.31 0.34 0.38 0.41 0.49 0.53 0.54 0.56 0.57 0.54 0.53 0.58 0.61 0.71 0.79 0.89 0.94 0.98 1.00 1.03 1.08 1.17 1.04 1.01
0.24 0.21 0.19 0.16 0.15 0.17 0.23 0.32 0.30 0.26 0.26 0.27 0.26 0.27 0.27 0.24 0.22 0.22 0.24 0.31 0.42 0.45 0.43 0.44 0.47 0.46 0.50 0.50 0.48 0.51 0.56 0.62 0.71 0.85 0.99 1.08 1.16 1.14 1.15 1.13 1.26 1.39 1.14
0.26 0.29 0.17 0.17 0.16 0.16 0.24 0.29 0.28 0.25 0.25 0.26 0.27 0.27 0.25 0.22 0.23 0.25 0.26 0.32 0.42 0.47 0.45 0.41 0.40 0.43 0.47 0.47 0.47 0.49 0.55 0.67 0.83 1.02 1.36 1.30 1.15 1.17 1.22 1.22 1.11 1.08 0.93
0.25 0.26 0.19 0.20 0.22 0.21 0.24 0.28 0.34 0.30 0.29 0.28 0.27 0.25 0.24 0.25 0.28 0.31 0.32 0.35 0.42 0.48 0.52 0.52 0.48 0.46 0.46 0.47 0.45 0.47 0.57 0.71 0.97 1.26 1.81 1.65 1.36 1.53 1.54 1.34 1.11 1.03 0.87
0.23 0.22 0.26 0.28 0.28 0.29 0.27 0.28 0.33 0.33 0.32 0.34 0.34 0.29 0.30 0.31 0.32 0.33 0.37 0.41 0.44 0.50 0.58 0.62 0.62 0.53 0.50 0.50 0.51 0.55 0.67 0.85 1.11 1.51 2.06 1.99 1.90 2.00 1.67 1.35 1.18 1.12 1.01
0.28 0.22 0.27 0.35 0.32 0.32 0.33 0.33 0.31 0.32 0.35 0.38 0.40 0.41 0.39 0.39 0.38 0.38 0.43 0.48 0.52 0.55 0.60 0.66 0.68 0.63 0.58 0.55 0.60 0.67 0.81 1.06 1.23 1.56 2.16 2.13 2.03 2.04 1.70 1.48 1.29 1.17 1.08
0.45 0.39 0.33 0.34 0.33 0.34 0.35 0.39 0.41 0.38 0.38 0.41 0.43 0.44 0.45 0.44 0.43 0.46 0.49 0.51 0.56 0.59 0.60 0.57 0.57 0.56 0.58 0.62 0.64 0.69 0.91 1.27 1.40 1.91 2.24 2.18 2.27 1.99 1.73 1.65 1.53 1.34 1.11
0.61 0.55 0.50 0.41 0.33 0.37 0.43 0.43 0.49 0.53 0.50 0.48 0.48 0.50 0.51 0.50 0.49 0.53 0.56 0.59 0.66 0.73 0.73 0.64 0.60 0.57 0.57 0.59 0.62 0.71 0.88 1.06 1.17 1.75 2.16 2.13 1.99 1.80 1.79 1.74 1.57 1.37 1.17
0.79 0.78 0.75 0.56 0.49 0.52 0.58 0.55 0.60 0.62 0.59 0.57 0.60 0.63 0.63 0.63 0.63 0.62 0.63 0.67 0.72 0.77 0.77 0.74 0.73 0.70 0.68 0.66 0.66 0.76 0.90 1.15 1.30 1.55 1.68 2.07 1.94 2.00 1.95 1.75 1.49 1.27 1.15
1.08 1.09 1.02 0.96 0.90 0.80 0.81 0.82 0.79 0.80 0.73 0.64 0.62 0.67 0.68 0.66 0.65 0.70 0.69 0.75 0.81 0.82 0.80 0.86 0.96 0.95 0.89 0.79 0.76 0.83 0.97 1.09 1.02 1.35 1.93 1.97 1.92 2.15 2.20 1.88 1.61 1.38 1.23
1.41 1.37 1.20 1.22 1.20 1.09 1.06 0.96 1.00 0.98 0.92 0.82 0.74 0.75 0.74 0.82 0.92 0.93 0.90 1.02 1.07 1.12 1.18 1.20 1.18 1.15 1.16 1.04 0.98 1.01 1.03 0.94 1.11 1.60 2.06 1.88 2.01 2.27 2.38 2.16 1.83 1.61 1.45
1.57 1.48 1.43 1.31 1.24 1.21 1.12 1.18 1.25 1.19 1.16 1.01 1.07 1.06 1.08 1.41 1.58 1.37 1.48 1.54 1.51 1.52 1.50 1.47 1.41 1.40 1.31 1.05 1.09 1.17 0.94 0.99 1.39 1.85 1.84 1.80 2.05 2.40 2.66 2.45 2.08 1.81 1.72
1.88 1.67 1.73 1.65 1.52 1.67 1.71 1.59 1.59 1.59 1.62 1.44 1.55 1.63 1.69 1.86 1.87 1.85 1.96 1.84 1.79 1.74 1.73 1.82 1.60 1.34 1.28 1.23 1.17 1.18 1.07 1.09 1.31 1.54 1.68 1.81 2.11 2.53 2.80 2.62 2.32 2.13 2.07
2.39 2.15 2.05 2.09 2.01 2.10 2.33 2.12 1.90 1.78 1.81 1.80 1.93 1.89 2.19 2.29 2.26 2.23 2.31 2.24 2.19 2.16 2.24 2.12 1.98 1.75 1.63 1.49 1.34 1.35 1.34 1.30 1.35 1.55 1.74 1.82 1.98 2.44 2.84 2.81 2.62 2.37 2.31
2.60 2.52 2.27 2.30 2.38 2.57 2.76 2.56 2.32 2.36 2.15 2.07 2.27 2.27 2.43 2.52 2.52 2.61 2.51 2.49 2.33 2.30 2.31 2.21 2.09 2.09 1.99 1.80 1.55 1.53 1.61 1.55 1.56 1.72 1.77 1.85 1.94 2.24 2.72 2.99 2.95 2.76 2.71
2.53 2.66 2.73 2.64 2.69 2.64 2.76 2.73 2.49 2.35 2.44 2.31 2.31 2.37 2.40 2.54 2.78 2.87 2.82 2.75 2.67 2.59 2.65 2.47 2.26 2.43 2.28 2.17 1.95 1.87 1.83 1.89 1.87 1.94 2.11 2.13 1.97 2.00 2.35 2.78 3.02 3.09 3.11
2.45 2.50 2.64 2.70 2.83 2.82 2.82 2.85 2.70 2.53 2.53 2.62 2.69 2.76 2.61 2.58 2.86 2.96 3.11 3.02 2.94 2.90 2.92 2.84 2.71 2.77 2.53 2.40 2.23 2.11 2.09 2.18 2.19 2.14 2.27 2.40 2.18 2.15 2.17 2.32 2.58 2.85 3.08
2.12 2.28 2.46 2.63 2.78 3.08 3.17 3.27 3.11 3.16 3.16 3.10 2.94 2.91 2.79 2.80 3.01 3.29 3.36 3.28 3.30 3.19 3.26 3.38 3.29 3.09 2.93 2.75 2.56 2.25 2.17 2.31 2.36 2.36 2.39 2.48 2.61 2.43 2.33 2.23 2.30 2.48 2.78
1.87 2.25 2.54 2.80 3.09 3.32 3.54 3.76 3.74 3.83 3.69 3.55 3.45 3.33 3.37 3.49 3.54 3.70 3.77 3.76 3.73 3.74 3.72 3.56 3.73 3.54 3.43 3.24 2.83 2.56 2.30 2.24 2.31 2.25 2.35 2.33 2.47 2.50 2.51 2.39 2.31 2.37 2.61
2.02 2.35 2.70 2.96 3.40 3.85 3.93 4.10 4.12 4.32 4.29 4.23 4.30 4.16 3.98 4.07 4.15 4.28 4.21 4.23 4.24 4.27 4.10 4.06 4.10 3.87 3.64 3.58 3.14 2.86 2.61 2.34 2.32 2.31 2.30 2.40 2.36 2.20 2.29 2.39 2.52 2.34 2.52
2.63 2.77 2.98 3.21 3.49 3.69 4.03 4.35 4.55 4.69 4.86 4.90 4.87 4.91 4.92 4.94 5.06 5.08 4.88 4.83 4.73 4.60 4.39 4.30 4.14 3.93 3.68 3.66 3.54 3.10 2.52 2.17 2.11 2.03 2.07 2.28 2.30 2.18 2.21 2.27 2.35 2.29 2.18
3.03 3.08 3.28 3.58 3.85 4.00 4.38 4.87 5.27 5.42 5.51 5.54 5.52 5.64 5.71 5.75 5.90 5.93 5.87 5.66 5.48 5.19 4.70 4.33 4.16 3.93 3.58 3.68 3.70 3.62 2.94 2.46 2.01 1.65 1.75 1.82 1.91 2.07 2.04 1.99 2.09 2.24 2.16
3.00 3.12 3.29 3.73 4.13 4.54 5.02 5.57 5.98 6.18 6.21 6.10 5.83 5.92 6.04 5.95 6.02 6.16 6.11 5.90 5.59 5.05 4.49 4.30 4.23 4.07 3.84 3.77 3.66 3.80 3.28 2.75 2.33 1.86 1.62 1.54 1.65 1.75 1.74 1.76 1.81 1.92 1.92
2.89 3.12 3.33 3.71 4.33 4.79 5.14 5.77 6.36 6.62 6.81 6.91 6.69 6.38 6.16 5.92 5.80 5.73 5.56 5.14 4.76 4.41 4.12 3.98 4.00 3.87 3.85 3.68 3.60 3.31 3.07 2.79 2.53 2.13 1.73 1.52 1.55 1.57 1.58 1.55 1.60 1.79 1.87
2.77 2.87 3.12 3.66 4.22 4.87 5.47 5.99 6.53 6.96 7.18 7.13 6.71 6.28 5.77 5.40 4.98 4.60 4.28 4.06 3.98 3.78 3.57 3.44 3.42 3.32 3.16 3.07 3.08 3.05 2.99 2.75 2.42 2.19 1.91 1.69 1.67 1.54 1.53 1.62 1.68 1.75 1.84
2.42 2.63 2.95 3.39 4.08 4.73 5.30 5.87 6.33 6.72 6.76 6.44 5.90 5.39 5.05 4.68 4.21 3.72 3.46 3.25 3.13 2.96 2.76 2.64 2.61 2.62 2.70 2.74 2.79 2.79 2.75 2.71 2.55 2.47 2.26 2.00 1.87 1.78 1.70 1.67 1.73 1.82 1.96

GEFSSE_prec_meanprecacc_246.txt.gz
Total_Precipitation_Accumulation
0.28 0.20 0.24 0.24 0.21 0.24 0.26 0.33 0.34 0.29 0.26 0.24 0.23 0.23 0.25 0.27 0.27 0.25 0.26 0.34 0.37 0.40 0.43 0.52 0.58 0.62 0.66 0.69 0.67 0.65 0.68 0.73 0.82 0.91 1.11 1.25 1.34 1.26 1.23 1.33 1.38 1.15 1.12
0.24 0.21 0.19 0.17 0.17 0.21 0.27 0.34 0.31 0.28 0.27 0.28 0.28 0.28 0.29 0.26 0.24 0.23 0.26 0.34 0.45 0.47 0.45 0.47 0.52 0.54 0.60 0.62 0.61 0.64 0.69 0.77 0.84 0.98 1.18 1.33 1.48 1.44 1.40 1.35 1.45 1.54 1.24
0.26 0.30 0.17 0.18 0.17 0.19 0.28 0.32 0.30 0.28 0.27 0.28 0.29 0.30 0.28 0.25 0.26 0.28 0.28 0.34 0.44 0.49 0.48 0.43 0.43 0.50 0.56 0.57 0.61 0.64 0.71 0.85 1.01 1.22 1.56 1.49 1.39 1.39 1.41 1.38 1.26 1.20 1.01
0.25 0.27 0.20 0.20 0.23 0.24 0.26 0.30 0.37 0.34 0.32 0.31 0.30 0.28 0.28 0.28 0.31 0.34 0.34 0.37 0.44 0.50 0.54 0.54 0.51 0.50 0.52 0.53 0.53 0.61 0.73 0.88 1.22 1.54 2.01 1.80 1.53 1.70 1.68 1.48 1.24 1.14 0.97
0.24 0.23 0.27 0.29 0.29 0.31 0.30 0.30 0.36 0.37 0.37 0.39 0.39 0.33 0.33 0.35 0.36 0.37 0.40 0.43 0.46 0.52 0.60 0.64 0.64 0.56 0.55 0.56 0.57 0.66 0.84 0.99 1.35 1.85 2.28 2.13 2.04 2.16 1.79 1.46 1.29 1.23 1.11
0.28 0.23 0.28 0.36 0.34 0.34 0.36 0.36 0.33 0.36 0.39 0.43 0.45 0.44 0.42 0.42 0.41 0.42 0.46 0.50 0.53 0.56 0.62 0.69 0.71 0.66 0.62 0.61 0.66 0.75 0.94 1.19 1.36 1.77 2.36 2.27 2.15 2.17 1.80 1.56 1.38 1.28 1.20
0.46 0.40 0.34 0.35 0.35 0.36 0.39 0.43 0.45 0.42 0.42 0.45 0.47 0.48 0.49 0.48 0.46 0.49 0.52 0.53 0.59 0.61 0.61 0.59 0.59 0.58 0.61 0.67 0.70 0.77 1.02 1.43 1.50 2.03 2.43 2.33 2.40 2.12 1.84 1.74 1.61 1.42 1.23
0.62 0.56 0.51 0.43 0.35 0.40 0.47 0.49 0.54 0.57 0.54 0.52 0.52 0.54 0.55 0.53 0.51 0.54 0.58 0.61 0.68 0.75 0.75 0.66 0.61 0.59 0.60 0.62 0.66 0.76 0.94 1.14 1.28 1.86 2.28 2.23 2.09 1.91 1.91 1.85 1.66 1.46 1.30
0.81 0.80 0.77 0.57 0.51 0.55 0.62 0.60 0.64 0.66 0.63 0.60 0.63 0.67 0.67 0.66 0.65 0.64 0.65 0.70 0.75 0.79 0.80 0.77 0.75 0.73 0.71 0.69 0.69 0.80 0.94 1.19 1.39 1.69 1.83 2.20 2.04 2.13 2.07 1.86 1.59 1.37 1.28
1.14 1.13 1.05 1.00 0.93 0.83 0.84 0.87 0.83 0.83 0.77 0.68 0.65 0.71 0.71 0.68 0.67 0.73 0.71 0.78 0.83 0.84 0.82 0.88 0.99 0.98 0.92 0.82 0.79 0.87 1.02 1.14 1.07 1.43 2.04 2.09 2.00 2.25 2.32 1.99 1.71 1.47 1.34
1.48 1.43 1.24 1.26 1.24 1.11 1.09 1.00 1.04 1.02 0.95 0.86 0.78 0.79 0.76 0.85 0.95 0.96 0.92 1.05 1.09 1.14 1.20 1.22 1.22 1.19 1.20 1.07 1.01 1.05 1.10 1.01 1.20 1.68 2.14 1.96 2.09 2.36 2.48 2.26 1.94 1.73 1.56
1.62 1.54 1.47 1.35 1.27 1.24 1.16 1.22 1.30 1.23 1.21 1.04 1.11 1.10 1.12 1.46 1.63 1.41 1.53 1.58 1.54 1.55 1.53 1.50 1.44 1.45 1.35 1.09 1.13 1.22 1.00 1.05 1.51 1.93 1.91 1.89 2.14 2.48 2.74 2.53 2.18 1.93 1.82
1.93 1.71 1.76 1.68 1.56 1.70 1.75 1.64 1.64 1.65 1.68 1.48 1.59 1.67 1.74 1.93 1.94 1.92 2.03 1.90 1.86 1.80 1.78 1.86 1.64 1.37 1.32 1.26 1.22 1.23 1.11 1.13 1.36 1.58 1.74 1.90 2.19 2.61 2.89 2.69 2.41 2.24 2.17
2.45 2.20 2.10 2.13 2.07 2.17 2.41 2.22 1.96 1.84 1.87 1.85 1.99 1.94 2.24 2.36 2.34 2.30 2.38 2.30 2.26 2.22 2.29 2.17 2.02 1.79 1.67 1.53 1.38 1.40 1.40 1.36 1.42 1.62 1.80 1.88 2.05 2.52 2.93 2.88 2.68 2.45 2.39
2.67 2.59 2.34 2.35 2.44 2.67 2.88 2.75 2.47 2.42 2.19 2.11 2.32 2.33 2.48 2.57 2.58 2.66 2.58 2.57 2.40 2.36 2.37 2.26 2.15 2.16 2.07 1.86 1.60 1.57 1.66 1.62 1.65 1.82 1.83 1.91 1.99 2.31 2.80 3.08 3.03 2.83 2.78
2.58 2.72 2.80 2.70 2.75 2.70 2.83 2.82 2.61 2.43 2.52 2.38 2.37 2.42 2.46 2.60 2.83 2.92 2.87 2.80 2.71 2.64 2.71 2.54 2.33 2.54 2.38 2.24 2.01 1.95 1.90 1.97 1.95 2.00 2.17 2.20 2.03 2.06 2.42 2.87 3.12 3.19 3.19
2.51 2.58 2.74 2.78 2.89 2.88 2.88 2.91 2.76 2.59 2.58 2.67 2.75 2.86 2.70 2.65 2.92 3.02 3.16 3.07 2.99 2.94 2.99 2.92 2.81 2.88 2.61 2.45 2.28 2.19 2.18 2.28 2.27 2.20 2.33 2.46 2.25 2.21 2.23 2.40 2.67 2.91 3.15
2.17 2.40 2.61 2.77 2.87 3.14 3.23 3.32 3.14 3.20 3.20 3.13 2.98 2.96 2.85 2.86 3.08 3.36 3.43 3.36 3.36 3.26 3.34 3.45 3.37 3.17 3.02 2.82 2.61 2.31 2.23 2.41 2.48 2.47 2.48 2.54 2.66 2.48 2.38 2.27 2.35 2.52 2.82
1.90 2.32 2.65 2.93 3.20 3.39 3.59 3.80 3.76 3.86 3.73 3.60 3.51 3.39 3.43 3.54 3.59 3.77 3.85 3.83 3.81 3.84 3.80 3.63 3.80 3.59 3.49 3.30 2.88 2.60 2.34 2.28 2.36 2.33 2.46 2.43 2.53 2.54 2.57 2.44 2.35 2.41 2.63
2.04 2.38 2.74 3.03 3.51 3.95 4.01 4.15 4.16 4.36 4.33 4.28 4.36 4.21 4.03 4.11 4.20 4.36 4.27 4.28 4.31 4.36 4.19 4.15 4.19 3.95 3.70 3.64 3.18 2.91 2.65 2.38 2.36 2.37 2.41 2.54 2.45 2.25 2.34 2.44 2.55 2.37 2.54
2.65 2.79 3.01 3.24 3.56 3.77 4.09 4.40 4.60 4.73 4.90 4.95 4.93 4.97 4.99 4.99 5.10 5.14 4.92 4.89 4.80 4.68 4.48 4.39 4.24 4.01 3.76 3.75 3.63 3.18 2.59 2.22 2.15 2.06 2.12 2.37 2.40 2.27 2.29 2.33 2.40 2.33 2.20
3.04 3.09 3.31 3.62 3.89 4.04 4.42 4.92 5.33 5.47 5.54 5.58 5.57 5.71 5.79 5.81 5.94 5.95 5.91 5.70 5.53 5.27 4.79 4.42 4.25 4.01 3.65 3.77 3.80 3.72 3.02 2.53 2.06 1.68 1.78 1.86 1.95 2.14 2.11 2.05 2.16 2.29 2.18
3.02 3.13 3.32 3.77 4.17 4.59 5.06 5.62 6.05 6.24 6.26 6.15 5.88 5.98 6.10 5.99 6.06 6.19 6.14 5.93 5.64 5.11 4.57 4.39 4.33 4.15 3.91 3.84 3.74 3.90 3.36 2.82 2.38 1.90 1.65 1.56 1.68 1.78 1.78 1.81 1.86 1.98 1.97
2.90 3.13 3.35 3.75 4.37 4.84 5.19 5.82 6.42 6.67 6.87 6.96 6.75 6.44 6.21 5.96 5.83 5.77 5.59 5.18 4.81 4.46 4.18 4.04 4.09 3.96 3.93 3.76 3.67 3.39 3.15 2.87 2.58 2.18 1.76 1.55 1.58 1.61 1.63 1.60 1.64 1.83 1.90
2.78 2.89 3.14 3.69 4.28 4.94 5.54 6.05 6.59 7.03 7.25 7.20 6.79 6.35 5.83 5.44 5.01 4.64 4.32 4.11 4.02 3.83 3.63 3.51 3.51 3.41 3.26 3.17 3.16 3.11 3.04 2.82 2.48 2.24 1.96 1.75 1.72 1.56 1.56 1.66 1.72 1.79 1.88
2.43 2.64 2.97 3.41 4.13 4.81 5.40 5.94 6.40 6.78 6.83 6.51 5.98 5.45 5.09 4.73 4.24 3.76 3.50 3.30 3.18 3.01 2.81 2.70 2.68 2.70 2.78 2.83 2.89 2.87 2.81 2.77 2.60 2.51 2.29 2.04 1.92 1.81 1.73 1.69 1.75 1.85 2.00